GFSSW_850_spd_000.txt.gz
Wind_Speed
12 15 17 18 19 20 20 21 22 23 22 21 22 21 19 18 19 19 27 33 28 14 18 21 19 15 9 6 7 3 3 2 5 3 4 15 9 14 13 7 4 2 2 4 11
10 12 14 16 16 17 18 19 20 21 22 21 22 22 21 16 19 25 32 34 30 18 22 21 21 16 8 6 6 5 4 7 6 3 5 17 14 19 9 19 3 3 5 7 13
13 12 13 15 17 19 18 17 18 18 18 20 21 20 18 13 13 27 32 35 35 28 21 23 16 16 11 7 6 6 6 5 14 19 17 10 16 12 6 6 7 5 10 13 14
10 12 13 14 16 15 17 18 17 17 18 20 20 19 17 15 8 3 22 35 40 35 25 22 16 10 6 6 11 3 12 15 19 25 15 6 16 10 13 15 17 19 15 15 19
10 10 11 12 13 14 18 18 18 18 20 21 20 19 18 18 24 3 2 33 41 40 30 23 16 16 6 7 8 4 7 17 26 27 22 19 12 12 15 21 16 16 13 16 18
11 11 13 14 15 14 16 18 20 20 18 18 18 18 21 17 32 6 3 27 43 42 32 27 16 18 12 7 6 6 8 15 14 20 15 7 14 7 16 26 24 18 15 15 16
13 12 12 14 15 14 15 17 20 20 19 19 18 21 23 24 20 27 6 16 37 41 34 32 15 18 8 3 7 9 6 8 14 18 7 10 8 9 25 25 26 19 14 16 18
12 14 16 14 14 16 15 15 17 18 18 19 19 21 13 30 24 18 20 14 30 35 34 29 20 16 3 2 4 2 2 2 5 5 11 8 9 13 16 12 20 18 9 9 16
14 13 13 15 16 15 14 15 15 16 17 18 18 17 8 16 26 22 22 18 25 31 33 24 20 5 3 3 3 3 3 5 9 9 3 6 7 12 12 15 11 7 3 9 9
15 15 13 13 10 13 13 14 13 15 16 15 17 13 12 16 24 25 23 22 21 31 28 18 10 3 2 4 6 5 4 5 6 4 7 6 11 9 16 9 9 10 13 12 9
14 15 12 9 6 9 15 14 10 6 23 6 13 10 6 19 17 18 24 24 26 26 14 18 5 10 10 10 5 4 3 4 8 9 8 8 6 11 6 9 14 15 14 13 11
18 15 13 4 4 11 15 10 13 8 9 9 3 21 5 23 13 18 26 22 27 20 20 7 17 13 9 6 5 5 6 9 9 4 1 1 8 7 3 6 16 17 13 11 10
20 13 8 6 8 10 17 20 12 21 6 5 11 20 9 18 10 19 29 20 23 22 23 8 10 13 9 5 8 6 8 5 6 6 4 0 6 2 2 6 11 12 12 10 9
19 10 7 6 7 10 7 14 22 17 4 3 7 8 12 16 6 16 17 19 10 22 17 5 6 16 11 11 8 8 8 8 3 2 3 2 4 3 4 5 3 11 12 11 9
15 8 1 7 1 6 9 22 19 7 3 6 5 9 14 9 17 5 15 14 21 20 6 8 13 16 13 10 9 10 6 3 0 1 3 2 1 6 6 6 7 9 13 12 9
11 1 10 16 15 13 19 17 7 3 4 6 8 12 13 7 3 10 4 14 21 8 4 2 14 10 10 5 7 6 4 7 4 2 2 7 7 5 8 11 6 6 16 15 11
12 10 14 17 21 24 24 13 3 1 4 7 7 11 12 6 6 6 3 7 7 12 6 5 2 2 5 5 3 5 6 1 1 1 6 1 3 8 8 8 15 12 21 17 12
14 14 15 21 17 13 24 5 3 4 2 5 13 13 4 14 6 12 5 9 3 10 8 7 9 8 5 6 7 6 7 5 6 4 4 1 6 6 5 4 17 28 24 19 14
9 10 16 16 21 13 12 3 2 2 5 10 14 5 4 7 5 7 2 6 4 6 7 6 3 2 2 3 6 5 4 4 2 2 2 3 6 2 7 8 17 22 23 19 14
5 6 9 6 15 14 4 4 3 5 11 6 5 5 6 14 10 8 9 5 7 8 3 5 5 1 2 3 2 4 4 2 2 3 4 4 4 4 2 7 8 10 20 18 14
3 3 2 2 17 6 2 3 6 17 7 4 6 10 15 11 10 8 5 3 1 5 4 6 4 1 3 4 7 2 1 2 3 4 4 1 5 5 8 8 11 11 22 20 17
2 0 4 22 2 1 3 4 5 4 8 4 17 23 9 7 5 3 5 2 1 5 6 2 5 4 3 1 1 3 6 5 4 3 1 3 5 3 2 7 13 20 23 17 15
5 2 4 18 2 2 2 4 2 4 3 7 4 1 4 3 5 3 4 2 5 3 6 5 2 4 3 4 2 4 4 4 4 3 5 5 5 4 5 6 4 9 10 15 16
3 1 4 9 3 6 4 3 4 4 6 6 4 5 3 6 7 4 3 3 3 3 4 3 3 5 7 4 5 5 5 5 5 4 4 5 2 1 4 5 5 7 14 16 18
2 2 2 2 3 3 2 2 3 4 6 4 5 3 5 4 3 4 2 3 4 2 3 3 4 2 2 3 3 4 6 8 7 4 6 1 5 4 6 7 11 11 11 19 21
3 1 2 3 2 4 4 1 3 3 3 4 7 3 7 5 1 5 5 2 2 3 3 3 3 2 2 4 3 3 4 6 5 4 6 2 10 4 8 5 1 3 16 25 24
3 1 1 4 2 3 2 5 4 6 7 8 10 13 12 1 7 12 12 11 5 4 2 3 3 2 2 3 5 5 5 5 4 4 5 4 5 4 5 5 6 5 17 25 25

GFSSW_850_spd_003.txt.gz
Wind_Speed
12 13 16 18 19 19 20 22 23 24 23 21 20 21 19 17 18 19 25 31 31 11 20 22 20 14 9 5 5 4 2 3 5 3 5 9 8 10 15 9 12 5 6 7 5
11 12 14 16 17 19 20 22 22 22 22 23 22 20 20 18 19 25 29 28 30 18 14 21 27 19 9 6 6 6 4 7 6 4 5 14 12 22 9 18 6 7 7 9 8
11 11 11 14 15 17 18 19 20 21 22 22 22 20 18 17 17 26 29 30 32 24 19 19 21 21 12 8 8 6 6 5 9 16 14 7 16 14 6 6 13 10 17 16 12
10 11 11 12 13 16 17 20 19 20 20 20 19 19 17 15 7 3 15 27 31 33 21 17 18 14 7 6 8 3 12 15 9 17 10 8 17 11 17 23 16 17 20 19 17
10 11 11 10 11 13 17 16 18 19 20 20 20 19 17 17 25 7 5 22 29 38 29 25 18 12 7 8 6 4 7 13 21 23 19 18 14 12 19 24 24 15 21 18 18
10 11 11 11 13 15 15 16 19 20 21 20 20 18 21 18 28 27 5 10 33 40 35 30 19 19 9 7 9 7 15 18 16 25 13 8 15 7 11 19 24 25 19 16 16
12 13 12 12 13 15 16 15 17 19 20 19 17 20 23 28 12 27 22 7 31 39 39 33 13 18 7 3 12 6 4 7 13 18 9 4 10 9 30 20 23 24 19 16 16
13 12 15 17 17 16 17 15 14 17 18 19 17 18 15 24 28 12 18 12 22 32 35 33 28 17 6 4 2 4 2 3 4 3 6 11 14 13 26 18 17 8 8 8 10
16 16 16 16 17 18 16 17 16 15 16 16 16 15 10 8 26 29 15 12 16 31 31 25 28 9 7 4 2 1 3 5 8 5 1 4 7 14 10 8 16 3 5 4 3
18 15 16 14 16 17 17 15 15 14 13 11 14 10 13 25 22 28 20 16 14 27 21 18 12 5 3 4 9 5 3 5 5 4 1 3 12 14 13 7 9 6 10 9 8
17 15 15 13 12 12 15 15 7 7 21 10 10 11 6 24 13 21 25 17 13 21 17 16 7 15 12 11 3 4 4 3 5 6 5 8 10 15 10 12 7 14 13 12 11
17 15 10 9 7 10 19 21 17 5 7 21 7 33 8 21 12 23 29 16 13 20 18 7 16 15 7 4 5 3 2 5 8 4 4 3 9 10 4 5 10 17 14 11 12
15 14 8 8 8 11 18 25 17 19 5 10 16 22 13 21 11 25 31 18 10 19 22 13 10 10 14 7 7 4 4 4 6 8 4 5 7 5 2 2 9 10 11 11 10
14 9 6 7 7 14 24 19 20 18 3 7 7 7 18 12 8 25 33 17 7 23 20 10 9 12 10 9 10 11 8 3 6 4 3 3 5 5 4 4 4 9 12 12 11
14 7 5 10 2 4 6 23 22 15 5 8 6 10 11 12 20 17 27 17 19 17 8 6 9 14 13 7 8 8 6 6 5 4 3 2 2 6 3 7 8 9 13 13 12
14 12 10 13 4 9 20 21 21 5 4 7 7 6 8 15 10 11 11 8 19 13 3 5 11 13 14 5 10 3 4 5 3 2 2 7 7 5 5 11 5 6 14 15 14
15 16 17 15 13 17 15 16 4 4 6 9 7 8 10 8 10 9 10 10 12 19 13 3 6 6 8 6 4 5 5 1 2 1 5 1 3 9 4 7 11 13 20 18 14
19 19 18 24 11 23 20 6 6 3 5 6 8 14 3 11 5 5 3 17 10 7 10 5 7 10 5 8 8 8 8 5 6 4 4 4 6 5 6 11 16 29 25 19 15
23 10 18 19 25 21 15 3 1 3 6 10 14 8 7 8 5 5 2 9 12 13 7 5 3 3 2 4 9 5 4 5 3 1 1 4 7 3 6 5 13 24 25 21 16
11 6 9 8 18 21 4 5 3 6 12 14 7 7 5 9 6 6 0 1 4 7 2 6 5 2 2 4 4 6 7 3 2 3 4 4 5 5 2 3 5 10 23 22 16
3 3 4 5 18 10 2 2 4 20 7 7 6 5 10 12 8 6 3 7 4 5 5 5 4 1 4 4 7 3 2 5 4 4 3 2 6 5 5 8 12 11 26 22 16
2 0 6 20 2 1 2 2 12 9 2 4 3 8 6 7 6 6 6 4 8 10 7 2 5 5 2 0 3 2 7 6 4 4 2 3 5 4 4 7 12 18 13 12 12
4 4 11 11 1 2 2 4 1 3 5 4 5 6 4 6 5 2 5 1 5 5 7 6 1 4 3 4 3 4 5 4 4 3 5 5 5 3 4 7 6 6 10 14 17
3 2 5 13 7 3 6 2 4 3 2 5 3 5 4 3 3 4 3 3 3 3 5 6 3 6 8 5 5 5 5 5 6 4 4 6 4 2 6 5 1 2 6 11 18
3 3 3 4 3 3 3 6 3 3 3 6 5 6 4 4 3 5 3 4 3 4 3 3 4 3 3 4 4 4 6 9 7 5 6 3 6 2 1 5 8 11 10 11 21
3 2 1 1 2 4 3 1 3 2 2 1 4 1 1 4 3 5 6 2 3 3 2 3 2 2 1 4 4 1 2 6 3 3 3 3 4 3 3 2 2 4 6 15 21
3 3 1 3 1 2 3 5 6 6 6 3 14 7 5 6 7 13 12 12 6 5 3 3 5 3 2 2 3 4 8 7 4 4 6 5 3 2 3 4 3 1 6 14 19

GFSSW_850_spd_006.txt.gz
Wind_Speed
12 13 14 16 17 19 20 20 20 21 21 18 18 18 19 18 17 19 21 26 28 8 20 19 20 14 10 4 5 4 3 2 4 5 5 5 8 6 17 10 19 5 7 10 14
13 13 14 14 15 15 16 18 19 20 20 22 22 19 17 18 20 25 27 25 24 20 15 17 24 20 7 5 5 5 4 8 6 5 4 9 8 20 9 20 9 11 8 13 17
11 11 11 13 14 14 16 17 17 18 19 18 19 21 18 18 17 28 26 27 26 28 18 14 17 23 10 7 7 6 6 5 7 13 12 7 15 11 6 7 8 21 19 21 21
13 12 11 10 11 12 15 16 16 16 18 19 19 18 18 15 7 3 9 20 24 29 26 15 11 16 8 7 7 3 11 10 6 11 7 5 12 10 14 19 21 19 18 22 23
12 10 10 11 11 10 10 14 15 15 15 16 17 15 15 14 23 8 5 2 22 27 29 20 16 15 7 8 5 4 4 9 16 20 19 18 17 12 22 30 27 24 23 21 23
12 11 12 12 12 13 12 12 13 16 15 17 17 16 18 16 27 29 11 5 16 28 34 27 16 16 12 7 12 7 15 19 18 26 15 8 15 6 19 15 24 24 27 24 21
13 13 13 14 15 14 14 13 13 14 15 16 16 16 19 31 8 15 30 26 6 24 35 33 11 16 8 3 8 13 3 7 9 13 8 6 12 12 36 25 19 17 26 17 14
15 15 15 14 16 17 16 14 13 14 13 17 15 17 15 9 27 19 9 17 16 24 31 31 23 13 7 6 5 6 2 3 4 2 4 6 17 11 22 15 17 15 11 3 3
17 18 18 16 15 17 17 14 14 13 13 12 13 14 10 10 26 27 15 6 10 18 22 28 29 10 11 4 4 3 4 6 7 5 3 5 8 8 4 3 8 9 2 5 6
17 19 19 17 16 14 18 17 12 13 10 9 10 5 19 15 21 19 25 10 9 18 15 19 16 6 4 4 7 6 4 3 5 2 2 5 13 17 17 6 10 6 5 6 9
18 18 17 16 19 18 16 15 8 6 19 13 13 10 7 12 8 12 24 19 9 21 12 19 9 12 13 13 3 6 4 6 4 4 2 7 8 15 15 12 8 7 8 9 12
17 19 18 9 12 12 23 26 22 6 6 29 11 17 24 5 8 15 25 15 9 9 16 8 16 14 7 8 5 3 3 5 6 1 3 7 10 12 7 7 4 11 12 10 13
16 18 14 10 11 13 29 30 15 10 1 9 25 12 12 19 12 23 30 16 5 13 22 10 7 14 12 6 10 3 5 4 5 7 3 6 8 6 2 2 6 11 11 11 12
16 17 11 9 8 15 27 22 20 20 4 6 11 10 14 8 6 23 30 17 5 18 20 6 5 15 15 10 7 9 6 3 3 4 3 5 6 6 5 4 6 11 13 13 13
14 15 12 9 10 10 17 22 20 18 2 11 8 7 18 10 9 23 33 25 9 10 8 6 14 11 15 16 10 4 6 6 3 3 2 1 2 7 1 5 6 9 14 13 14
15 14 13 10 6 12 7 25 21 3 6 10 10 10 10 15 7 20 18 11 12 9 2 4 9 10 7 4 11 6 5 2 3 2 2 6 7 5 4 6 4 5 15 16 16
17 16 15 10 11 9 19 18 3 4 4 7 7 10 12 7 10 11 17 16 9 12 15 1 3 3 9 6 3 5 7 2 1 1 6 1 2 8 4 5 8 13 21 19 18
19 19 20 16 19 21 24 3 6 3 9 5 7 12 7 8 9 14 10 8 11 3 13 7 6 8 5 6 6 7 8 5 6 4 4 3 6 5 2 9 10 24 28 22 19
20 23 15 15 24 23 16 3 4 5 7 11 12 7 5 10 2 10 19 11 12 12 9 9 5 2 4 5 12 6 9 4 5 2 1 3 7 8 4 6 4 22 29 25 20
17 6 3 5 29 30 4 4 7 6 12 14 7 6 9 14 7 5 5 10 15 10 6 6 5 1 2 7 3 7 8 2 2 3 4 4 5 5 5 2 3 8 23 23 19
4 2 5 12 32 19 3 6 3 16 14 7 6 6 7 7 5 4 8 3 8 7 4 6 4 2 6 5 8 2 4 4 4 3 4 1 5 5 5 4 8 7 21 22 19
3 1 9 26 5 4 7 3 8 12 2 3 4 5 10 8 5 4 7 5 13 8 8 3 6 6 2 1 4 4 7 6 5 4 1 3 6 2 6 5 10 10 15 17 16
2 4 14 18 3 2 2 2 3 4 1 4 4 5 9 6 5 4 5 3 10 6 8 7 2 5 2 1 2 4 4 4 5 3 6 5 5 3 6 6 9 12 13 16 16
4 2 5 14 6 2 3 4 3 2 3 4 5 6 7 3 3 6 6 0 4 4 5 8 3 6 9 4 6 5 5 5 6 4 5 6 4 3 3 5 5 6 7 11 17
5 3 5 3 4 5 4 7 3 5 8 2 3 12 5 5 4 5 3 5 3 8 3 4 4 3 3 4 4 7 9 10 9 7 7 5 8 3 4 4 4 5 3 7 14
4 3 4 1 1 5 4 5 4 3 4 1 7 4 4 4 3 8 7 4 5 3 2 3 2 3 2 3 2 2 4 8 4 4 2 5 4 3 3 3 2 2 3 2 9
6 5 2 0 2 3 3 5 6 5 3 4 7 7 10 1 2 12 12 12 7 7 3 5 5 3 3 1 2 4 8 8 5 4 7 7 7 4 3 6 5 5 4 3 6

GFSSW_850_spd_009.txt.gz
Wind_Speed
10 11 12 13 13 14 16 19 18 18 18 17 16 14 14 14 15 18 20 19 19 8 15 18 23 18 12 7 7 5 2 4 4 5 4 3 4 3 9 10 15 7 8 9 15
9 10 12 13 13 13 13 14 16 18 18 19 18 17 14 16 18 24 24 19 19 21 18 12 18 22 8 7 7 5 4 9 6 4 4 6 7 11 7 9 9 10 15 14 18
9 10 10 10 11 12 13 13 13 15 17 17 16 16 16 15 15 21 25 22 21 18 24 11 17 21 13 8 8 6 5 5 5 11 10 7 7 4 4 5 10 19 22 20 21
10 9 10 10 9 11 11 13 14 14 14 16 15 15 16 14 8 5 8 16 22 22 25 18 14 12 8 7 9 3 9 7 5 7 5 5 9 9 13 19 18 26 28 26 23
9 9 9 10 10 10 10 9 11 13 13 13 14 15 17 14 21 9 3 3 13 22 26 24 19 16 10 12 7 4 4 9 16 14 16 14 17 13 18 31 23 20 15 22 23
8 7 10 12 12 11 12 11 10 11 12 14 13 15 19 17 17 23 18 2 1 18 28 30 17 19 13 9 16 9 17 20 15 19 14 8 13 2 31 27 25 21 23 20 23
10 9 11 12 15 14 13 12 11 9 11 14 14 16 20 25 9 8 23 29 16 14 29 35 20 16 11 5 10 8 2 4 6 8 7 7 8 9 29 22 19 17 15 16 8
11 11 14 15 14 14 14 15 12 11 11 14 13 16 14 11 21 22 8 15 23 16 23 34 27 19 8 8 6 8 3 9 3 3 4 6 10 7 12 4 5 5 6 2 1
14 16 16 19 19 15 13 14 13 12 10 10 12 13 8 10 27 23 25 9 9 15 18 28 13 12 13 6 4 4 5 6 7 7 5 6 7 5 1 8 11 7 3 3 4
14 15 17 18 18 18 13 15 13 13 10 8 9 6 14 11 17 13 20 21 11 13 13 15 12 6 7 7 9 7 7 4 5 2 2 4 12 14 17 9 10 5 4 6 6
14 14 17 17 17 18 16 13 10 6 20 13 10 8 5 6 9 8 14 22 14 15 10 21 10 11 15 14 4 6 6 9 2 2 1 4 6 14 11 9 10 6 11 11 10
13 12 16 16 13 13 17 27 23 6 5 29 13 21 12 7 6 9 15 17 10 6 10 9 17 15 11 10 6 5 4 4 3 1 2 6 14 13 3 6 6 14 16 15 15
12 12 15 13 12 16 20 28 22 13 1 6 34 14 12 18 6 9 23 22 10 12 18 19 7 14 13 9 9 4 5 4 4 3 1 5 6 5 2 1 4 12 19 16 17
13 13 11 9 11 14 16 25 23 14 1 6 13 13 16 9 6 18 28 22 7 15 17 11 11 16 15 15 10 10 4 3 3 4 2 4 6 5 5 2 4 12 18 19 19
14 12 11 7 8 11 8 25 18 12 4 10 10 4 15 15 5 16 29 23 9 11 8 6 11 21 17 14 10 4 6 3 1 3 1 1 2 6 2 3 6 10 15 18 19
14 13 11 10 14 12 9 16 19 4 6 9 10 9 13 8 5 21 23 17 5 7 13 1 6 12 8 9 9 9 7 5 4 2 3 5 6 5 3 4 5 6 16 19 21
15 15 15 13 11 10 16 28 3 4 3 6 5 9 14 8 7 11 17 16 5 10 19 3 5 4 6 10 2 4 6 2 1 4 5 2 1 8 3 4 7 15 25 23 24
16 16 18 17 13 21 29 3 7 4 6 3 5 11 9 10 7 11 16 11 11 4 12 5 5 8 9 6 7 6 6 5 5 4 2 3 5 5 2 4 7 18 28 27 26
18 19 20 21 23 29 15 4 4 4 7 10 9 11 5 9 6 9 11 11 9 7 9 10 3 2 6 5 10 4 5 3 4 2 1 3 5 7 1 3 3 17 30 30 27
19 8 9 10 30 33 3 4 4 6 11 13 5 6 8 12 2 10 11 9 11 14 4 6 5 2 3 7 5 7 8 3 2 4 3 3 4 4 4 4 3 8 20 28 25
7 4 4 17 37 13 3 5 4 8 17 10 5 6 8 7 5 7 18 10 11 18 4 6 4 0 6 5 9 4 2 2 3 2 3 1 4 4 5 3 6 11 24 28 26
3 2 6 35 5 4 3 4 9 15 17 9 7 5 8 8 8 7 13 5 19 12 8 7 5 4 3 0 3 5 8 9 4 3 1 2 5 1 5 6 10 16 25 25 22
3 4 16 27 3 7 6 8 8 6 5 6 4 4 7 8 7 5 9 9 22 13 8 6 1 5 4 1 4 4 4 5 4 3 6 5 4 2 3 4 9 21 24 22 20
4 3 7 19 8 3 3 4 5 4 1 1 3 5 8 9 3 5 5 4 14 12 6 5 3 5 7 4 6 5 4 4 7 4 5 6 4 3 1 5 7 13 17 18 20
6 5 7 5 6 8 3 6 3 5 4 4 4 8 8 4 4 5 4 4 3 13 3 2 3 3 2 2 6 7 9 11 9 10 9 7 8 7 6 6 9 10 10 13 16
4 4 4 2 2 8 5 4 12 2 4 5 9 15 5 7 6 9 9 6 6 1 4 3 3 3 2 2 4 5 6 13 10 4 6 5 7 5 5 7 7 7 7 8 11
7 9 3 2 2 4 5 5 8 7 2 2 11 6 4 2 5 9 12 14 7 7 4 3 4 2 3 1 4 3 10 10 7 5 12 12 10 7 4 7 9 9 7 5 4

GFSSW_850_spd_012.txt.gz
Wind_Speed
9 10 10 11 11 11 13 17 17 15 14 16 15 13 14 14 14 15 14 14 14 11 12 19 22 19 11 8 7 5 7 12 14 9 3 3 4 6 7 11 8 7 5 8 13
8 8 9 9 10 11 10 12 15 17 17 16 15 14 14 14 15 18 20 16 15 11 14 8 14 18 16 11 8 12 10 16 9 10 7 4 10 11 9 12 13 10 7 9 11
7 7 8 9 8 9 9 10 10 11 13 15 17 17 18 14 10 15 20 20 16 16 15 11 12 14 24 16 16 13 17 12 11 10 7 8 13 8 12 11 8 14 15 16 16
7 7 7 7 7 8 9 9 10 10 11 13 14 13 14 12 6 4 2 11 19 20 15 15 16 10 17 17 20 13 18 16 13 10 8 12 11 15 19 26 20 20 19 18 11
8 6 4 6 8 8 8 8 8 11 12 12 14 15 15 13 15 6 3 4 4 16 22 21 20 19 18 22 20 19 18 16 16 15 14 14 16 19 24 29 24 22 18 13 15
9 8 6 5 7 9 9 9 9 10 11 12 13 16 14 15 13 18 16 6 2 9 20 23 16 23 16 23 24 14 22 19 17 17 15 15 21 6 26 21 23 19 16 14 15
12 10 9 8 8 9 9 11 10 11 10 12 12 15 14 19 8 7 22 24 22 7 21 24 27 14 18 18 21 29 12 13 16 19 15 11 18 19 27 17 19 13 10 7 9
15 13 10 10 10 11 10 10 12 11 11 11 13 14 11 15 24 19 10 7 18 22 14 21 23 20 9 15 15 18 17 17 18 17 14 10 18 11 8 2 2 3 2 1 0
16 15 15 13 12 14 14 11 13 13 11 11 12 10 9 10 22 23 26 18 5 16 17 11 19 9 16 11 13 16 15 22 18 14 13 13 12 7 6 14 16 11 4 4 4
17 16 14 14 14 12 14 12 15 15 12 9 9 7 16 11 13 18 22 20 16 12 14 15 14 8 9 11 18 18 16 12 17 9 11 14 16 14 15 12 12 7 7 7 7
18 15 14 14 14 13 12 12 10 7 21 14 12 9 3 13 7 12 13 18 15 12 12 26 11 20 24 21 16 19 18 15 13 6 6 13 16 14 20 13 13 10 11 10 9
17 15 14 14 15 14 13 22 18 6 6 28 10 26 5 8 7 14 12 17 17 16 19 17 21 24 17 22 20 17 15 15 10 5 6 13 17 17 16 13 10 12 15 15 13
16 14 13 13 15 16 20 25 26 21 2 10 30 19 14 17 8 11 21 26 16 18 16 21 20 26 13 25 21 15 15 14 9 4 7 9 18 11 5 5 4 9 14 16 17
15 13 13 10 11 16 16 19 22 22 2 6 11 14 21 11 9 23 24 21 11 19 14 20 18 20 18 19 22 16 11 7 7 2 5 3 5 9 8 6 7 14 17 18 18
14 13 13 12 6 9 7 9 20 12 5 11 9 7 14 20 4 20 23 24 16 8 6 13 26 16 19 17 23 15 11 10 4 6 4 9 6 5 3 7 9 14 19 18 17
13 13 13 15 15 16 12 17 19 4 7 8 9 12 13 23 14 9 17 17 9 11 16 12 5 17 15 16 20 13 12 7 3 1 7 11 9 5 4 2 9 15 19 20 19
14 12 16 17 12 11 17 23 3 6 4 6 5 9 14 10 16 9 18 22 6 6 7 13 12 9 16 14 4 15 15 3 5 4 6 3 7 11 4 2 9 17 22 22 21
15 14 16 20 18 15 32 4 8 5 5 4 7 14 11 12 13 13 16 17 14 14 12 7 6 14 13 17 7 12 16 4 5 6 5 3 6 1 5 3 6 16 23 22 21
13 13 18 21 22 18 20 5 4 4 6 9 14 12 10 14 5 16 17 21 5 14 7 5 1 3 13 6 15 5 6 2 2 1 3 5 4 4 2 2 6 15 23 23 23
13 13 21 11 26 30 3 5 4 7 6 15 9 12 14 15 5 14 17 16 10 15 9 12 3 5 6 9 6 8 12 5 3 5 5 4 4 2 2 0 5 14 24 25 22
9 4 6 13 28 17 4 5 4 12 15 16 8 11 11 14 8 15 17 7 19 13 14 7 6 2 12 6 14 10 7 4 3 3 3 3 3 3 4 5 5 12 24 24 24
4 3 11 28 5 4 3 5 5 6 21 16 6 8 13 14 8 4 15 6 28 14 10 7 3 8 5 3 7 12 10 11 6 5 1 4 2 3 4 5 5 13 22 22 22
4 4 23 34 4 5 6 7 8 12 17 10 11 10 11 12 9 14 13 18 27 17 12 10 6 8 5 3 2 9 11 16 10 2 11 8 3 1 2 2 5 14 21 21 21
4 3 8 16 9 4 8 10 8 21 16 15 9 9 15 12 10 14 11 10 24 22 18 6 5 12 11 6 11 14 20 19 18 11 9 11 7 6 4 4 7 14 19 20 20
7 5 8 5 9 13 7 3 11 9 8 6 6 11 15 8 11 9 8 7 14 27 10 4 3 6 3 2 15 18 19 20 20 21 13 15 18 16 9 9 12 16 18 19 19
5 4 4 4 12 12 14 9 11 6 4 4 5 14 16 11 11 13 9 12 11 17 18 5 4 3 3 3 10 14 20 22 23 21 23 18 18 5 4 12 13 15 16 17 18
10 11 3 3 4 4 5 8 14 7 7 8 11 14 14 8 13 20 18 15 9 18 20 13 4 3 3 3 5 8 19 20 19 21 22 19 21 10 8 10 14 13 12 12 12

GFSSW_850_spd_015.txt.gz
Wind_Speed
10 11 12 12 11 10 11 14 15 16 15 18 18 16 14 14 14 13 13 10 7 12 12 8 12 16 16 15 14 10 11 14 19 16 12 3 8 6 8 14 13 10 9 4 6
9 10 11 11 10 10 10 12 15 17 16 16 14 15 15 14 13 17 18 16 14 10 8 8 9 17 23 20 18 15 13 21 16 12 12 11 8 11 11 14 13 13 9 7 7
10 10 10 9 10 10 10 10 12 14 15 18 18 15 15 11 13 19 18 21 17 13 10 10 9 13 26 26 27 21 20 18 21 13 15 14 14 18 12 15 16 10 11 13 14
10 10 9 8 8 9 9 10 9 11 10 11 13 12 13 10 9 0 14 18 23 19 13 13 13 12 12 23 28 22 25 28 24 15 13 15 17 19 19 21 19 18 19 18 15
12 10 9 9 9 9 9 9 8 8 11 9 10 12 11 14 20 5 2 4 1 14 20 19 20 17 18 19 26 23 23 26 25 21 18 18 21 20 26 24 23 21 19 19 17
14 11 10 9 10 10 10 8 8 7 8 11 10 12 13 17 15 20 14 9 4 6 17 20 15 21 18 25 21 14 29 27 22 22 22 18 22 22 24 23 23 21 21 18 16
15 13 12 10 11 10 11 9 9 9 9 9 11 12 16 21 9 12 17 20 17 11 13 18 22 16 14 18 32 28 21 19 27 22 22 22 22 24 26 25 21 20 19 12 10
14 15 14 12 12 13 12 10 9 10 10 10 12 10 13 15 23 15 8 7 12 18 15 13 19 23 12 15 26 24 18 18 18 21 24 16 22 16 12 8 11 6 6 6 6
15 15 15 15 14 15 14 14 10 10 10 10 9 12 13 12 23 23 23 15 8 10 18 13 16 18 12 10 14 15 18 25 21 24 20 19 19 17 22 9 14 14 10 7 4
19 16 16 15 14 15 15 12 10 13 12 7 10 7 19 13 14 16 18 21 21 11 14 20 12 11 13 11 15 21 25 19 23 20 17 20 22 18 19 15 14 13 15 10 8
19 17 15 15 15 17 15 11 7 5 22 13 10 17 4 18 7 9 16 15 18 21 17 27 12 18 27 25 23 22 20 22 21 19 17 17 21 20 22 21 19 14 13 13 11
17 16 15 14 14 18 17 16 14 4 7 31 23 19 16 6 7 14 16 17 21 20 20 18 19 26 28 22 22 23 22 22 14 15 11 14 17 19 17 20 22 16 17 16 14
16 14 14 14 14 20 24 24 27 20 6 9 35 31 26 12 12 15 22 25 20 21 21 24 22 27 28 24 22 26 24 19 16 13 11 13 18 21 19 26 12 15 17 18 18
14 13 13 13 14 17 20 18 25 19 4 6 8 10 22 13 10 27 25 21 17 22 22 18 26 19 27 27 24 19 17 16 15 8 8 9 7 12 14 13 12 14 19 20 19
14 12 14 18 7 9 10 6 10 7 6 10 9 7 14 15 5 20 31 24 20 20 5 11 9 22 26 25 27 12 22 16 12 8 4 12 6 14 11 15 13 14 20 21 21
16 12 14 17 20 12 13 7 11 2 7 7 7 12 9 21 16 3 29 23 19 19 15 19 16 21 22 23 21 9 19 13 7 3 7 13 13 11 12 14 16 15 20 22 22
18 15 19 17 12 18 13 19 2 6 3 5 4 7 12 10 18 10 17 19 11 6 11 9 14 18 14 14 19 13 17 6 5 4 6 5 11 13 10 6 7 16 22 24 23
18 14 21 20 15 11 24 2 9 4 5 3 4 8 7 11 15 20 9 16 21 9 4 9 9 14 17 7 10 12 17 8 7 9 12 7 7 4 8 4 10 18 23 24 23
15 16 26 22 21 20 15 5 5 4 6 7 8 6 7 15 6 15 16 17 18 19 5 8 8 12 13 10 14 7 10 2 3 7 8 8 10 7 5 6 8 18 24 26 25
15 18 25 21 26 27 6 9 5 5 4 7 12 13 13 15 9 13 11 15 17 17 14 4 2 6 3 12 6 8 8 7 3 7 5 8 6 6 10 8 10 14 24 25 24
14 5 6 18 27 12 6 7 7 9 11 9 16 12 14 11 15 11 9 7 22 20 15 2 2 3 5 5 13 6 3 5 3 2 3 6 4 11 5 2 8 13 24 26 25
9 3 10 23 5 3 5 5 5 7 20 11 13 11 14 17 13 16 12 16 21 13 10 11 6 3 5 6 13 10 9 13 6 5 5 4 5 5 4 2 5 14 22 25 24
6 6 15 33 4 5 4 7 7 2 6 9 11 13 12 13 10 12 10 16 14 19 8 9 2 3 6 7 3 5 11 16 13 6 11 7 5 4 5 6 7 13 21 23 23
5 4 5 15 12 5 6 7 7 15 15 16 9 14 14 13 15 16 8 10 14 21 20 7 8 7 6 7 12 9 15 16 15 10 11 11 4 10 6 6 9 14 19 22 23
10 6 8 5 7 13 8 5 5 6 12 21 7 18 16 13 16 7 15 12 13 20 15 5 9 4 3 3 16 17 19 20 19 18 12 12 15 10 6 8 9 17 21 22 23
7 5 7 4 16 14 14 8 13 12 13 7 12 19 18 10 13 10 14 11 9 15 17 12 4 2 3 2 6 13 18 20 22 23 21 19 16 6 2 4 10 16 21 22 21
16 9 2 6 7 7 4 11 12 12 9 7 9 9 15 13 14 4 17 13 3 15 18 7 4 3 3 5 5 9 19 19 19 21 20 21 18 15 6 8 11 13 17 18 18

GFSSW_850_spd_021.txt.gz
Wind_Speed
10 9 9 10 9 8 7 7 8 8 8 10 12 17 14 14 12 12 14 9 7 8 10 12 9 8 10 15 14 15 3 8 10 9 11 18 4 4 4 2 4 9 15 8 4
11 10 9 10 10 8 6 6 6 7 9 10 14 12 13 12 14 18 17 13 12 15 14 9 5 8 12 9 11 8 5 9 4 9 7 21 9 4 1 2 5 13 11 9 6
12 10 9 9 9 7 5 5 5 6 7 9 11 12 10 8 9 21 19 18 18 15 12 10 9 8 5 15 12 7 10 5 8 23 24 15 6 4 1 3 7 10 14 6 6
12 11 10 9 7 5 4 5 5 5 5 6 7 9 9 7 7 3 2 6 7 16 16 11 7 4 3 4 17 10 17 19 20 30 25 7 11 5 9 9 12 17 21 18 14
13 12 12 10 8 6 5 5 5 5 5 5 5 5 6 11 18 6 1 5 7 7 18 15 9 10 4 6 8 15 15 21 27 31 32 27 17 15 12 16 15 20 24 22 19
15 14 13 11 9 7 6 6 5 5 5 5 6 6 10 14 13 22 14 7 8 3 1 16 9 11 13 9 12 12 16 22 29 25 24 19 13 14 12 15 16 22 27 23 24
16 15 13 13 10 8 7 6 6 6 7 6 6 7 13 25 7 9 10 14 12 10 6 8 12 17 5 5 11 13 13 15 20 19 17 21 17 14 27 22 24 31 31 27 28
16 14 12 12 11 9 9 8 7 8 7 6 7 7 12 14 17 15 16 16 18 18 18 13 10 12 14 8 9 5 6 14 7 14 13 16 21 9 26 16 26 33 35 27 17
17 12 12 10 12 11 10 10 9 10 9 7 6 7 11 8 15 24 16 15 6 3 6 16 11 7 7 5 4 4 8 7 10 8 7 9 15 11 26 22 30 32 27 25 18
18 13 14 12 10 12 11 10 9 10 10 6 8 4 12 11 11 12 20 16 12 6 8 12 9 4 0 5 12 13 7 6 7 6 10 14 18 11 19 21 28 27 22 18 21
18 14 13 15 11 14 12 9 6 4 15 11 11 7 2 2 6 10 12 19 19 16 7 11 7 9 12 14 8 5 8 11 6 9 10 18 18 20 21 25 19 20 21 16 25
19 15 14 16 12 15 14 8 7 4 7 21 28 22 21 5 5 11 12 16 17 14 8 6 18 12 8 10 10 13 14 20 15 14 11 14 19 23 17 16 25 26 27 24 27
20 17 14 15 14 17 18 16 14 13 6 8 26 26 30 21 18 14 20 23 11 11 13 17 3 19 14 12 13 15 16 16 15 14 16 10 16 23 15 26 28 32 32 31 36
20 18 16 17 16 18 17 12 12 9 4 3 5 5 9 10 5 26 25 20 10 17 15 14 22 13 15 18 12 16 13 15 17 11 10 3 8 16 17 14 9 24 24 36 36
21 21 20 20 9 20 8 9 8 6 5 7 5 2 0 9 8 10 28 23 17 14 10 8 10 19 20 20 12 18 5 11 12 14 14 19 8 7 8 20 19 17 22 37 40
24 23 23 22 17 13 13 10 13 3 8 6 5 5 3 9 4 1 5 19 5 11 14 15 4 5 14 14 11 2 1 12 8 9 12 20 14 6 8 20 20 13 30 36 40
27 26 27 27 27 19 15 15 3 4 2 5 4 6 8 6 7 7 4 11 6 7 6 6 15 2 4 3 2 5 4 3 6 6 13 10 13 15 5 11 13 16 31 38 42
27 26 25 29 21 26 18 3 6 4 4 4 3 7 6 5 6 8 3 8 16 8 2 4 5 13 12 19 9 13 15 7 7 8 8 10 8 7 19 8 19 32 40 42 43
25 25 30 33 25 25 20 4 7 6 4 5 3 4 5 8 7 9 11 4 5 17 7 5 6 2 8 13 20 10 13 25 6 5 5 5 8 4 2 8 17 25 33 34 41
23 26 22 33 32 33 6 5 4 4 7 4 7 9 6 7 9 9 8 7 7 15 14 2 7 7 14 15 16 13 15 10 5 5 5 9 5 5 6 10 15 18 25 30 38
25 12 15 34 34 18 4 6 5 7 10 8 6 5 7 4 9 4 5 6 13 16 19 8 6 4 1 7 15 9 4 8 3 7 4 5 5 5 13 15 17 17 28 34 40
19 5 20 38 5 3 4 5 4 7 15 9 5 7 5 8 7 5 10 9 14 11 16 10 3 5 9 8 12 10 12 13 7 10 5 4 3 3 9 9 13 18 27 34 39
18 7 26 33 5 4 2 3 6 7 8 8 9 11 12 6 7 9 6 10 11 9 15 9 4 3 4 3 9 10 12 8 9 13 3 5 4 2 7 8 14 20 26 31 37
9 4 9 17 5 6 5 4 4 14 14 15 7 12 10 7 13 4 9 7 25 17 19 14 5 7 4 3 6 7 14 14 13 3 1 1 6 2 5 8 9 23 31 36 39
7 4 6 5 6 6 10 7 5 4 10 11 4 9 9 5 12 9 9 7 13 21 13 7 5 8 13 16 8 8 12 19 15 6 4 4 5 8 10 10 12 25 29 32 35
10 5 7 7 11 12 9 8 9 6 5 6 9 12 13 8 6 6 7 5 6 11 5 9 5 10 10 7 14 9 14 9 6 4 2 3 3 2 4 12 12 26 32 30 32
11 11 8 6 7 7 6 12 13 8 10 20 14 9 7 8 15 2 5 10 3 7 9 8 4 5 3 5 7 2 10 5 4 2 5 2 5 5 6 8 12 24 29 31 34

GFSSW_850_spd_024.txt.gz
Wind_Speed
13 11 8 8 7 7 7 7 8 7 8 9 9 14 13 12 11 13 16 8 9 9 8 6 9 8 6 9 12 4 2 6 9 8 8 6 3 16 8 6 4 2 4 9 8
14 13 10 8 8 7 7 6 6 6 7 8 10 9 10 13 15 21 19 13 11 12 10 9 6 6 2 5 8 7 7 10 6 10 9 5 5 14 5 2 2 1 8 5 9
16 13 11 10 8 6 5 5 5 5 6 7 10 12 10 8 8 19 17 20 20 17 13 10 8 3 4 8 8 6 12 6 7 19 18 10 8 18 6 5 8 5 3 1 8
19 15 12 11 9 6 5 4 4 4 5 6 6 7 9 10 6 2 3 2 10 19 17 12 8 5 3 5 8 7 10 17 11 17 16 4 9 10 13 12 8 9 9 9 11
19 16 13 13 11 8 6 4 3 3 3 4 4 5 9 11 13 9 8 6 4 12 21 17 11 7 5 4 7 5 7 16 20 21 26 28 18 14 21 23 19 17 16 18 21
18 17 15 14 13 10 8 6 5 4 3 4 6 7 11 6 10 20 10 6 5 5 15 18 12 12 7 8 7 10 11 12 18 19 18 14 16 12 21 22 19 16 18 21 23
18 17 16 15 14 12 9 7 6 5 4 5 5 8 13 21 7 16 22 17 12 7 8 11 20 10 4 4 8 7 7 8 8 7 6 15 21 21 23 25 25 23 24 28 25
20 19 16 15 15 13 10 9 7 6 5 5 6 7 9 6 12 16 16 14 16 17 17 13 10 9 7 9 7 4 4 4 3 6 6 8 26 10 17 18 22 24 26 32 29
22 20 17 15 13 13 11 10 9 6 7 6 5 6 10 5 9 13 20 15 13 15 19 23 15 5 3 3 4 3 4 6 4 11 5 12 23 10 24 24 22 23 31 34 32
22 22 19 15 13 14 13 10 9 7 6 6 7 3 10 7 5 4 23 16 11 7 8 10 5 2 1 5 13 12 6 6 5 4 8 16 19 10 23 19 24 30 36 34 30
24 23 20 16 16 15 18 10 6 4 15 10 10 6 1 1 4 4 17 19 14 8 4 5 4 10 15 9 6 7 5 7 3 8 7 11 16 17 19 22 20 29 31 29 23
25 24 21 17 18 17 18 13 9 4 5 18 25 20 16 5 3 6 10 14 11 9 4 4 11 10 7 8 9 11 13 15 8 9 9 11 16 13 16 17 25 29 29 33 22
26 26 23 18 20 19 23 21 12 6 3 6 19 17 20 14 13 11 19 14 7 12 12 12 6 14 13 12 11 14 17 11 12 11 15 12 22 14 15 18 27 33 33 32 30
25 25 24 22 22 21 23 22 12 5 2 4 2 3 6 10 5 23 21 14 7 15 13 12 17 9 16 14 11 15 11 11 9 7 5 4 10 10 6 16 15 30 29 30 34
25 24 28 29 18 25 22 16 10 6 3 4 4 4 5 9 3 4 24 22 12 10 7 8 8 19 20 15 13 9 5 5 3 8 8 16 8 6 9 11 16 21 27 36 39
26 26 33 31 19 14 16 21 16 4 6 6 5 5 5 5 2 2 5 17 3 14 15 8 0 7 12 14 13 3 4 3 2 1 9 22 11 11 10 16 16 18 27 36 38
28 26 32 33 29 25 24 26 3 4 3 6 4 5 3 6 7 7 6 8 5 7 8 6 15 4 4 6 8 11 6 3 4 6 12 10 11 22 8 13 13 16 23 34 39
27 27 36 33 27 31 34 2 4 4 4 3 4 8 7 7 6 9 6 8 13 6 1 6 4 16 9 15 5 13 15 4 7 4 6 6 10 10 14 26 29 20 30 36 42
22 32 42 38 34 37 24 4 7 5 6 10 5 5 6 8 6 9 9 9 9 16 8 5 5 3 6 7 12 6 10 22 5 4 4 5 6 10 9 9 7 14 28 34 39
19 33 35 42 40 38 7 5 5 4 8 5 6 9 6 6 9 8 8 5 9 16 12 5 2 6 5 4 9 14 7 5 5 6 10 7 5 10 13 13 6 15 22 30 34
28 13 26 38 43 25 4 6 4 9 9 6 6 6 7 6 8 7 6 4 13 12 20 5 4 2 5 10 14 9 11 10 6 6 5 4 7 10 15 12 13 13 26 35 38
11 4 37 42 6 4 3 6 6 7 8 3 3 8 7 10 6 5 8 7 15 10 12 10 4 8 20 11 11 15 17 19 7 13 4 2 8 1 8 15 17 18 24 28 36
9 6 45 42 5 5 4 5 6 7 8 7 10 11 12 6 5 10 8 9 13 13 9 8 5 4 7 7 11 10 17 12 12 2 18 3 7 5 8 8 13 20 24 28 35
7 4 10 17 7 7 6 4 6 7 6 9 6 12 7 7 10 4 6 4 19 9 19 15 4 7 6 4 5 10 21 20 12 7 14 15 20 2 7 10 9 17 27 33 38
6 3 7 8 6 9 13 9 6 7 9 9 4 17 9 7 9 9 12 5 5 14 12 9 5 10 17 23 17 15 19 22 15 12 9 7 8 4 9 12 14 24 27 29 32
5 5 7 6 13 8 11 9 9 5 7 5 9 13 14 7 7 2 7 6 4 12 11 6 4 3 13 21 18 14 17 21 18 15 16 22 6 4 5 14 14 24 28 28 31
10 12 14 10 8 7 5 8 10 8 10 15 15 12 11 20 20 23 16 7 9 11 12 5 3 3 5 9 11 8 14 21 15 16 21 9 4 3 4 7 9 22 28 31 36

GFSSW_850_spd_027.txt.gz
Wind_Speed
16 15 13 12 11 10 11 10 9 9 9 9 12 13 14 15 14 16 16 12 10 13 9 9 10 10 7 7 10 5 1 7 9 7 6 1 1 4 9 6 3 2 0 4 5
17 17 14 11 11 11 10 9 8 7 9 9 10 10 14 13 12 21 17 16 11 12 11 8 7 7 4 3 6 6 5 8 4 5 5 1 6 8 7 10 3 4 5 2 12
18 18 17 13 11 10 9 8 7 6 8 8 9 10 10 11 11 18 20 19 20 14 13 9 8 4 4 5 6 4 12 9 4 11 15 5 7 12 5 6 10 6 8 8 12
19 19 18 14 12 11 9 7 6 5 6 6 6 9 12 12 6 0 3 9 21 23 17 12 6 3 3 4 6 5 4 10 5 11 7 4 4 5 9 10 16 14 7 7 10
19 20 18 16 14 12 10 8 6 5 5 5 5 8 11 9 15 7 7 5 7 18 21 16 8 3 4 3 6 4 3 11 16 20 20 22 18 12 19 26 27 23 22 17 15
21 21 18 16 16 14 11 9 8 6 5 4 5 8 10 5 9 17 11 6 4 10 15 16 7 8 6 4 4 4 8 10 9 14 17 13 16 12 10 15 21 22 24 24 21
22 21 18 16 16 15 13 10 8 7 6 5 5 8 11 19 8 13 22 12 8 5 6 10 17 7 3 3 7 6 6 6 6 7 6 6 20 22 23 26 25 27 27 24 25
26 20 22 18 16 16 14 11 9 7 6 5 5 7 8 4 11 15 12 15 16 12 10 7 4 8 5 9 5 3 2 2 2 10 8 9 23 1 19 30 29 28 28 28 28
26 23 23 19 16 15 13 13 10 7 7 6 5 7 9 6 9 14 19 13 10 11 14 10 8 6 2 4 8 4 5 3 5 6 4 10 12 5 24 23 25 30 29 28 26
27 25 23 22 17 15 15 14 11 8 6 7 6 5 9 5 3 5 19 16 8 9 8 6 6 4 3 6 11 7 4 3 4 2 4 11 18 12 23 22 21 26 28 30 33
27 27 26 24 21 17 20 14 5 5 16 10 8 7 2 2 4 2 10 18 11 3 4 3 3 10 12 8 4 5 4 4 4 6 5 9 15 12 14 20 25 26 33 34 35
23 28 27 25 23 22 23 18 7 3 4 24 15 20 7 4 0 5 10 12 7 6 4 2 13 8 7 7 10 8 12 16 6 7 6 10 21 17 15 19 22 23 29 35 39
19 31 29 26 24 26 26 25 11 4 2 6 20 20 20 17 9 9 13 12 4 6 7 12 4 12 6 8 9 11 16 16 16 11 10 11 24 18 14 25 27 30 32 36 37
21 31 31 26 29 30 27 21 18 5 2 4 5 5 9 10 6 23 21 11 6 11 9 10 13 14 8 11 11 16 8 11 10 5 7 3 9 7 5 15 19 26 31 34 36
21 19 31 37 23 34 29 21 14 6 2 3 5 4 5 10 2 2 21 19 12 9 6 6 4 10 17 13 10 7 5 8 7 5 6 14 6 6 8 16 15 8 26 34 39
24 23 31 41 30 29 21 24 18 4 7 6 5 6 5 6 2 3 8 15 3 9 12 9 5 5 8 16 10 2 5 7 3 3 10 9 10 11 10 13 8 9 26 29 34
21 26 21 46 36 26 33 34 4 4 1 6 5 6 8 6 4 7 6 7 6 6 8 4 12 2 4 8 8 13 6 3 5 6 8 6 10 23 9 6 5 10 21 29 35
16 23 27 38 33 31 44 4 4 5 5 4 4 6 5 7 6 8 4 7 13 7 2 7 6 16 7 10 7 16 13 4 6 5 4 11 11 13 14 24 36 39 32 25 30
15 16 28 36 32 43 30 3 8 7 7 11 6 5 7 8 4 7 9 9 7 15 8 4 6 4 8 10 11 6 11 17 5 3 3 5 8 8 13 13 10 15 21 27 30
13 17 20 46 36 43 7 6 4 4 8 9 7 9 6 7 9 9 7 4 6 13 12 3 4 6 6 13 10 9 6 4 5 5 6 9 8 11 5 17 23 12 13 23 29
13 6 17 40 44 27 6 5 4 8 11 6 6 6 7 5 8 5 4 5 8 5 17 7 5 2 7 12 14 9 7 5 2 4 4 5 8 9 15 18 17 10 16 28 34
11 2 38 53 9 4 4 6 5 7 4 3 2 9 9 11 7 9 9 7 14 9 10 12 4 6 17 4 15 16 17 16 7 7 9 8 16 5 8 12 9 8 20 24 27
4 7 43 48 5 4 5 4 4 5 7 7 9 9 11 6 5 7 5 9 16 12 10 10 4 4 2 7 10 8 10 16 17 7 10 6 13 8 10 11 5 15 21 27 30
12 3 10 17 6 11 6 8 7 4 3 6 5 10 8 6 10 3 5 5 16 14 12 14 5 8 7 5 3 6 13 18 20 12 14 19 26 22 21 13 5 12 22 28 33
9 4 8 6 5 7 10 8 8 6 7 13 5 11 7 5 8 9 7 11 2 11 9 8 6 10 17 22 16 8 9 20 20 18 15 13 15 22 17 18 7 11 25 29 32
1 4 6 10 17 9 14 10 12 8 8 5 8 9 14 7 7 7 8 5 4 7 9 6 4 2 11 18 23 16 15 18 23 21 21 14 18 19 16 14 12 19 25 26 28
4 2 8 12 9 9 6 8 12 9 13 14 11 11 10 16 20 25 12 10 11 7 10 4 3 3 8 7 8 5 17 16 19 17 13 11 16 15 12 8 14 21 26 31 34

GFSSW_850_spd_030.txt.gz
Wind_Speed
17 19 16 16 14 11 11 12 11 10 10 10 8 10 14 15 16 17 16 11 6 11 5 6 7 7 4 4 7 4 1 5 5 7 5 1 1 2 6 5 6 3 4 3 4
21 17 18 17 15 12 11 11 10 9 9 9 8 9 12 12 20 23 18 13 6 7 7 6 5 3 3 3 6 5 4 6 5 6 3 2 4 6 5 11 6 5 5 7 9
21 19 17 18 17 14 12 9 8 7 7 7 7 9 10 11 12 15 22 22 18 14 13 9 5 2 3 3 5 4 7 3 4 7 8 5 7 7 3 4 14 5 11 3 12
22 20 19 18 18 14 12 9 7 6 5 6 6 10 10 10 6 2 6 8 18 18 14 10 5 3 3 4 7 3 6 6 6 11 7 3 4 7 9 12 9 12 12 13 9
22 22 20 18 18 15 13 10 8 6 4 5 6 7 9 9 12 4 4 4 8 20 18 11 7 4 4 3 2 4 3 7 7 11 16 18 15 13 18 25 27 27 23 19 18
22 23 22 18 18 16 14 12 9 7 5 5 6 6 8 4 9 16 8 5 6 13 20 17 6 7 3 3 3 2 5 8 8 10 11 10 17 14 19 17 24 22 22 22 21
24 22 24 22 17 16 14 12 10 7 6 6 6 8 11 17 8 6 16 8 7 8 9 12 13 5 1 2 6 5 5 6 7 10 7 9 15 17 28 31 32 36 34 30 26
20 24 26 24 19 16 13 13 8 8 6 6 6 6 8 6 12 14 12 16 12 9 7 4 2 8 3 6 3 3 1 3 4 6 8 11 19 8 16 29 30 37 36 32 32
21 16 24 24 21 16 11 12 12 10 7 6 6 6 8 6 9 10 17 11 19 13 11 5 5 4 3 1 4 4 8 5 6 3 4 10 5 2 7 12 19 24 30 30 31
26 25 25 25 23 20 12 14 12 9 7 6 9 5 8 2 2 3 12 12 8 9 6 7 6 3 4 5 6 4 7 10 8 3 5 9 15 14 20 24 23 26 30 29 29
24 28 24 26 25 23 22 18 8 4 15 10 6 7 1 2 4 3 6 16 10 6 5 3 3 7 10 8 10 4 3 9 4 7 7 12 17 18 19 21 21 26 28 31 34
23 26 20 27 25 29 28 22 15 5 3 24 12 14 5 6 2 4 7 10 6 4 4 0 10 8 5 4 5 8 13 19 13 12 10 13 24 19 17 22 27 25 31 29 36
24 23 24 30 26 35 32 26 19 10 1 5 20 21 12 12 4 7 12 8 4 5 7 7 3 7 9 6 5 6 11 8 14 9 12 12 25 17 18 26 36 35 36 38 34
25 23 23 26 26 38 34 28 17 10 4 4 4 5 12 13 6 20 17 9 2 9 5 8 10 10 5 5 8 13 7 14 13 6 7 3 10 5 4 10 11 22 26 32 38
26 24 27 16 13 42 33 31 20 9 1 3 5 6 9 15 2 2 20 13 7 6 5 5 4 7 14 12 7 4 6 8 10 8 6 8 6 5 5 8 9 9 24 30 34
26 24 21 22 23 40 33 29 21 5 6 6 5 6 6 6 1 4 9 10 2 8 12 11 4 3 6 7 14 3 4 4 3 4 11 11 9 13 7 9 8 10 24 29 31
19 19 20 23 27 40 35 34 4 4 1 6 5 5 6 6 4 4 6 8 5 5 7 4 12 6 4 4 7 9 3 3 5 6 7 6 11 22 6 9 8 10 22 23 25
7 10 18 32 25 40 46 4 4 5 5 7 6 8 6 7 4 4 4 7 10 6 1 2 5 12 12 16 7 17 10 5 5 5 4 5 8 9 9 17 28 29 32 28 20
5 4 13 17 40 41 31 3 7 7 7 8 11 6 6 6 3 7 9 5 7 15 6 4 6 2 5 6 9 5 11 14 5 3 3 5 8 11 9 10 12 11 24 29 28
9 3 9 20 41 43 10 5 3 4 7 5 5 5 6 7 7 7 6 4 6 12 11 1 6 3 3 3 11 8 1 4 6 5 5 6 7 12 9 17 14 11 13 27 25
9 5 4 17 38 23 5 3 3 5 9 4 4 5 4 5 9 5 4 4 6 5 14 6 4 1 5 9 11 8 9 6 3 4 4 4 6 6 11 7 9 16 21 27 28
7 3 14 34 7 3 5 6 5 5 3 2 3 4 6 8 6 8 8 6 9 11 10 9 3 6 15 10 16 18 13 17 7 6 4 3 17 6 5 6 7 13 22 19 23
9 2 34 45 4 3 3 3 4 4 4 3 3 3 6 6 5 8 3 7 13 9 11 9 5 4 4 3 8 10 18 20 19 8 14 4 13 8 12 10 8 7 5 6 16
4 2 6 13 2 11 7 5 4 2 4 4 2 4 5 6 9 3 5 5 19 14 12 16 5 7 12 10 3 6 16 18 17 10 14 16 23 19 15 16 7 5 7 12 17
3 2 4 5 3 8 6 8 9 5 2 9 5 12 7 5 6 7 8 4 4 12 8 7 7 11 21 23 18 12 12 20 19 23 12 11 18 25 18 11 6 13 14 17 20
2 3 9 11 15 9 5 7 11 7 8 5 8 7 11 6 7 8 5 4 5 4 8 5 5 3 17 19 18 24 23 18 21 21 21 20 22 13 10 18 16 12 19 18 22
7 2 7 14 9 8 7 7 11 8 10 12 12 10 10 15 22 22 4 8 4 2 5 3 3 3 9 6 12 5 10 18 13 11 17 15 23 10 13 14 12 14 20 21 23

GFSSW_850_spd_033.txt.gz
Wind_Speed
21 20 19 18 18 15 13 11 11 10 10 9 7 6 7 12 14 16 15 9 7 11 6 5 5 4 3 5 6 6 2 6 7 8 5 0 3 4 4 4 5 3 5 4 3
21 21 21 17 18 17 14 12 12 10 8 7 6 6 7 9 13 19 14 12 8 10 8 6 4 3 4 5 6 4 3 8 6 6 3 2 1 5 4 7 5 11 4 8 10
21 21 20 19 16 17 15 12 11 9 7 6 6 8 9 8 9 9 12 14 14 10 9 6 4 4 4 5 5 4 5 3 2 2 4 3 5 4 4 5 13 11 11 4 6
18 20 21 20 14 15 16 12 11 8 7 5 6 7 7 6 6 5 8 12 20 21 14 9 6 5 3 3 4 2 7 6 6 10 8 4 4 6 9 17 14 12 10 11 11
16 20 20 19 18 14 16 13 11 8 6 5 6 6 8 7 9 4 3 4 6 20 17 11 7 5 4 2 2 3 3 6 8 8 10 13 16 14 21 28 24 22 24 24 21
20 18 22 21 20 16 12 15 12 9 7 6 6 6 7 3 10 14 6 3 6 14 18 15 6 6 3 2 3 2 3 8 10 12 13 12 20 13 18 23 29 31 30 30 27
20 19 19 22 20 19 14 14 12 10 8 7 6 7 8 9 6 7 16 6 6 12 13 15 8 8 5 1 2 3 4 6 9 11 8 9 15 16 27 27 29 31 31 30 31
21 23 17 23 20 21 18 13 10 9 8 7 6 6 6 4 8 12 15 11 8 9 9 8 8 7 4 1 2 3 2 3 3 2 8 13 15 9 14 15 26 31 35 37 40
23 21 22 18 23 21 20 13 12 11 7 6 7 5 6 3 6 7 12 17 12 10 6 5 6 4 5 2 2 4 4 6 5 2 4 10 6 2 5 8 11 14 22 29 34
25 19 21 23 22 22 22 16 15 13 9 7 7 5 6 3 5 5 13 10 11 9 7 7 4 4 4 5 6 4 4 4 6 1 4 14 19 16 22 22 23 19 25 28 28
24 19 20 22 23 21 29 24 13 4 15 11 5 1 3 5 7 5 13 15 10 10 5 4 4 9 13 7 4 1 3 10 7 6 11 16 22 19 24 25 24 27 29 29 35
23 20 18 20 21 23 38 26 30 8 5 26 11 12 3 6 5 6 13 10 7 4 5 2 9 8 3 4 6 9 14 16 15 14 11 17 27 18 18 24 29 31 31 32 39
25 22 20 20 18 30 43 34 24 16 4 4 20 18 13 8 2 10 18 8 4 5 7 6 3 5 9 4 6 7 11 10 13 10 13 17 25 17 15 23 29 34 36 35 36
26 27 22 19 21 26 41 32 21 16 4 4 5 6 17 9 4 15 18 9 3 10 5 5 6 4 4 4 9 13 8 12 12 7 6 3 11 9 6 12 11 18 25 32 37
36 34 24 17 14 20 32 36 21 13 2 3 4 7 11 13 8 4 20 8 7 6 5 4 4 4 11 13 9 6 5 8 8 8 11 13 7 8 2 5 8 11 25 28 32
31 21 19 19 21 18 38 37 24 4 6 6 5 6 8 8 6 5 8 7 4 3 5 6 3 5 7 7 13 2 3 6 4 7 9 11 11 19 7 7 5 11 20 23 26
24 14 15 19 21 23 45 33 4 4 2 8 5 7 8 6 5 6 7 9 5 3 5 5 16 8 5 3 4 11 4 2 4 6 8 5 11 21 8 18 16 12 21 25 22
22 5 11 16 19 28 43 5 4 5 4 5 6 9 5 6 4 5 6 7 11 3 1 4 5 11 10 15 5 13 11 5 6 5 5 2 9 10 13 19 23 20 20 25 28
12 4 10 15 18 39 26 3 6 6 8 10 11 6 4 5 3 6 7 5 7 13 6 5 5 1 4 4 10 5 10 8 8 13 10 8 13 11 14 11 9 10 16 22 27
10 3 3 11 18 24 5 4 2 4 14 9 5 5 8 9 7 8 7 3 4 10 6 1 4 4 2 4 10 8 2 4 5 5 9 5 7 11 7 10 10 4 9 20 28
4 2 5 14 25 9 2 3 3 6 12 4 4 5 5 6 7 5 3 3 5 4 13 4 3 1 4 10 11 8 8 7 3 5 6 9 10 7 10 10 6 4 12 21 27
5 1 6 32 4 2 4 5 5 3 7 4 4 5 4 6 6 6 7 4 8 10 9 8 3 5 12 9 15 16 12 17 8 10 6 5 20 3 6 5 3 9 16 21 24
4 4 15 27 3 2 2 4 4 3 2 2 3 3 3 6 4 7 3 4 15 8 9 7 4 4 8 2 3 10 19 20 17 9 16 5 11 2 5 4 5 10 17 19 15
3 2 4 11 1 4 5 3 4 4 3 4 4 4 3 4 6 2 4 3 16 11 10 14 5 7 10 14 1 7 18 19 20 10 15 19 28 20 14 13 14 17 20 14 8
2 2 6 4 4 3 4 3 5 4 3 4 2 6 5 3 5 7 7 3 5 11 7 8 6 11 22 24 24 26 27 21 22 28 14 16 19 27 16 16 9 11 14 10 11
2 2 3 7 12 8 4 6 8 4 6 3 3 6 8 7 6 6 6 5 5 4 7 4 4 4 20 22 22 21 25 21 20 23 19 19 22 20 17 13 7 15 16 10 12
15 7 5 13 7 6 6 7 6 4 7 7 8 5 8 12 16 19 7 2 3 4 9 4 3 3 11 11 20 6 8 7 7 13 15 14 17 8 11 7 11 21 15 14 14

GFSSW_850_spd_036.txt.gz
Wind_Speed
17 19 17 19 17 14 16 14 13 11 11 9 8 8 5 10 15 17 17 12 12 15 6 8 7 6 7 8 6 6 7 12 19 15 10 5 9 12 5 8 4 5 4 2 3
20 17 19 18 20 15 15 15 14 11 10 9 8 7 6 9 16 20 18 12 10 10 12 8 7 6 7 8 7 11 10 15 7 11 7 6 9 4 6 12 13 9 5 3 6
16 17 17 19 19 18 15 13 13 11 9 8 8 7 8 8 8 11 12 16 17 12 9 9 8 5 6 7 9 10 13 9 6 8 4 9 11 10 12 14 15 14 9 3 1
19 16 18 19 19 20 14 12 12 11 8 7 7 6 7 9 6 8 14 17 16 16 10 8 7 7 6 8 8 8 12 12 9 11 7 10 10 15 18 24 12 9 9 10 9
20 19 14 18 19 19 19 12 11 12 9 7 6 6 8 7 9 7 6 6 11 18 16 11 11 8 9 5 6 9 9 10 12 12 14 16 22 23 24 23 22 21 19 19 18
22 21 15 18 20 18 21 14 9 11 10 8 6 6 8 10 10 12 6 4 6 14 18 13 9 8 3 5 8 2 7 10 11 16 16 17 24 23 23 23 29 31 31 29 27
22 21 20 17 12 20 21 16 10 11 11 9 6 7 8 10 6 10 11 6 7 13 16 15 11 8 7 4 5 7 11 13 16 15 14 12 21 21 27 29 32 30 29 29 31
23 20 18 21 15 19 19 21 13 12 11 8 7 6 6 6 12 9 14 9 8 11 11 15 13 8 5 2 4 5 6 6 3 1 5 9 16 6 12 17 20 25 29 31 31
23 22 18 18 18 16 20 24 17 14 11 8 6 5 4 5 9 10 14 13 14 14 10 11 10 5 5 6 6 8 8 9 10 4 4 10 12 3 3 11 15 16 17 20 24
24 22 19 17 17 21 21 25 20 18 14 8 5 4 7 5 7 12 16 16 11 14 10 6 4 5 8 8 6 5 12 9 11 2 9 17 22 20 25 26 26 24 24 25 25
21 21 19 15 15 15 26 32 21 8 17 9 8 1 6 9 9 9 19 13 14 14 9 8 7 11 14 14 12 5 7 11 10 9 17 19 22 21 26 30 31 32 32 34 33
21 22 19 17 17 16 22 12 32 12 8 18 10 10 6 9 6 9 17 10 14 12 10 6 12 12 8 11 13 14 16 17 15 13 14 19 32 24 25 32 35 33 35 36 37
25 22 22 21 20 20 16 31 29 19 5 9 17 11 10 8 5 14 18 8 11 12 15 8 3 3 14 11 13 16 16 15 17 16 18 21 27 15 8 16 22 29 36 36 36
32 24 32 25 21 15 20 34 27 18 3 9 9 10 13 8 5 11 18 7 5 12 9 9 12 7 9 12 13 14 8 12 13 8 6 3 12 18 16 15 14 18 21 24 25
35 33 22 19 19 11 15 24 31 16 7 11 7 9 14 14 12 7 15 5 8 8 6 4 6 10 14 15 10 7 5 7 8 11 14 15 7 14 5 13 12 16 22 19 19
34 31 21 13 22 21 10 30 21 5 6 8 8 11 13 16 8 8 11 3 5 6 6 10 3 5 10 9 13 2 6 9 10 6 8 17 16 20 14 12 10 9 10 12 13
38 29 12 13 21 21 16 30 3 4 8 9 9 11 14 12 10 9 10 10 6 5 8 8 17 8 8 7 8 10 3 3 4 6 8 2 10 22 10 5 13 20 25 18 18
41 12 6 15 11 16 22 6 4 6 7 7 13 15 7 15 6 9 12 10 13 7 2 5 4 14 11 15 5 15 9 5 6 6 8 4 11 10 11 11 19 22 16 14 16
30 4 4 13 17 23 16 4 4 7 11 13 13 8 5 11 5 7 9 7 10 14 6 5 4 2 9 4 11 5 9 12 14 20 15 11 22 24 25 22 20 24 22 13 12
17 2 1 10 17 20 6 3 0 5 19 16 7 6 9 13 8 11 11 5 10 14 15 2 4 5 3 5 12 12 3 4 6 6 10 13 20 14 14 9 7 9 10 10 15
4 1 8 16 24 16 1 3 5 16 14 3 7 8 7 11 11 9 6 2 8 8 16 6 4 3 3 11 13 10 8 7 8 9 6 14 9 2 10 10 15 4 5 11 15
8 1 14 26 4 2 2 3 8 10 3 5 6 9 13 11 9 8 7 4 7 12 10 11 4 8 15 11 13 15 15 19 9 13 11 16 23 7 12 9 4 4 11 11 16
1 2 17 11 3 3 1 3 3 4 3 3 4 4 4 8 5 7 3 2 12 11 10 11 5 4 4 3 5 8 16 23 21 16 21 10 14 6 6 6 6 11 17 19 16
1 2 6 5 2 8 4 4 3 6 3 7 11 10 8 4 2 4 6 3 10 15 8 13 4 8 10 14 3 9 16 19 18 13 22 25 32 22 11 19 22 27 24 17 13
5 3 4 4 1 6 4 4 10 4 3 4 4 5 5 4 4 4 7 5 5 9 9 7 5 13 20 23 24 25 27 27 20 26 19 32 19 23 18 18 19 18 15 15 9
7 2 3 3 5 7 4 7 6 4 3 3 3 6 5 4 5 3 6 7 6 8 10 7 4 3 15 23 22 23 23 22 20 18 20 26 26 24 23 20 17 21 18 13 7
16 9 2 8 8 8 7 7 8 7 3 3 6 5 5 7 11 10 8 4 3 5 12 5 2 2 6 12 22 7 6 12 15 8 7 10 15 10 12 11 9 13 12 12 5

GFSSW_850_spd_039.txt.gz
Wind_Speed
15 17 18 18 19 20 18 16 14 14 14 13 12 12 10 7 11 17 20 11 13 13 5 6 8 10 10 11 12 12 14 16 21 22 15 6 7 15 10 12 8 11 13 3 3
19 16 16 18 19 18 22 16 15 13 14 13 12 10 8 8 12 19 18 18 14 10 13 9 11 12 15 15 10 12 14 20 16 15 16 13 13 13 10 18 19 13 11 2 2
21 21 19 16 19 19 21 16 15 13 12 12 10 9 9 9 11 15 21 17 14 13 10 12 9 13 17 13 17 15 20 14 11 10 10 13 13 16 12 15 18 21 16 10 5
22 22 20 17 18 20 18 19 14 12 11 11 9 8 10 9 6 6 16 20 20 15 13 12 13 14 13 12 16 15 18 23 12 8 11 12 17 19 22 21 17 14 10 6 9
23 22 22 20 17 17 18 24 15 13 11 11 10 8 9 9 11 6 7 11 13 18 18 17 16 16 13 13 9 13 16 13 16 17 17 17 20 20 22 21 21 23 19 19 18
22 23 20 20 21 18 17 20 17 14 12 11 10 8 8 13 11 9 6 3 10 17 20 16 8 11 8 9 11 2 12 16 17 18 19 19 22 23 20 26 29 29 28 27 26
25 24 22 20 21 21 15 20 23 16 12 12 10 9 11 10 4 10 10 5 7 13 18 14 10 8 5 5 11 9 13 15 20 22 15 12 19 24 33 30 32 29 28 30 32
25 26 24 22 19 21 16 23 26 17 14 13 11 8 7 14 9 9 10 5 6 9 10 12 11 5 3 2 5 8 11 13 3 6 10 11 16 7 9 22 24 29 30 32 31
27 27 23 22 19 17 20 19 25 21 16 14 9 7 5 6 8 10 11 10 10 9 9 10 12 4 4 8 10 12 9 14 10 7 7 13 12 8 3 11 17 18 21 23 27
25 21 17 18 18 17 20 20 17 23 19 12 6 5 9 7 9 10 13 12 12 14 12 9 8 8 10 11 9 12 15 13 11 5 8 15 21 20 25 25 24 24 23 24 26
25 20 16 19 19 15 15 14 15 13 26 8 13 3 13 10 10 11 15 17 12 14 7 11 8 13 16 15 16 9 9 12 10 7 15 20 23 20 22 26 27 28 29 31 32
25 23 20 21 18 19 17 11 12 3 9 10 12 9 10 12 8 13 17 15 15 13 9 5 14 15 10 9 12 13 14 15 14 13 12 17 29 24 25 28 30 31 34 36 35
22 26 26 21 24 22 19 20 20 6 4 17 16 14 10 11 9 19 22 15 15 16 16 11 1 4 12 10 11 13 14 13 14 16 18 22 26 19 15 19 27 31 33 36 37
23 28 21 25 27 21 19 16 20 20 3 10 10 9 12 10 6 16 21 11 6 14 12 12 8 4 8 12 11 11 9 10 11 9 6 5 11 16 16 17 15 18 20 22 24
26 32 29 19 16 12 7 17 21 13 6 15 11 9 19 13 19 14 18 7 10 8 8 4 6 12 12 12 8 6 3 5 8 10 14 15 9 13 9 11 13 15 18 18 18
28 32 36 20 16 16 8 17 20 3 4 7 8 14 18 17 9 15 17 5 5 7 11 11 3 5 6 4 8 4 3 6 7 6 8 16 16 19 8 9 6 6 6 7 7
33 37 22 11 9 20 17 26 5 6 11 9 9 14 17 15 11 13 13 10 8 6 9 10 16 7 9 6 5 8 1 2 4 5 8 2 10 17 16 10 7 8 14 19 12
34 29 6 7 7 16 10 5 8 8 8 8 15 18 10 17 9 14 15 11 13 12 3 7 6 17 11 12 5 12 8 4 5 7 11 5 10 8 10 5 6 14 22 21 15
37 5 1 10 11 17 11 4 1 13 11 13 17 6 7 17 7 10 13 11 11 13 6 5 3 1 9 7 10 6 8 10 11 16 11 9 20 24 21 21 14 19 20 24 22
23 4 2 12 19 18 2 1 2 7 15 17 6 7 9 15 9 11 13 10 8 15 11 2 2 5 7 6 10 12 0 2 4 5 10 10 19 14 13 12 7 13 12 12 9
13 3 4 15 20 5 2 2 6 19 14 4 9 10 11 15 10 14 14 4 14 11 13 5 3 5 5 11 13 11 9 7 8 7 6 12 9 10 10 12 13 14 16 3 10
2 2 10 19 3 1 1 3 17 12 2 2 7 7 16 17 10 10 8 1 7 8 10 9 2 5 12 8 8 14 14 17 7 8 8 11 21 12 13 13 9 13 6 11 12
4 4 9 2 3 1 2 7 8 5 1 3 5 2 7 14 6 7 4 6 9 11 9 10 5 3 2 1 8 10 15 18 17 16 20 15 16 3 7 9 7 13 20 19 22
3 2 3 2 1 4 4 6 6 4 7 9 9 12 11 12 5 7 5 4 8 10 6 5 5 8 8 10 9 6 15 16 13 8 20 23 34 26 23 16 15 20 27 33 28
4 3 2 2 3 5 5 5 5 4 3 4 4 5 5 4 5 4 5 6 7 7 6 5 7 13 18 20 19 17 21 22 19 21 15 30 26 28 21 18 12 24 26 26 18
6 3 2 3 6 7 2 9 9 2 2 3 5 6 3 3 2 5 7 5 4 7 8 4 3 2 14 18 14 16 20 18 18 18 15 18 21 19 13 16 12 18 19 18 7
14 7 5 2 6 5 6 10 8 6 4 6 6 5 1 2 1 2 3 2 3 8 11 5 2 2 5 10 19 9 4 9 12 12 7 8 8 11 10 10 11 16 15 11 10

GFSSW_850_spd_042.txt.gz
Wind_Speed
19 19 19 19 17 18 19 20 19 17 16 14 14 14 11 10 12 13 20 18 19 16 6 5 9 10 11 14 17 16 6 10 15 14 13 20 3 5 6 12 15 5 13 7 10
22 22 21 17 16 17 17 18 21 17 16 14 13 12 10 9 11 16 20 19 12 17 15 10 11 13 16 15 12 7 8 11 10 12 10 16 5 8 7 13 15 13 10 3 6
24 23 22 21 21 18 17 18 21 20 15 15 11 9 8 6 8 14 19 18 22 18 13 12 11 14 15 16 19 10 13 10 16 22 7 13 16 4 8 6 11 17 16 15 8
24 25 23 23 21 19 21 18 18 22 14 14 10 7 9 10 5 6 10 20 19 16 14 14 13 11 8 13 18 16 15 20 22 18 5 7 12 14 14 17 17 21 12 3 13
24 25 23 23 21 20 21 17 16 22 16 13 9 7 10 10 10 6 6 17 21 19 19 15 17 15 10 10 14 12 16 17 16 16 12 12 13 13 22 19 22 25 23 12 10
25 26 25 26 22 21 20 18 17 20 18 13 11 9 13 12 7 4 4 6 13 15 21 20 12 13 5 11 11 7 10 16 22 12 14 14 15 20 15 23 29 27 25 22 20
27 26 27 28 24 21 18 21 17 17 21 15 13 12 10 15 5 9 9 5 9 16 20 18 8 5 2 3 10 5 7 11 15 15 10 9 15 17 31 32 30 28 29 31 30
27 27 27 26 21 20 20 19 16 9 20 15 14 11 8 11 11 7 12 7 6 11 10 14 10 5 3 3 1 4 9 7 9 19 19 17 14 11 19 29 32 32 30 31 30
27 25 25 22 18 20 19 19 23 28 19 17 16 12 6 9 18 12 13 11 10 8 7 9 8 3 3 2 4 9 6 12 10 6 5 7 6 10 10 8 12 20 28 29 31
27 24 23 21 19 17 17 20 20 21 21 17 8 9 11 10 13 15 15 12 14 14 10 8 5 4 4 6 6 8 13 11 9 6 4 8 14 13 23 24 21 20 21 21 22
24 23 25 22 19 19 18 17 7 6 34 9 17 2 21 18 16 16 18 16 15 16 5 11 5 8 11 13 14 13 9 9 10 8 7 9 16 15 19 23 25 27 27 30 33
24 22 22 24 22 19 15 8 10 4 8 21 10 10 17 22 13 17 21 13 11 10 6 3 7 8 9 6 7 8 9 10 9 10 8 11 19 17 20 23 28 30 29 30 31
24 22 24 28 18 20 16 17 11 14 6 13 17 16 20 13 10 23 25 15 13 10 10 7 2 11 11 7 5 8 7 8 10 11 11 14 18 12 11 26 33 35 36 33 31
24 21 23 26 18 10 18 9 13 12 3 11 12 13 12 11 8 20 22 10 8 13 12 8 10 4 5 9 6 7 3 6 6 6 4 8 7 6 9 8 8 19 24 25 28
22 22 26 23 29 19 3 14 8 5 2 13 9 13 16 11 22 14 22 2 10 7 6 1 2 4 5 7 7 5 5 4 5 6 7 5 4 6 3 6 6 7 11 18 18
22 23 28 33 17 11 5 17 16 2 5 5 7 13 13 18 4 18 11 4 4 3 4 4 5 1 5 5 5 6 3 4 4 1 4 11 9 5 3 1 1 5 7 27 15
27 32 34 16 9 10 18 19 5 5 4 8 9 13 15 14 9 15 9 7 4 4 2 4 9 3 4 5 4 6 3 2 2 3 6 3 8 11 14 13 11 6 3 8 12
32 19 7 3 8 19 28 3 4 7 2 7 15 16 9 14 8 12 11 8 8 7 5 7 4 16 9 7 4 9 5 3 5 2 4 6 7 6 11 15 6 5 10 15 18
24 13 5 7 13 16 12 3 1 6 9 10 18 9 7 11 8 10 11 9 10 9 4 6 2 2 11 5 8 5 5 2 4 5 2 5 6 9 19 14 9 7 8 11 19
18 9 7 8 14 17 1 2 3 4 14 17 5 6 7 15 6 9 11 11 9 14 10 3 2 4 7 6 9 7 4 2 1 2 5 5 8 6 6 7 8 9 12 24 9
5 6 4 12 15 5 2 3 1 14 21 1 8 6 11 15 8 8 10 5 12 13 12 4 1 3 5 7 8 7 5 3 3 4 3 5 4 5 3 2 7 8 13 10 7
4 3 7 10 2 0 1 3 21 5 3 2 5 10 11 14 7 7 11 2 11 9 10 8 3 3 10 7 12 7 7 9 4 5 5 3 11 21 6 6 7 15 15 16 9
5 5 11 3 1 1 3 1 4 2 2 2 4 6 16 11 7 4 7 6 4 3 10 7 4 2 3 1 4 4 7 10 12 6 12 8 9 3 9 20 18 9 21 21 23
4 2 1 4 6 3 3 5 4 9 10 8 7 9 14 6 9 7 6 2 5 4 7 10 4 4 2 1 2 3 6 10 7 5 11 20 30 27 23 24 22 21 25 34 31
4 2 1 1 3 2 2 6 4 4 4 3 3 9 12 5 7 6 9 7 5 4 4 1 2 6 9 12 11 10 12 13 13 16 12 23 24 26 22 22 22 19 17 21 24
4 4 6 2 0 7 2 3 5 5 4 3 8 7 6 6 4 7 6 4 4 6 5 2 2 3 5 11 14 15 15 13 15 17 18 18 21 15 22 16 13 20 19 19 19
6 4 3 4 1 1 1 6 5 5 8 10 8 6 6 7 6 6 5 6 4 6 8 5 3 2 4 7 11 7 7 10 7 10 9 9 15 15 15 11 10 10 17 17 16

GFSSW_850_spd_045.txt.gz
Wind_Speed
22 21 21 19 19 20 16 16 15 19 17 15 14 13 12 11 13 15 21 20 26 13 6 7 12 16 11 9 16 14 2 5 7 7 5 22 4 7 3 8 6 3 8 20 14
23 23 23 21 21 19 19 17 16 15 20 17 14 12 10 11 13 20 22 11 18 20 17 12 11 13 11 10 7 7 6 6 4 8 5 9 5 8 4 4 2 5 13 18 15
23 24 24 23 22 22 19 20 19 15 19 18 14 10 8 7 9 19 13 22 20 18 17 16 14 14 14 15 10 5 5 5 15 20 7 5 8 8 5 1 10 9 11 12 16
24 24 24 24 23 23 20 19 22 18 15 19 15 9 9 10 6 4 5 25 22 21 15 20 16 9 8 7 14 5 7 19 19 26 11 3 8 8 4 5 11 10 11 12 20
26 25 25 24 25 26 22 20 20 18 15 20 14 10 11 13 12 3 3 18 19 19 21 19 17 13 7 7 15 6 6 20 20 20 10 9 6 7 14 16 13 18 15 11 11
26 26 26 26 26 26 21 20 17 18 16 20 15 12 14 9 10 8 6 12 21 19 20 21 11 16 10 6 8 7 6 5 9 15 13 8 8 8 4 19 25 25 28 22 17
26 26 26 24 25 22 20 20 18 21 16 19 18 16 14 19 11 11 10 6 5 16 21 23 10 13 6 2 0 4 2 6 8 11 6 12 7 8 22 26 29 33 32 35 30
30 26 25 25 23 21 19 19 19 21 17 15 21 17 9 15 12 13 14 12 12 10 15 19 16 8 3 1 1 3 3 1 7 11 14 12 13 5 20 21 28 37 38 40 38
27 25 23 24 21 21 20 18 16 20 20 17 24 16 8 12 24 15 17 14 11 11 9 10 16 4 2 4 2 1 3 6 7 10 6 12 3 14 23 27 18 29 34 38 40
24 24 22 23 20 21 19 19 20 14 15 14 12 10 11 12 24 20 19 17 14 14 12 7 4 3 2 3 5 5 4 3 6 5 5 6 8 8 20 21 25 26 24 25 31
24 22 22 23 24 25 18 15 3 4 12 5 11 5 9 15 19 21 26 16 18 15 4 5 3 5 8 7 5 5 4 4 5 6 3 8 10 10 18 23 24 27 31 37 37
24 21 23 21 23 22 19 9 8 2 3 21 7 12 20 26 13 24 22 12 13 5 5 3 3 5 7 10 9 6 4 5 7 4 5 12 20 17 18 22 28 34 30 37 40
24 23 21 19 22 19 12 14 9 9 2 11 11 26 23 11 7 26 23 13 10 8 6 5 1 8 4 3 4 2 2 3 5 7 5 9 10 8 8 21 30 34 36 34 40
26 22 19 19 12 24 18 4 11 6 2 8 8 12 17 12 5 24 23 16 4 10 8 3 4 3 4 3 3 1 4 2 3 4 3 6 7 6 9 9 6 21 28 34 37
25 20 20 20 22 19 5 4 10 5 1 9 8 23 20 2 22 15 23 1 7 7 6 7 4 6 3 3 5 3 5 5 4 4 5 3 3 8 7 5 8 6 19 26 25
22 23 26 27 19 10 3 12 11 2 4 4 8 11 7 18 4 22 7 3 4 2 6 4 4 3 3 3 3 6 5 4 3 3 3 8 7 5 3 4 1 1 9 6 18
26 26 16 8 8 8 17 17 4 1 4 6 8 12 13 7 7 12 8 4 4 5 0 3 3 2 3 4 4 5 5 3 0 2 6 2 4 7 9 11 9 8 14 7 4
31 15 8 1 5 19 25 1 4 4 2 5 12 15 5 11 9 6 8 4 3 2 4 4 4 8 4 4 5 4 5 4 4 3 4 5 7 6 11 17 15 10 4 5 10
14 10 9 7 15 23 7 1 1 3 4 7 13 8 5 4 7 6 4 5 4 4 4 4 2 6 6 2 5 3 3 5 1 2 3 5 7 9 7 8 9 9 13 18 16
8 12 11 10 10 19 2 3 3 5 10 13 4 4 6 6 6 5 8 8 5 8 2 1 4 5 5 3 4 5 5 2 2 2 5 6 5 8 4 5 7 9 15 23 18
6 5 8 7 11 2 2 3 3 10 20 1 5 6 9 6 5 4 11 10 7 10 5 2 3 2 3 5 7 3 3 3 2 4 4 4 5 5 6 1 4 4 11 19 27
7 3 5 2 2 1 2 3 6 5 9 2 4 8 9 6 6 3 7 1 15 13 7 3 3 3 7 5 8 5 5 5 4 4 4 3 6 9 12 6 18 24 32 25 23
5 5 4 6 2 3 3 4 3 6 2 2 3 4 15 6 5 3 5 5 12 6 10 6 2 1 2 5 2 5 7 8 5 2 7 2 7 4 10 20 26 28 31 29 29
3 2 3 5 5 1 3 4 2 8 6 6 12 15 10 5 5 6 4 3 5 5 10 11 4 5 5 3 3 3 6 9 11 3 8 14 21 24 20 20 23 23 22 20 26
4 2 2 1 1 3 1 1 5 5 7 6 10 10 9 5 8 5 6 3 4 3 4 4 3 3 4 6 4 6 7 9 11 18 9 24 22 22 21 20 20 9 17 18 22
3 2 5 3 4 2 2 2 5 4 5 6 10 11 10 4 1 10 6 4 3 2 3 2 1 2 5 8 8 6 11 12 12 16 17 23 26 15 17 27 15 12 16 19 25
8 5 2 5 1 1 1 2 1 2 12 10 7 6 9 4 10 11 9 9 9 7 6 5 3 2 4 4 6 5 7 12 7 5 6 7 10 14 17 12 12 15 18 19 17

GFSSW_850_spd_048.txt.gz
Wind_Speed
22 21 21 21 20 20 19 19 17 16 13 19 17 14 13 13 14 16 23 19 26 15 13 13 18 16 14 8 11 10 3 4 5 8 5 6 4 9 9 6 5 4 13 9 20
23 22 22 23 20 21 20 18 21 19 17 13 19 15 13 12 14 23 23 18 19 22 17 15 15 18 11 10 8 6 5 8 5 5 3 6 3 8 6 4 1 8 11 17 21
22 24 22 22 24 25 21 21 17 20 19 15 18 16 13 8 10 23 16 21 22 28 20 12 11 15 8 7 8 6 5 8 5 11 7 6 9 6 3 4 2 5 18 20 23
26 24 24 22 23 23 24 23 22 19 18 16 13 17 12 10 7 2 5 19 25 27 24 20 18 6 7 6 10 3 10 10 5 19 6 4 7 3 8 7 4 4 9 8 16
27 26 21 24 25 24 25 24 19 19 15 17 14 18 14 12 17 2 2 22 25 23 26 26 20 12 6 8 11 3 3 7 13 18 8 11 8 8 12 18 17 16 10 10 10
33 29 28 22 24 23 22 20 19 18 17 16 21 21 19 10 11 6 5 26 25 23 25 24 12 19 8 5 8 4 13 14 12 10 6 6 8 13 4 14 24 27 23 18 14
24 26 25 23 22 22 20 19 19 20 15 19 12 24 22 25 7 10 10 15 21 22 23 26 11 13 6 3 10 3 5 2 5 5 4 6 15 8 18 27 29 34 33 31 28
25 23 21 21 21 21 20 18 18 16 17 27 28 20 10 22 12 15 14 13 9 19 20 23 20 6 5 3 3 5 4 1 4 3 8 9 20 3 14 22 29 32 35 35 35
24 21 22 19 20 20 20 21 19 13 16 20 15 17 6 14 26 21 17 16 14 14 17 16 18 4 5 6 3 1 3 5 6 8 6 9 3 9 30 28 22 29 32 32 31
22 21 20 20 20 20 24 19 15 14 12 7 11 7 7 15 28 21 19 15 15 18 13 6 5 3 2 4 7 6 4 3 5 4 2 7 9 10 13 13 23 24 27 34 30
22 22 20 19 18 18 27 20 4 1 7 5 11 5 3 15 20 25 22 17 16 11 4 6 3 6 5 5 3 3 2 2 4 4 5 7 6 12 16 17 20 28 32 38 39
23 23 20 18 17 18 18 3 3 2 4 17 9 20 10 21 16 23 26 10 9 5 6 3 2 5 10 6 6 1 3 4 6 1 3 7 15 14 14 16 26 34 37 35 40
26 22 20 16 15 12 20 10 5 5 2 3 17 17 15 14 7 22 24 11 8 7 4 5 1 7 5 6 6 4 3 2 4 5 1 7 9 6 6 12 20 32 36 34 39
24 20 16 17 13 10 16 3 8 2 2 3 8 8 9 11 4 21 19 13 4 9 7 3 1 4 4 2 4 2 1 3 3 4 4 5 6 5 8 12 7 15 18 25 28
26 21 22 17 18 18 11 2 11 4 4 9 6 22 12 1 21 13 9 3 5 8 5 4 5 3 3 3 4 3 4 4 2 3 4 3 2 8 5 7 6 6 9 14 18
25 24 24 19 10 12 4 11 9 2 3 5 7 10 8 8 4 16 4 5 6 5 5 2 3 3 4 4 4 7 5 6 4 3 2 4 4 6 3 4 2 4 15 20 10
27 16 12 8 3 6 11 11 3 1 2 3 8 14 12 5 5 7 6 3 4 5 3 2 2 1 3 6 3 5 6 2 4 2 6 3 3 9 9 12 4 8 15 15 11
18 11 10 5 4 11 21 1 3 4 2 5 12 14 6 7 11 7 6 4 3 5 4 4 2 5 2 4 5 4 6 4 4 3 4 3 5 6 4 8 5 12 17 24 26
14 15 19 13 11 15 1 2 1 4 4 9 15 8 4 5 6 5 2 5 3 3 5 4 1 3 4 3 6 3 2 4 3 4 3 4 6 9 3 5 9 14 23 26 30
12 15 16 12 9 10 2 5 3 4 7 7 5 1 4 4 5 3 7 4 3 6 2 5 4 2 2 4 1 4 6 3 3 1 4 4 4 5 5 4 2 7 14 23 31
7 6 7 9 6 2 2 3 3 8 8 2 3 4 6 5 6 3 9 1 7 4 4 1 4 1 4 4 6 3 2 1 3 4 3 4 5 6 4 4 4 7 18 27 34
7 3 1 5 3 1 2 6 7 7 8 4 4 7 4 4 4 3 7 3 14 8 6 1 4 3 6 2 4 4 6 6 3 3 2 3 7 6 5 3 8 23 26 29 32
4 2 2 4 2 2 3 3 4 7 8 3 3 3 5 5 5 5 4 6 16 8 7 4 1 2 2 5 3 3 5 4 4 2 6 2 6 3 6 14 30 22 26 25 15
1 2 3 3 2 1 4 3 2 5 4 5 5 14 5 3 3 4 3 4 4 5 12 7 3 4 5 4 3 3 5 7 6 3 3 8 15 19 19 18 20 26 27 18 23
4 2 3 2 3 2 3 6 6 6 8 11 7 4 5 3 4 4 3 3 6 4 4 4 4 1 4 6 3 4 5 7 9 18 6 15 13 22 19 19 19 16 15 18 24
3 3 6 3 1 4 3 4 6 4 4 3 5 4 7 3 2 5 6 3 3 1 3 1 2 2 5 5 7 6 9 10 13 15 14 23 25 21 26 17 9 13 16 20 23
5 4 2 5 2 0 2 2 5 3 11 9 7 6 9 3 10 7 8 11 7 6 3 4 3 2 4 3 3 5 11 15 6 6 8 9 11 6 11 7 7 13 15 18 24

GFSSW_850_spd_051.txt.gz
Wind_Speed
21 21 21 21 21 20 21 19 17 23 20 19 14 17 16 14 14 19 26 23 24 13 19 22 20 15 12 9 10 7 3 5 6 7 4 1 2 2 6 12 7 4 8 4 20
25 24 22 21 21 19 22 22 20 18 26 22 21 11 17 13 17 26 27 22 16 19 17 20 24 21 11 11 10 6 5 9 6 5 1 5 3 6 6 10 4 5 7 8 26
27 26 25 24 24 22 22 20 22 21 19 24 21 14 18 13 12 27 20 24 20 26 20 17 16 19 11 8 9 6 5 5 5 8 3 2 7 3 4 5 4 3 6 21 25
30 28 29 30 25 26 22 23 22 23 21 19 23 25 18 16 7 1 1 15 23 31 25 19 13 13 6 6 8 3 8 5 10 20 5 1 8 5 8 12 3 6 2 10 20
26 25 24 25 24 22 24 21 21 20 19 19 21 20 17 15 21 4 3 13 28 29 32 24 18 9 7 8 3 4 2 8 17 14 8 6 8 9 12 20 17 18 15 9 10
25 26 25 24 21 21 23 20 20 19 18 17 18 17 17 11 15 18 3 12 31 31 32 27 16 17 7 4 11 3 11 15 11 11 7 5 8 13 4 8 20 20 21 19 17
26 25 23 20 20 20 19 20 18 16 16 18 18 13 16 24 7 15 6 18 29 30 30 27 14 19 6 3 8 7 3 2 6 5 5 1 10 9 20 24 28 34 30 28 28
25 23 21 20 18 19 19 18 19 17 17 16 13 11 7 25 8 15 12 19 20 20 24 24 16 18 5 3 4 6 3 3 3 7 5 7 20 1 10 25 28 32 36 35 35
24 21 21 21 19 21 20 21 21 14 15 11 13 9 4 13 25 18 16 16 17 20 19 17 22 5 8 5 3 2 4 4 5 7 4 8 3 4 16 27 27 30 33 34 31
23 22 21 18 18 20 19 27 11 11 11 8 11 9 8 12 25 23 17 11 13 18 13 11 11 5 4 4 8 5 5 3 5 2 3 7 8 15 22 14 15 25 30 32 31
24 23 25 19 17 17 18 22 4 3 5 5 8 3 5 6 21 23 19 13 12 9 5 5 2 8 13 7 3 5 3 3 3 1 3 6 5 13 15 16 19 28 34 40 41
26 25 20 17 15 12 17 14 6 4 3 9 7 5 4 13 12 21 18 11 8 4 6 4 3 10 4 3 1 3 1 3 5 0 2 6 11 17 15 14 25 30 36 39 41
24 22 19 14 16 12 8 9 4 3 2 3 6 5 3 12 7 19 19 6 5 4 3 4 3 9 8 2 4 1 3 3 3 3 3 7 7 6 4 7 14 24 30 33 36
26 25 24 18 12 6 7 7 5 2 2 2 4 4 8 13 5 22 19 8 3 5 5 3 3 13 8 6 5 4 3 2 2 3 2 4 5 6 7 9 6 11 11 16 22
27 27 27 17 11 13 6 1 9 1 4 5 4 12 8 1 21 10 11 3 5 6 5 2 4 7 4 5 4 3 4 4 3 4 2 1 2 8 4 6 4 6 24 23 17
28 19 12 7 8 1 6 11 6 2 3 5 6 8 6 7 4 11 4 8 12 6 6 3 2 3 3 4 3 8 5 6 4 2 2 2 4 6 2 2 5 7 22 29 29
18 15 10 11 8 8 13 8 4 3 1 4 8 10 8 13 6 4 3 4 4 5 3 3 3 2 5 7 5 5 6 3 4 3 4 3 2 9 9 9 4 4 15 24 27
12 10 12 10 9 11 13 2 6 3 2 1 11 13 6 6 8 7 6 3 3 5 4 3 0 3 1 4 5 1 5 4 4 1 3 2 5 5 3 3 10 9 15 26 28
14 18 21 16 10 11 5 3 2 2 2 8 12 7 4 5 4 5 1 4 3 1 5 4 1 1 2 3 5 3 2 3 5 3 2 3 7 8 5 4 4 13 21 28 33
8 12 17 10 6 4 3 5 2 5 10 5 4 2 6 3 4 4 4 2 3 2 1 4 4 2 3 5 6 3 7 3 3 2 3 4 5 4 3 2 5 10 20 24 31
6 5 7 6 4 4 2 5 4 11 12 5 3 5 5 5 4 2 5 1 3 4 2 4 3 2 4 2 5 2 1 5 4 3 3 3 6 5 3 2 5 9 19 22 33
7 3 6 10 3 2 2 4 9 4 6 4 5 6 4 4 3 3 6 2 9 7 4 1 4 3 2 2 3 3 5 5 3 3 1 2 6 2 4 5 9 21 24 26 26
4 4 8 8 3 3 2 3 2 3 3 1 3 2 2 5 5 3 3 4 10 5 6 4 2 3 4 5 3 2 4 4 4 3 5 4 5 2 7 11 19 19 25 21 25
3 3 5 4 3 2 2 3 3 3 2 4 4 5 5 3 5 4 3 4 5 7 8 6 3 4 5 4 3 2 4 6 6 3 4 7 8 15 17 11 17 19 19 23 24
5 2 3 3 4 3 3 2 4 5 4 9 4 4 5 3 3 3 2 2 6 5 4 4 2 0 4 5 2 4 4 7 8 10 6 5 7 19 17 16 17 11 17 20 23
3 3 3 4 9 6 3 6 5 4 4 4 5 8 7 3 0 5 5 2 2 3 3 3 3 3 4 4 7 5 8 9 10 9 11 18 23 23 22 11 8 9 13 16 19
4 2 4 4 4 3 4 3 4 2 11 10 5 4 9 5 1 7 5 8 6 6 3 4 4 2 4 4 3 5 9 12 5 5 9 12 14 5 6 8 4 9 11 13 15

GFSSW_850_spd_054.txt.gz
Wind_Speed
25 24 25 24 22 22 18 19 20 20 20 24 24 20 14 19 16 19 26 27 20 7 13 26 19 16 9 7 7 6 3 5 6 7 4 2 2 2 2 7 5 4 7 7 10
27 27 26 25 24 25 25 22 20 20 23 22 26 22 24 10 20 29 28 24 22 18 13 22 26 19 8 8 7 5 4 9 5 5 4 2 3 3 3 7 2 3 4 10 14
24 25 25 24 26 24 21 25 22 22 20 23 23 29 24 24 19 31 22 25 22 24 19 19 23 22 11 8 8 6 5 4 4 3 1 3 2 1 1 3 3 3 6 6 20
26 25 25 25 25 25 24 22 20 19 20 20 20 21 23 19 6 3 6 17 23 27 24 19 21 17 7 6 8 3 7 5 8 6 3 1 2 3 6 8 2 3 7 1 13
26 25 25 23 22 22 21 20 21 20 18 20 18 16 17 11 22 9 3 7 25 31 31 23 23 15 10 10 6 5 2 13 12 7 6 5 6 7 13 14 13 14 14 9 6
23 23 23 21 21 20 20 19 18 18 17 15 14 13 16 9 20 26 15 9 26 33 34 28 17 13 11 6 8 6 13 12 6 8 6 5 7 7 6 7 12 17 20 18 15
22 23 22 19 19 19 18 19 18 16 14 14 13 14 16 17 11 14 14 14 26 38 36 31 16 15 9 3 9 6 4 3 8 6 5 2 8 8 24 24 28 30 27 25 23
24 22 20 20 19 19 19 19 17 17 17 14 12 12 9 10 17 10 10 12 25 34 31 30 17 21 5 5 4 6 3 1 3 9 6 7 8 3 7 14 27 30 30 31 32
24 24 21 20 19 19 19 20 20 25 17 10 9 8 5 8 20 9 9 19 25 25 23 23 20 9 5 6 3 2 4 4 5 8 4 8 2 3 6 8 18 27 31 29 30
28 23 24 24 20 17 18 17 16 7 5 6 7 5 10 8 21 14 12 20 19 19 19 17 14 5 3 5 7 8 5 3 6 1 2 4 7 8 19 17 17 21 25 27 29
27 26 21 18 14 14 17 15 4 2 4 5 8 4 7 8 15 17 16 16 13 16 8 13 7 10 16 6 4 6 4 3 2 1 2 5 4 12 17 16 18 23 28 33 36
25 21 21 20 15 13 11 8 5 2 3 4 3 8 4 15 11 16 16 7 7 5 6 6 5 4 11 9 5 5 5 2 2 1 1 5 9 16 14 10 23 26 31 33 35
29 28 27 20 16 15 2 4 3 1 2 2 3 6 5 15 9 11 16 3 2 2 4 5 9 11 11 9 8 3 3 2 3 3 2 7 7 5 3 3 7 10 14 15 18
28 29 25 24 7 7 3 4 5 3 4 5 1 3 10 7 6 15 16 5 2 5 5 4 5 14 11 6 3 2 4 2 3 2 2 4 5 6 4 7 6 15 19 20 21
24 21 14 9 5 7 3 1 10 1 4 1 1 7 11 3 19 7 13 2 5 4 4 2 7 8 10 6 11 3 5 5 3 4 2 2 2 7 2 4 3 9 17 22 26
19 18 12 10 9 6 5 9 6 3 4 3 1 3 9 4 4 8 4 1 8 7 9 4 5 3 2 5 2 9 5 6 4 3 1 2 3 5 1 2 4 5 15 22 29
20 16 10 10 9 10 10 2 3 4 2 2 3 7 9 7 5 4 2 4 4 4 4 5 3 2 5 7 5 4 5 2 3 3 4 1 0 8 3 5 2 2 15 25 28
18 14 13 14 10 11 3 4 5 2 1 3 8 12 5 5 7 3 5 4 4 4 3 4 0 2 1 3 6 2 5 4 4 1 3 3 5 4 3 3 6 6 15 30 28
11 13 14 12 5 4 7 4 3 2 2 7 10 7 4 4 4 4 4 3 1 1 4 4 3 1 3 3 3 3 2 3 6 3 3 3 6 6 4 2 3 14 29 31 26
13 8 12 10 7 5 3 5 5 1 4 5 4 1 3 3 4 4 3 1 3 2 1 2 4 2 3 4 9 3 7 3 3 2 2 4 4 4 0 1 5 9 21 26 29
11 5 13 15 10 5 3 4 3 8 8 4 3 4 5 4 4 2 4 2 1 2 5 3 3 2 4 1 6 2 1 5 4 3 3 2 4 5 4 2 4 11 22 24 25
7 3 16 17 5 3 3 4 5 5 4 4 4 5 3 3 3 2 3 3 5 7 4 1 4 3 2 2 2 2 5 4 4 3 1 1 6 3 6 3 4 15 18 15 23
6 5 12 14 3 3 2 3 2 3 4 3 3 2 2 4 4 3 3 1 9 4 5 5 2 3 1 3 4 3 3 4 5 3 4 4 5 1 6 7 15 13 15 22 23
4 4 6 6 3 1 4 5 5 3 3 3 4 4 4 4 4 4 2 4 9 7 6 5 3 3 5 3 3 2 4 5 5 3 3 6 7 12 12 9 14 16 14 17 18
4 2 3 3 3 5 3 2 3 4 4 6 4 3 4 3 3 3 2 2 5 7 4 3 3 3 2 4 3 4 4 7 6 5 6 4 6 12 12 12 18 7 13 17 20
3 2 4 5 9 5 6 5 3 2 4 3 6 6 6 4 2 6 5 2 3 2 3 2 3 2 3 3 5 4 7 8 9 6 10 15 19 20 24 14 9 10 13 15 15
3 2 2 4 5 2 2 4 5 1 9 9 4 5 9 5 1 3 1 6 7 6 3 3 4 2 3 4 5 5 8 12 6 6 11 10 14 9 6 5 5 7 11 11 10

GFSSW_850_spd_057.txt.gz
Wind_Speed
23 22 22 23 23 22 22 21 19 21 18 17 19 21 25 20 9 21 28 26 22 6 9 26 22 17 11 10 8 7 2 5 9 8 4 6 5 5 3 4 3 3 5 7 3
25 25 24 24 23 22 23 21 19 19 18 18 19 19 19 21 22 28 33 24 18 19 14 22 26 18 7 8 7 5 4 8 4 5 4 7 5 4 3 2 2 3 5 9 7
26 25 25 25 22 21 21 20 22 22 20 19 20 18 17 21 21 24 27 27 23 21 19 18 25 21 9 7 7 6 5 4 3 6 7 8 4 3 4 2 4 2 4 4 10
27 24 23 21 20 19 18 18 19 19 18 19 18 16 15 15 9 5 8 22 27 23 24 19 25 17 8 6 8 4 7 6 4 8 5 5 4 0 6 4 3 3 4 4 5
25 21 21 21 18 19 17 17 16 16 16 16 15 14 12 16 18 8 10 7 27 29 33 23 24 18 12 11 6 3 2 11 6 6 2 4 4 5 13 11 10 10 10 6 3
25 24 22 21 18 18 17 16 15 15 15 14 13 10 13 11 10 22 8 3 24 32 35 27 20 18 13 9 8 8 10 3 6 7 4 3 5 7 7 6 11 15 17 16 12
24 24 22 20 19 18 17 17 17 14 12 13 14 9 14 17 5 17 29 15 13 34 38 31 23 19 14 5 13 7 3 4 11 6 3 2 5 6 22 21 23 23 23 21 20
25 23 23 20 19 19 17 17 16 15 16 18 11 10 8 11 13 4 22 20 15 33 34 30 23 14 6 11 5 5 1 3 2 10 8 6 6 3 3 7 17 20 21 23 27
26 25 23 22 21 19 16 17 14 19 18 14 8 9 5 12 11 11 11 10 25 30 31 28 25 10 7 6 4 4 4 7 3 9 3 11 2 4 4 5 12 16 18 17 21
28 26 23 19 18 14 14 15 13 6 3 8 4 6 6 6 12 16 8 16 26 28 19 21 11 4 3 6 9 7 4 3 9 3 2 3 6 7 18 12 15 18 22 23 24
26 25 25 21 19 14 13 9 2 1 3 1 5 6 12 8 13 17 8 22 19 24 10 18 7 15 14 6 3 9 5 4 2 2 2 4 4 9 17 18 20 26 27 28 27
30 29 28 27 17 14 9 3 4 2 1 3 6 12 2 10 8 10 12 13 12 13 10 8 13 9 12 7 5 6 6 4 1 3 2 2 8 14 12 9 12 15 17 16 16
32 28 25 20 14 5 4 1 2 2 0 3 2 6 2 9 10 12 13 9 3 7 11 6 3 9 13 10 9 2 5 3 3 1 2 5 5 2 1 5 11 12 10 13 15
28 27 20 14 10 4 5 1 5 3 3 5 3 3 8 11 3 13 8 5 4 8 12 1 2 11 10 13 9 4 2 4 4 2 1 4 3 3 3 7 7 14 19 20 21
27 23 17 16 6 5 1 1 7 1 5 3 2 2 8 5 10 4 4 5 6 10 4 3 10 11 7 3 6 1 3 4 3 4 2 2 2 3 3 2 4 6 13 18 22
29 22 16 12 12 9 8 6 2 5 5 2 2 7 1 8 6 6 4 11 10 9 10 2 6 6 3 11 5 10 5 6 4 2 0 1 2 3 2 3 2 1 13 17 22
26 20 17 11 11 10 4 6 4 6 2 3 2 6 2 6 6 4 2 4 3 4 3 5 5 3 7 9 2 1 3 2 2 1 3 2 2 5 3 1 4 2 13 17 19
18 19 14 11 5 3 15 4 9 1 1 4 6 11 6 6 7 4 2 3 5 4 3 4 3 3 1 3 6 2 2 4 4 3 1 1 5 2 3 1 7 3 14 18 20
16 13 15 17 15 10 8 5 3 2 1 5 6 7 5 6 5 4 3 1 3 4 4 4 3 2 5 2 2 3 2 2 6 2 1 2 5 5 2 4 5 10 19 20 20
15 9 18 18 18 9 1 6 3 3 2 4 4 1 4 2 3 2 1 2 3 3 0 2 5 2 1 4 10 2 6 2 2 2 3 3 4 3 3 5 2 8 15 19 19
11 3 20 19 8 8 3 3 3 5 3 3 3 4 3 4 2 2 1 2 1 1 5 3 3 1 3 1 5 2 1 4 3 1 3 1 3 6 8 6 1 7 15 12 19
6 3 18 12 5 3 3 4 6 5 6 3 4 4 3 4 3 2 3 3 5 5 3 1 4 3 2 1 1 1 4 4 3 3 2 1 4 2 5 3 7 15 16 13 16
4 6 14 13 4 4 5 4 2 5 4 3 2 2 1 3 4 2 3 2 6 3 5 4 2 3 1 1 3 3 3 3 4 3 4 3 3 0 1 4 11 10 8 12 15
3 3 7 9 5 3 5 4 5 4 3 3 3 4 3 4 5 3 2 4 5 2 8 5 3 3 4 3 3 3 4 4 5 3 3 5 5 6 6 5 10 8 8 11 14
4 1 2 3 3 3 1 3 3 5 6 8 4 2 3 3 2 2 2 2 5 5 4 3 3 1 1 1 3 3 4 7 6 5 6 3 6 7 7 7 13 0 7 9 10
3 2 3 4 7 3 5 2 5 4 4 3 5 3 2 4 3 6 5 3 3 2 3 2 3 2 3 0 5 4 7 9 9 4 10 7 17 13 17 11 2 3 4 6 6
5 2 1 4 2 1 1 3 1 2 4 6 2 4 7 4 1 0 1 6 7 6 3 4 5 2 2 3 3 5 10 14 5 5 9 7 10 3 3 6 2 2 4 6 5

GFSSW_850_spd_060.txt.gz
Wind_Speed
24 24 24 23 22 21 19 20 19 18 17 16 15 15 17 25 24 19 19 20 21 10 10 28 20 15 14 12 9 9 9 16 22 20 16 12 12 8 6 10 6 4 2 3 3
26 27 26 25 23 20 17 18 18 19 18 18 17 15 14 16 19 25 21 20 20 17 11 20 25 19 12 12 10 14 14 19 9 9 11 13 13 13 9 11 10 7 2 6 7
27 25 22 20 19 18 17 16 15 16 17 16 15 15 14 11 15 21 22 22 26 21 18 17 23 19 14 13 14 15 15 7 7 9 9 13 10 8 10 9 8 7 1 1 5
26 24 22 20 18 17 16 16 14 13 13 14 16 15 14 6 8 15 17 25 24 23 21 21 26 20 13 14 17 9 15 9 6 8 7 11 9 7 10 4 7 8 3 2 3
26 24 23 20 19 17 16 15 12 13 12 11 11 11 10 14 20 7 15 19 28 26 28 26 32 24 15 18 14 13 5 9 7 7 6 7 7 8 10 8 5 6 7 3 2
27 23 23 21 19 17 16 15 15 13 12 11 10 10 11 15 11 21 12 8 23 31 30 26 26 23 20 14 14 14 7 9 12 8 5 7 8 5 5 7 12 12 13 11 9
26 24 22 22 18 17 17 15 14 13 13 11 9 10 12 22 13 16 23 7 14 33 32 27 18 22 14 7 12 4 12 13 8 10 10 7 13 13 18 16 14 13 13 12 14
27 25 24 22 19 18 17 16 14 13 14 13 11 10 11 13 22 10 23 22 10 26 27 27 19 22 11 8 13 12 6 9 11 17 6 8 14 3 6 13 16 16 18 18 21
26 25 21 18 18 15 15 10 12 12 14 12 8 8 6 8 15 13 17 17 16 25 26 26 19 20 10 14 9 14 10 17 5 12 13 16 8 7 7 5 9 10 11 12 16
31 26 23 21 20 13 15 11 8 4 3 8 4 5 10 15 11 13 11 16 21 27 21 23 13 8 14 15 15 17 16 14 14 7 10 10 16 6 9 8 13 14 14 14 15
32 25 23 20 17 14 11 5 1 2 2 2 2 5 3 11 11 13 14 15 23 27 14 25 5 14 20 19 0 8 16 9 7 6 7 12 11 12 15 16 18 19 19 16 14
31 28 23 19 12 8 6 1 1 1 2 2 5 7 10 5 6 11 5 10 31 22 15 11 14 14 14 14 7 12 13 10 5 5 6 5 8 12 15 16 12 13 14 11 7
32 28 26 20 12 11 7 3 1 3 1 6 6 5 5 1 4 12 6 17 20 20 15 16 6 14 16 14 12 9 12 10 4 6 1 4 7 6 3 4 5 6 6 5 5
31 29 24 11 12 11 5 4 2 1 1 2 2 3 0 6 5 3 7 1 4 9 6 3 6 18 18 18 14 11 4 8 8 7 3 2 3 4 7 9 9 11 10 9 8
28 25 21 20 9 9 5 3 3 1 2 4 1 1 5 5 8 4 2 8 10 12 5 4 7 14 17 18 14 4 7 6 5 3 1 4 4 6 9 10 9 9 8 8 9
23 21 16 17 15 12 8 5 3 3 9 5 6 3 4 4 4 8 8 15 9 9 14 5 5 5 3 8 6 11 10 7 4 1 4 4 4 8 9 11 9 5 7 6 7
15 18 14 12 8 8 15 6 2 7 2 6 5 1 7 5 8 5 5 5 4 5 4 2 4 2 10 7 5 3 9 4 3 3 2 1 4 3 8 6 9 6 5 6 7
13 10 15 15 14 13 13 2 10 4 4 4 5 10 5 4 6 6 4 5 7 9 5 3 4 2 2 1 6 7 4 2 3 4 3 3 5 3 7 9 11 2 4 4 6
13 9 15 17 14 10 3 7 3 0 2 4 7 5 5 9 5 2 4 3 3 4 4 4 4 4 2 2 3 3 4 2 4 2 2 4 3 4 4 9 8 3 3 4 6
9 3 20 16 12 8 2 6 2 2 2 2 3 2 4 4 3 3 3 2 2 2 1 3 6 2 5 3 10 2 8 3 0 4 4 4 3 4 11 14 6 2 5 3 5
6 2 17 10 13 10 4 4 2 4 3 3 2 4 3 4 4 3 2 2 2 2 3 6 3 3 3 2 6 4 3 2 1 2 2 2 3 8 15 13 5 4 4 3 5
5 2 12 7 6 4 3 4 5 6 5 3 4 5 4 3 3 2 2 1 3 2 3 2 5 5 2 2 3 1 2 3 2 3 1 3 3 5 9 10 2 6 2 3 4
4 3 10 5 3 3 1 1 1 5 4 3 2 1 1 4 3 2 2 3 2 1 3 5 3 5 4 2 1 4 4 2 4 2 4 2 4 4 5 7 5 6 1 3 5
5 1 5 8 4 2 2 4 3 2 2 2 2 2 3 2 3 4 3 3 1 2 6 3 3 1 0 3 3 4 8 9 4 3 4 5 2 7 7 4 8 4 2 2 4
6 3 3 2 3 3 1 1 0 2 4 5 2 1 2 3 2 3 2 4 3 2 2 1 3 0 1 1 2 3 6 12 8 5 5 1 5 4 6 7 7 2 1 3 3
4 4 4 4 4 1 2 1 1 1 2 1 2 2 1 2 0 5 5 3 2 2 2 2 3 1 0 0 5 5 9 9 13 13 12 13 18 15 7 3 3 4 3 3 2
5 3 4 3 3 2 1 0 1 1 1 1 5 3 4 2 1 1 1 3 3 5 3 3 5 1 1 2 3 8 15 17 10 9 12 10 8 5 4 5 4 5 4 2 2

GFSSW_850_spd_063.txt.gz
Wind_Speed
24 25 27 24 25 23 20 20 16 18 18 17 16 15 13 15 15 26 19 16 21 9 7 19 19 15 15 16 17 12 14 18 24 24 19 14 18 16 11 14 7 7 3 4 5
26 25 26 24 21 19 16 18 16 16 16 16 16 16 13 17 16 23 21 24 20 17 10 21 26 19 17 18 13 15 15 23 19 19 10 15 12 18 9 15 16 11 3 3 4
26 24 24 22 20 17 14 15 15 14 14 14 12 14 11 13 19 29 29 26 27 21 16 15 23 21 19 18 20 16 18 19 12 4 0 9 16 17 16 13 16 16 12 4 6
26 27 25 22 20 17 16 14 13 12 12 12 12 13 13 6 6 5 17 25 24 23 21 15 28 25 17 15 23 11 25 14 8 4 4 11 14 11 15 5 5 5 5 5 5
27 26 24 22 19 17 16 14 13 13 12 11 9 10 7 14 21 6 9 23 26 27 28 23 30 29 18 20 19 16 10 15 6 9 12 17 19 13 13 5 6 7 4 4 3
28 27 24 22 20 17 13 14 12 12 13 10 8 7 9 18 12 14 20 12 27 30 29 28 29 29 16 13 18 15 15 12 12 12 9 10 14 10 13 13 12 11 10 9 8
28 26 25 22 20 15 15 15 14 11 13 10 9 8 14 21 5 7 23 11 7 30 31 29 24 27 11 10 15 3 17 7 16 15 7 10 13 18 16 11 14 13 14 13 13
33 32 25 20 16 14 12 13 11 10 11 10 10 10 11 13 21 20 15 22 5 29 27 25 23 20 10 9 15 13 11 15 16 13 15 13 14 17 23 20 21 19 17 17 18
32 29 23 19 15 13 8 10 7 8 7 9 10 10 10 5 20 16 17 18 9 24 24 23 16 15 18 13 11 14 13 17 13 25 10 16 9 13 11 11 15 17 17 17 18
32 27 24 18 14 13 9 8 6 2 4 5 2 6 10 10 13 12 16 16 13 33 27 20 12 10 12 14 13 19 21 19 18 11 20 17 15 6 11 11 13 13 13 14 15
31 28 26 20 9 5 3 3 1 2 5 4 3 9 7 3 12 12 16 14 15 20 14 23 7 17 26 23 18 16 17 12 14 9 11 16 15 18 14 14 15 16 17 17 18
33 27 23 20 17 11 7 2 2 2 3 3 7 8 10 4 4 15 17 17 14 20 16 10 12 13 18 18 12 9 16 13 3 9 9 14 15 12 12 17 18 17 15 16 14
28 27 16 17 16 14 9 4 2 4 2 5 7 6 6 8 7 8 6 7 11 23 18 13 4 12 16 15 13 12 14 16 6 7 10 4 12 14 10 4 6 7 8 6 6
22 24 20 6 6 7 7 4 3 3 2 8 5 4 6 5 6 7 5 6 7 22 17 7 3 13 9 17 14 12 7 9 8 11 6 9 3 10 11 7 8 10 8 6 6
17 16 16 14 4 6 5 4 1 5 4 7 7 6 6 6 6 9 5 11 11 10 5 3 5 16 16 15 15 3 9 10 8 8 1 7 5 9 11 11 10 10 9 7 6
14 13 10 9 7 7 8 5 4 3 9 5 6 5 4 1 4 5 6 16 11 9 13 4 5 6 2 9 6 10 12 8 4 2 4 10 8 10 11 12 12 9 9 6 5
15 9 9 8 6 10 7 2 2 6 2 6 3 2 4 4 4 6 9 6 5 4 2 2 3 6 1 11 5 4 13 4 4 4 4 3 5 4 9 14 12 10 8 4 3
10 9 11 9 10 9 4 3 9 6 6 3 3 10 4 2 6 5 9 8 10 9 3 2 3 3 3 3 4 7 3 3 5 7 7 5 7 2 10 11 14 7 4 2 1
6 9 11 12 10 7 4 7 3 1 4 2 3 6 4 7 4 2 10 5 5 2 1 4 3 2 2 2 8 4 4 2 2 2 2 7 4 5 8 13 12 5 3 2 0
6 5 7 13 10 7 4 5 2 2 5 4 3 4 2 4 2 2 4 2 3 2 7 4 6 6 5 4 4 1 6 3 2 3 5 5 5 4 16 15 10 6 3 3 2
7 2 11 9 10 7 3 4 1 3 3 4 3 1 3 3 1 3 3 2 1 2 1 5 3 5 5 4 6 3 2 2 3 3 3 4 4 8 15 16 10 4 3 3 3
6 2 11 6 3 4 2 2 3 4 2 1 1 3 3 1 4 2 3 4 2 1 2 4 5 4 3 2 4 6 6 8 3 5 1 4 4 10 16 13 8 3 4 3 2
9 5 8 4 2 3 2 3 1 4 4 2 1 2 2 3 1 1 2 2 3 3 2 4 4 4 2 2 3 5 8 6 1 3 3 4 5 7 13 9 4 1 4 4 2
6 3 4 4 3 1 1 0 2 1 1 1 2 2 5 4 1 3 3 2 1 3 4 1 2 3 3 4 3 4 10 10 5 2 4 6 4 11 10 8 5 3 5 4 3
5 3 3 2 2 3 2 2 4 2 2 2 3 4 5 4 3 2 2 6 4 3 2 2 3 1 1 1 2 4 7 13 8 8 4 1 4 10 9 4 3 0 3 4 3
4 4 6 7 4 5 2 1 4 1 3 3 5 5 5 3 1 3 5 4 3 5 3 1 2 1 2 2 6 8 10 9 13 14 14 13 13 10 12 1 2 3 4 6 4
6 4 3 6 4 3 1 1 1 2 2 4 1 4 5 1 1 1 1 1 0 3 7 4 4 1 1 1 5 9 16 16 10 8 14 10 7 5 0 2 4 4 6 5 5

GFSSW_850_spd_066.txt.gz
Wind_Speed
26 26 25 24 25 22 20 16 17 18 17 16 17 16 13 13 14 13 22 18 22 10 12 16 23 15 16 17 17 18 8 12 18 19 11 12 6 11 6 10 2 4 12 10 9
27 26 25 25 24 21 18 15 15 15 14 15 14 15 16 15 16 20 18 24 24 19 8 18 20 17 10 16 15 12 9 16 20 15 7 15 6 15 7 7 8 8 6 7 5
25 26 26 24 22 19 17 14 14 11 11 11 12 11 11 10 13 20 23 27 25 25 14 15 19 19 15 13 16 10 12 16 17 4 8 8 2 3 7 5 17 13 14 10 5
29 29 26 24 22 18 15 13 13 11 11 7 10 8 8 5 5 9 9 31 30 23 17 17 23 24 9 12 21 8 23 21 14 2 1 2 1 8 12 10 3 12 18 9 6
29 30 28 24 20 17 14 12 11 9 10 8 8 7 4 9 18 9 3 18 27 27 24 21 24 25 12 13 16 17 14 22 9 2 3 4 4 8 6 3 5 7 11 7 4
32 31 30 26 20 17 12 9 10 8 6 6 6 6 6 13 11 9 17 11 23 27 28 27 17 24 14 9 15 14 20 9 9 5 2 3 6 14 12 7 7 3 2 5 6
31 31 28 23 15 12 11 10 9 8 7 7 5 5 10 17 3 6 10 13 8 29 27 28 21 26 6 9 16 3 10 10 9 12 3 4 8 17 17 9 12 12 11 11 11
33 31 28 22 15 11 10 6 8 3 5 4 5 6 9 9 13 17 12 12 15 10 27 25 26 11 12 5 7 4 4 7 8 13 10 11 7 12 17 18 14 14 11 12 13
34 32 30 22 12 8 5 5 4 4 2 4 5 6 9 5 11 13 14 16 11 10 30 23 23 9 13 5 7 8 6 13 10 11 5 10 3 18 24 24 19 19 20 18 16
32 32 29 27 9 1 2 5 4 5 7 4 2 3 8 9 9 13 13 18 11 13 23 20 11 7 7 7 12 15 14 13 15 17 14 12 10 8 6 6 11 14 15 13 13
28 29 27 24 18 9 8 7 3 2 2 3 4 11 11 16 6 12 13 12 11 16 8 19 7 16 23 15 11 12 13 13 14 10 17 17 12 12 10 11 12 16 15 13 13
23 25 18 19 22 18 12 5 6 3 4 4 5 8 5 7 2 10 16 11 8 8 14 10 10 11 14 14 16 7 12 16 3 12 9 11 14 13 10 14 19 17 17 17 13
20 19 15 11 14 11 11 7 4 4 2 6 6 7 6 5 4 9 13 12 9 17 15 9 4 6 11 12 13 14 12 13 5 5 3 3 8 11 7 7 4 7 9 8 7
16 15 14 10 6 9 6 5 5 4 0 6 4 2 3 2 3 7 7 2 4 14 9 5 4 11 6 9 16 11 9 8 10 6 3 8 3 14 15 5 5 8 9 9 6
18 13 11 9 5 5 5 6 6 2 3 11 4 5 3 4 8 5 10 7 4 9 5 3 3 8 5 7 12 4 7 8 8 7 1 8 1 2 12 7 6 11 11 10 8
18 11 9 7 6 13 10 9 2 1 6 5 5 6 4 14 5 6 8 8 11 9 13 4 3 2 2 4 6 7 8 9 2 1 2 7 6 4 7 12 10 12 14 11 10
15 11 9 5 6 11 7 5 1 6 0 7 4 8 6 5 6 7 7 5 3 4 2 3 2 5 2 6 2 6 9 3 2 2 4 2 6 5 12 13 8 10 16 12 10
10 11 13 13 13 7 4 2 8 2 3 3 5 5 5 3 5 10 5 5 8 6 3 2 2 2 3 1 5 3 2 3 5 5 4 2 5 4 8 20 19 17 14 9 8
9 10 15 16 12 4 4 6 3 1 3 5 5 3 3 6 4 1 10 5 3 2 3 4 1 1 4 2 2 3 3 2 3 3 4 5 3 3 2 9 14 14 13 10 7
12 5 6 11 9 6 2 4 1 4 6 8 4 2 6 4 2 3 4 1 8 10 10 6 4 2 3 2 4 1 3 2 1 2 3 5 6 4 11 12 9 10 11 12 7
9 3 8 12 5 6 3 2 1 2 3 4 6 3 4 3 2 3 5 1 1 2 7 4 3 5 8 6 8 3 1 3 2 1 1 2 3 4 15 12 9 10 10 10 7
6 2 10 5 3 3 1 3 1 3 1 1 3 4 2 2 1 3 5 5 4 4 2 4 4 3 2 2 2 3 3 7 3 3 2 3 2 7 10 9 12 10 9 8 7
6 4 7 6 1 1 2 3 3 2 2 2 1 3 3 1 1 2 4 1 2 5 3 3 2 3 2 1 2 2 3 3 5 3 2 2 3 8 12 10 8 8 12 10 8
9 3 5 1 3 5 3 3 3 3 3 2 0 3 3 3 2 4 5 1 2 4 3 5 1 1 1 3 3 3 6 6 5 3 3 4 4 7 11 8 9 14 10 10 8
7 4 4 3 3 6 5 7 6 2 4 3 3 5 5 3 3 4 7 5 4 3 2 3 1 3 2 2 2 4 5 7 6 5 4 2 2 11 8 7 8 10 10 9 8
8 8 10 9 11 7 2 5 7 2 2 3 3 1 2 3 3 2 4 5 5 4 2 2 1 3 3 1 3 4 7 8 8 9 9 7 7 5 8 9 9 10 11 9 9
5 1 4 9 6 4 3 7 7 5 3 5 8 2 5 3 5 5 6 5 3 5 5 5 4 2 1 2 4 6 12 13 7 7 10 9 8 3 4 5 4 4 8 9 11

GFSSW_850_spd_069.txt.gz
Wind_Speed
22 23 24 24 23 21 18 17 13 13 13 13 14 13 12 12 12 12 16 26 19 13 16 17 19 19 21 16 15 14 3 5 6 8 11 16 13 10 13 8 7 10 21 17 23
24 26 27 24 22 20 18 15 13 11 10 9 10 9 10 13 13 19 16 24 24 19 9 20 22 19 7 12 16 9 8 19 25 22 10 21 2 18 3 7 17 19 15 12 19
26 27 28 26 21 18 16 14 11 9 8 7 7 9 8 8 7 18 9 21 30 27 13 18 21 16 8 10 11 9 8 13 14 31 10 11 11 22 9 2 4 20 16 12 15
28 29 28 27 25 16 14 11 9 7 6 5 5 5 3 6 5 3 10 22 34 28 20 18 20 12 6 6 19 7 15 7 14 9 18 10 11 2 3 6 5 8 16 14 11
30 31 28 25 22 14 11 8 4 5 5 3 2 2 3 5 16 3 9 11 23 27 28 21 25 18 6 7 11 8 2 21 19 9 3 12 4 2 5 12 14 21 16 11 10
29 31 28 24 19 10 9 6 5 4 2 2 2 2 4 4 0 7 7 2 21 25 30 26 19 18 13 8 9 12 18 13 5 7 1 1 3 3 6 7 8 8 7 10 9
29 30 28 25 17 8 5 5 5 4 1 2 2 1 4 10 5 4 4 5 10 20 27 26 20 24 13 2 14 9 13 7 4 8 2 4 6 6 9 5 2 5 6 6 6
28 30 28 26 11 5 5 7 5 4 1 1 1 1 5 8 7 11 7 7 6 14 24 26 21 9 8 4 5 5 5 4 4 10 4 6 6 10 22 11 12 6 7 11 10
27 27 29 24 17 9 7 8 6 6 4 1 2 2 7 6 6 7 10 8 5 10 23 29 19 9 8 6 3 4 4 6 4 13 5 4 4 11 13 21 17 14 11 10 11
24 23 24 26 19 13 9 10 11 12 9 7 2 1 3 8 8 4 8 9 6 11 16 18 10 4 4 6 13 8 4 4 7 8 7 7 8 4 4 20 25 19 17 18 20
21 20 18 18 16 11 6 3 3 3 1 2 5 5 9 11 1 9 8 8 5 8 7 12 5 15 15 10 2 9 8 5 7 7 7 14 8 9 14 7 15 16 15 11 11
17 15 11 14 14 14 6 7 7 4 5 3 4 2 1 3 3 7 8 9 7 9 8 7 10 6 8 10 9 4 3 8 3 7 14 10 14 9 15 12 18 19 18 12 7
16 12 10 6 11 11 13 8 5 3 3 3 4 4 3 6 3 6 11 2 1 5 12 3 5 12 10 9 9 4 7 4 5 2 2 3 9 14 14 14 25 23 19 13 8
16 12 8 6 2 8 7 6 5 6 2 7 6 2 1 5 2 9 15 2 4 9 7 3 1 9 7 8 4 4 6 10 11 5 4 5 4 9 15 9 8 13 12 11 11
17 11 8 6 2 4 7 8 5 3 4 13 4 4 5 1 5 6 9 3 8 6 4 2 5 6 5 4 3 6 6 7 3 6 3 2 1 6 8 9 8 11 12 12 10
12 10 8 3 2 5 7 5 2 5 6 7 7 4 4 7 3 5 3 4 10 9 9 4 4 4 2 3 3 8 3 8 4 3 1 6 6 5 6 19 6 8 17 17 13
9 9 9 8 3 7 3 3 4 6 2 7 3 5 7 4 5 3 3 4 4 5 3 5 3 3 3 3 5 4 6 2 1 0 5 3 7 11 5 4 8 14 20 17 16
9 9 12 13 10 3 4 3 9 2 4 5 4 5 1 3 4 3 5 3 5 5 4 4 2 2 0 1 4 9 3 5 6 4 4 2 7 6 7 15 24 27 22 19 17
12 6 12 13 8 6 2 7 4 4 4 5 5 3 2 2 6 3 2 2 2 2 5 4 3 1 4 2 7 5 5 4 3 2 3 4 4 6 5 8 16 23 24 19 16
10 4 10 12 6 3 4 5 2 5 4 4 3 1 2 3 3 4 2 5 2 5 3 4 5 2 3 1 3 3 4 2 2 2 4 4 4 4 7 10 10 11 19 17 14
7 5 12 12 4 6 3 3 3 4 1 2 4 2 2 1 1 3 2 0 6 5 8 5 3 3 3 4 6 4 3 3 0 4 4 2 5 5 14 14 12 12 20 20 17
5 2 12 13 5 3 2 4 0 3 4 3 3 3 3 2 3 3 4 1 5 2 6 2 4 3 2 8 8 4 4 3 3 4 1 3 5 4 8 9 15 15 19 18 16
8 5 8 11 3 3 4 3 3 2 2 3 2 3 2 1 2 3 4 1 2 2 3 3 2 3 2 4 2 5 6 7 1 2 4 4 5 1 8 10 16 18 16 16 13
7 4 6 5 6 3 4 4 2 3 2 2 2 2 3 1 1 3 2 2 1 2 2 1 3 5 6 4 4 5 5 6 5 3 2 5 3 3 7 9 11 15 18 18 15
7 2 3 4 4 6 4 3 5 4 3 3 3 5 4 3 3 4 2 1 2 3 1 3 3 2 1 3 3 4 4 7 6 5 6 3 6 11 12 9 18 20 18 19 17
5 6 6 6 13 6 4 3 3 4 1 5 2 8 5 0 1 3 5 5 5 4 3 2 3 3 3 3 3 4 7 8 8 6 6 3 5 6 9 15 14 21 20 19 16
6 1 2 5 6 4 3 8 10 9 5 4 3 4 4 2 1 1 2 2 6 7 4 4 4 3 3 3 1 6 13 14 6 6 12 9 9 1 4 9 14 17 17 15 14

GFSSW_850_spd_072.txt.gz
Wind_Speed
25 24 24 25 21 19 18 16 13 10 13 10 11 11 11 13 10 10 14 20 19 12 14 16 16 14 19 16 15 20 5 11 12 8 9 12 9 17 12 7 9 4 13 26 29
25 27 27 26 22 18 15 14 10 9 9 7 7 7 6 10 12 16 8 11 21 17 11 18 19 16 10 11 13 6 3 10 7 9 5 12 18 21 10 6 8 16 20 27 28
26 27 27 23 21 20 12 12 7 5 5 5 5 7 4 5 6 14 5 12 24 22 13 17 16 20 9 11 9 11 16 10 11 13 5 9 25 22 17 6 15 23 23 27 26
27 29 26 24 19 15 8 7 5 2 3 2 2 2 2 7 4 11 3 10 23 27 19 16 15 15 7 6 12 7 6 24 9 5 9 3 17 22 19 5 13 14 19 22 27
27 29 26 21 16 9 5 4 4 2 2 1 1 1 6 6 6 4 9 9 22 31 29 20 21 15 5 6 9 1 13 11 9 14 21 17 22 23 25 3 12 19 18 17 19
26 27 26 23 10 6 5 3 2 1 1 2 2 2 4 3 4 2 3 6 15 24 26 24 18 16 10 7 7 12 7 7 2 13 13 22 21 26 17 4 20 17 13 12 13
25 26 26 20 11 8 7 6 3 1 2 2 2 1 2 2 2 5 7 6 7 18 26 26 13 19 8 3 8 5 8 4 11 13 8 14 9 14 19 4 11 14 13 10 10
23 23 22 18 13 9 10 10 9 5 2 3 2 2 2 5 6 2 1 1 3 10 20 26 13 23 3 6 5 5 5 6 7 10 10 10 8 15 23 13 6 8 11 11 9
20 17 18 15 11 9 9 8 6 6 5 5 5 3 3 4 7 8 6 5 3 5 15 22 18 6 7 4 4 2 4 6 5 15 5 7 4 8 11 10 14 8 9 9 12
16 13 13 12 10 7 7 11 11 10 9 6 4 3 3 8 8 3 6 6 3 7 12 13 11 4 2 4 9 6 3 2 3 7 6 6 5 5 6 8 18 18 14 12 11
14 11 9 9 9 6 3 2 3 2 0 1 6 5 8 11 3 6 5 5 4 1 6 13 5 13 5 6 5 7 1 5 5 5 5 7 4 10 17 11 12 18 19 17 14
13 9 8 6 7 12 8 5 4 2 3 5 2 2 3 3 4 6 5 3 3 4 3 5 8 5 8 6 5 7 6 4 2 4 4 6 14 9 14 9 13 16 20 20 13
14 8 4 2 3 4 5 6 4 2 2 2 2 2 3 4 3 5 8 6 5 4 4 8 7 9 8 7 6 1 5 3 4 2 2 4 6 9 9 10 18 20 21 21 17
14 9 4 3 4 3 2 1 1 2 2 8 4 1 1 4 4 5 7 4 3 7 3 4 5 10 7 8 5 5 4 6 2 3 4 4 5 6 9 15 10 23 25 22 18
12 10 6 3 3 3 7 5 4 1 4 10 4 2 3 1 10 2 7 2 5 6 3 2 4 13 7 5 5 5 3 5 2 5 3 1 1 6 3 9 16 16 24 21 20
10 10 8 5 5 5 4 2 3 5 5 4 4 2 3 2 3 6 2 4 6 5 5 3 3 3 3 2 3 3 2 6 4 4 2 5 5 5 6 8 8 8 22 21 21
8 9 9 9 6 4 4 1 4 6 1 6 2 2 3 3 4 5 4 6 4 5 1 3 3 1 2 5 4 2 4 2 2 4 5 3 5 15 6 7 7 10 22 23 24
7 5 10 11 8 4 3 3 9 4 2 5 3 3 2 3 5 2 3 2 1 4 3 4 3 3 2 1 5 3 3 4 5 4 4 2 8 7 5 13 16 26 31 26 25
5 3 13 11 8 5 2 6 6 5 3 3 6 1 3 3 4 2 1 1 2 3 5 4 1 2 2 2 3 4 6 2 2 3 3 5 7 9 2 2 13 23 27 26 24
4 4 14 12 7 6 4 2 2 4 3 2 3 1 1 4 6 5 6 3 2 6 4 7 4 4 3 1 0 3 2 2 3 3 3 4 5 6 3 8 11 14 19 25 22
5 4 12 12 5 5 3 4 3 7 6 3 2 4 0 1 1 3 5 5 5 7 4 5 4 4 5 7 9 5 4 6 3 4 4 3 5 5 10 12 15 15 25 27 22
4 3 9 12 4 3 1 4 2 5 4 3 2 2 2 3 2 1 5 3 2 9 6 7 5 4 2 4 7 7 5 4 4 4 2 3 5 5 7 7 14 17 25 23 21
4 3 6 8 3 3 5 4 3 2 2 3 3 1 1 2 1 2 2 1 0 3 7 6 0 3 1 1 3 4 5 5 2 3 5 5 5 4 3 9 15 19 21 23 20
3 3 4 6 4 1 4 4 3 4 3 3 3 2 2 2 2 3 2 1 0 0 2 3 4 6 7 5 5 5 7 12 8 4 3 5 4 2 4 8 11 19 22 23 22
6 3 3 3 4 5 4 3 3 3 4 3 3 1 3 3 2 3 3 0 1 1 1 4 5 4 5 4 4 5 6 10 10 11 8 7 7 6 10 10 19 25 22 22 21
4 3 3 3 8 5 4 3 5 5 2 2 3 5 4 5 3 3 6 4 5 1 2 2 2 2 3 4 4 3 7 9 12 5 7 5 5 7 13 11 14 21 20 22 24
6 2 0 2 5 1 1 3 5 10 7 7 1 3 5 3 2 3 3 4 4 7 6 3 4 3 4 1 3 6 13 15 7 7 13 9 13 2 6 14 19 21 24 25 24

GFSSW_850_spd_075.txt.gz
Wind_Speed
24 25 27 25 22 21 16 13 12 12 10 10 9 8 8 12 11 9 10 10 20 9 8 15 12 11 16 10 16 6 3 9 8 6 5 5 8 12 22 12 11 4 12 20 22
24 26 28 24 22 19 16 10 9 7 7 7 6 4 5 8 9 13 6 8 20 15 9 14 14 12 11 6 5 7 5 5 2 1 4 3 10 13 12 26 8 8 18 27 22
25 26 26 22 19 17 9 10 6 4 3 4 4 2 2 4 2 11 8 5 16 16 13 12 14 13 9 8 6 3 13 7 3 4 4 8 11 17 13 8 7 4 30 27 24
24 27 27 23 16 12 6 6 3 2 3 2 2 0 4 8 3 9 3 9 10 17 13 7 12 10 6 6 5 5 9 15 5 4 3 6 9 19 13 14 27 24 25 27 26
23 25 25 20 13 9 8 3 3 2 2 1 2 1 6 5 3 3 5 9 15 18 20 12 16 10 4 5 6 1 7 15 10 4 9 9 13 9 31 22 29 16 22 24 24
21 22 21 16 12 10 10 5 3 3 2 3 3 3 3 2 1 8 8 3 15 25 22 17 13 13 9 6 8 8 4 16 20 16 11 6 2 0 25 15 24 12 17 21 24
18 19 18 12 10 10 10 7 4 1 2 2 3 3 3 4 2 8 6 6 17 19 24 21 9 11 6 5 9 2 5 6 15 17 6 18 6 11 42 32 30 10 13 14 16
14 14 13 10 8 8 7 6 5 2 2 3 5 2 1 7 8 1 2 2 9 12 21 22 8 15 2 7 7 4 3 5 9 14 6 17 11 14 23 30 27 9 8 14 14
11 10 10 9 6 7 7 5 4 3 3 4 6 4 2 4 7 4 6 1 5 8 16 19 14 8 2 5 3 4 5 6 7 16 7 15 4 19 34 29 26 17 12 14 15
11 7 7 7 4 3 4 5 6 6 5 4 8 3 6 8 6 4 4 6 9 9 12 13 8 4 2 3 12 4 2 4 5 9 9 10 5 6 22 25 29 24 17 14 15
12 6 3 4 5 3 2 2 0 2 6 5 10 4 9 6 4 4 5 6 8 4 2 2 3 13 6 4 4 6 2 4 2 4 5 5 3 7 17 15 14 20 23 21 16
13 8 3 2 2 5 5 3 5 3 2 7 4 4 5 4 3 5 5 3 4 3 4 1 7 6 8 7 5 6 6 2 2 2 3 4 9 8 14 14 20 18 22 26 21
13 9 5 5 3 1 3 3 4 3 1 3 4 4 3 4 3 3 4 4 6 4 2 4 7 11 7 4 5 3 4 3 2 2 2 3 6 11 11 16 25 27 21 18 24
11 9 6 4 3 3 1 0 1 2 2 6 1 1 1 3 4 5 5 3 4 2 6 1 8 11 8 5 4 3 2 2 2 2 3 5 5 7 9 14 9 26 28 25 20
8 9 8 4 2 2 4 3 5 1 5 7 2 2 2 2 10 3 6 4 5 6 2 3 9 11 8 5 6 5 1 6 4 1 2 2 2 5 3 7 17 19 27 27 19
5 8 7 6 3 2 1 2 3 5 3 3 3 1 3 3 2 4 2 7 7 4 2 3 4 3 3 3 2 2 5 6 4 3 2 6 5 5 7 8 6 12 24 30 26
4 6 8 8 4 3 0 1 4 6 1 4 2 0 0 3 4 1 1 3 4 2 2 3 2 1 2 5 4 3 6 2 1 1 5 3 5 13 5 5 6 9 18 26 29
1 5 8 7 5 1 1 4 9 3 3 4 2 2 2 2 2 5 6 3 4 4 2 3 4 4 0 2 5 3 6 4 5 4 4 4 8 6 6 12 17 18 19 24 30
5 9 10 9 5 3 1 6 5 5 3 4 5 3 2 1 3 1 1 4 5 5 4 4 1 2 1 1 2 4 3 4 5 3 3 4 8 8 7 8 7 13 20 28 30
5 3 14 11 5 3 4 2 1 4 2 1 2 2 2 3 1 2 3 4 3 6 2 5 4 2 4 1 1 1 4 2 2 1 4 5 6 8 5 8 5 9 22 29 31
6 3 11 10 6 2 3 4 4 4 5 2 2 3 3 4 5 5 6 2 5 6 3 5 3 3 4 6 7 4 4 2 1 4 5 2 6 7 6 8 8 10 19 29 30
3 3 8 8 3 2 1 4 2 3 3 3 2 3 3 1 3 6 7 3 8 11 6 4 3 4 5 1 4 6 7 7 4 5 2 2 6 2 5 6 12 14 23 29 27
3 1 5 6 2 3 5 4 3 3 3 1 2 2 1 3 2 4 4 4 8 7 6 5 1 3 1 3 4 7 9 8 2 1 6 5 5 1 5 2 13 19 26 28 25
2 2 1 3 3 1 4 4 3 4 4 4 3 2 1 2 3 3 3 4 6 7 8 14 4 5 6 3 4 5 10 17 12 4 3 6 5 3 1 5 8 20 26 26 24
4 2 1 2 3 4 3 3 3 3 4 2 2 3 1 2 2 3 3 1 4 7 6 5 5 4 5 6 5 5 7 16 21 18 8 5 8 7 6 9 16 25 25 24 23
4 4 2 3 4 3 2 1 3 4 3 3 4 5 2 5 5 4 5 3 5 2 6 1 2 3 3 4 6 5 7 10 17 15 14 17 9 7 8 8 15 23 24 25 25
7 4 2 2 2 1 2 1 4 9 9 11 7 6 4 7 7 5 6 6 4 7 6 6 5 3 4 3 2 6 15 14 7 9 11 9 18 2 5 9 20 24 25 26 25

GFSSW_850_spd_078.txt.gz
Wind_Speed
21 23 23 23 19 18 18 12 12 10 9 7 7 5 6 6 8 11 9 5 18 9 7 15 14 12 15 9 8 6 3 5 8 7 5 5 4 7 9 10 9 3 6 5 24
22 23 24 22 18 15 13 10 12 8 7 7 6 4 3 5 4 12 9 4 9 12 7 15 17 14 8 6 6 5 5 3 4 3 5 6 4 9 8 21 11 20 4 16 27
21 23 23 18 13 12 11 12 9 8 8 7 6 4 0 3 3 5 14 2 6 12 11 16 16 15 7 8 4 4 6 4 6 10 7 6 3 5 7 4 9 23 20 7 24
19 22 20 16 13 11 10 8 7 7 8 7 7 4 1 5 2 6 2 10 5 11 14 10 14 11 5 6 6 2 3 7 5 4 3 3 3 8 5 7 17 24 20 15 24
18 19 17 14 12 12 10 5 6 7 7 6 5 3 2 0 3 0 6 9 8 13 17 12 16 8 5 7 9 1 4 11 7 3 7 8 4 4 24 22 22 23 11 15 19
16 15 15 11 10 12 11 6 5 4 5 5 5 3 1 1 4 6 8 7 11 17 18 13 11 11 6 4 6 8 8 17 13 7 8 6 7 4 27 21 20 24 17 13 19
13 13 11 9 8 10 10 8 5 4 4 5 5 4 4 3 2 6 4 5 9 20 21 15 8 9 7 5 7 10 7 6 6 9 3 5 6 10 35 28 32 29 21 12 21
12 10 10 8 5 7 7 6 5 4 4 4 6 3 3 5 6 1 4 0 8 18 20 16 5 8 3 6 5 5 5 6 6 17 11 15 7 14 26 19 28 28 25 16 13
12 9 7 7 5 6 6 5 5 5 5 6 7 4 2 3 7 3 1 0 4 12 18 14 6 3 4 5 4 3 4 5 7 19 8 9 4 12 10 24 28 31 27 20 11
13 8 6 6 6 5 2 3 4 6 5 3 8 4 6 7 6 3 4 5 6 14 14 8 3 2 2 3 12 6 4 2 5 11 10 13 3 13 24 25 29 33 24 22 15
13 9 6 5 6 6 3 2 4 1 11 5 4 2 8 5 5 4 5 9 5 9 3 10 4 10 4 3 5 6 5 6 3 4 9 12 8 14 20 17 26 35 28 27 20
13 10 6 5 4 5 3 1 3 2 3 9 4 4 6 6 4 6 3 3 2 4 3 4 6 7 7 3 5 6 5 2 1 2 6 8 10 9 20 22 31 37 36 32 28
11 10 7 4 5 5 3 0 2 3 3 4 6 5 4 4 4 6 6 6 7 5 2 1 4 9 6 4 5 2 6 3 2 2 1 4 6 8 8 17 26 34 34 27 20
11 9 6 4 3 3 3 2 1 1 3 5 3 3 3 3 4 5 6 4 4 5 4 1 3 11 7 4 5 2 3 5 2 3 3 1 4 6 12 13 11 30 37 38 28
9 8 6 4 3 3 3 5 4 1 5 7 3 2 4 3 5 4 9 8 4 6 1 2 6 9 5 4 3 2 2 4 3 3 3 2 2 4 3 8 20 21 24 33 28
7 6 6 5 2 2 0 1 4 5 2 3 2 1 2 3 3 1 4 7 7 3 1 2 2 3 3 3 3 4 5 6 4 2 2 7 6 4 6 7 5 10 27 32 32
3 4 6 5 4 2 1 2 4 6 1 2 2 2 0 3 3 2 1 3 3 4 0 4 3 1 2 6 3 4 3 1 2 1 5 3 5 11 4 7 7 9 14 18 26
2 3 7 6 3 1 0 4 7 3 2 2 2 1 3 1 3 3 3 4 2 5 3 3 4 4 1 2 5 4 6 4 5 4 4 1 7 5 5 11 20 21 18 14 17
6 4 9 8 3 0 2 5 5 5 3 2 2 2 2 1 3 2 3 2 5 5 5 3 2 2 1 2 1 4 3 4 4 2 3 4 7 8 7 9 13 15 16 19 20
7 3 11 9 4 3 4 1 0 3 3 1 1 2 3 4 3 2 2 3 3 5 3 4 4 1 2 1 4 1 5 2 2 2 4 5 5 6 6 7 5 8 16 17 21
4 1 10 10 6 2 3 4 4 6 5 2 2 2 1 4 5 5 6 3 3 5 6 5 3 2 6 5 6 3 3 1 3 4 4 3 5 6 5 7 8 10 13 17 25
2 2 8 10 2 2 1 3 3 3 2 3 1 3 3 3 5 4 7 5 12 12 6 6 4 4 4 1 2 4 3 5 3 4 1 3 9 3 6 8 11 11 11 17 25
2 2 5 9 3 3 6 4 3 2 3 3 4 6 4 4 3 6 5 5 16 10 8 6 1 3 1 1 0 5 6 8 3 2 7 3 6 0 5 6 5 10 14 21 26
2 2 3 5 4 2 4 4 5 4 5 5 4 2 3 4 6 3 4 4 10 11 10 7 3 5 7 5 5 6 9 13 12 7 8 15 9 6 5 5 6 10 16 24 27
3 1 1 2 2 2 1 2 4 4 3 4 3 4 4 3 4 5 4 2 3 6 6 5 5 5 5 4 4 6 9 14 19 18 12 1 14 13 13 6 11 14 17 24 27
3 4 3 2 2 2 1 1 2 5 4 5 4 9 3 4 5 4 4 4 6 3 7 3 2 2 3 2 6 5 8 12 19 21 22 23 27 14 16 16 11 18 24 29 30
3 3 2 1 1 2 2 2 2 4 8 9 6 9 8 6 14 17 13 5 4 8 7 7 5 3 4 3 4 6 15 16 8 8 19 19 26 3 6 11 16 18 23 30 31

GFSSW_850_spd_081.txt.gz
Wind_Speed
20 22 22 20 17 14 12 11 12 9 9 7 7 6 6 5 7 9 6 5 10 10 8 14 13 10 13 9 9 8 4 11 10 9 5 4 4 3 4 6 10 10 9 9 10
19 21 20 18 14 12 12 12 9 9 9 8 7 5 4 2 6 12 8 7 7 7 8 15 16 15 10 9 8 5 4 6 5 5 6 5 4 4 4 7 5 12 13 3 14
18 20 18 16 13 12 12 10 9 9 9 8 7 6 2 2 0 2 7 6 3 7 8 16 16 16 6 9 6 5 5 5 2 10 11 6 4 3 5 3 5 15 24 2 13
16 18 16 15 13 13 11 9 9 8 8 7 7 5 2 2 2 5 6 10 1 7 11 18 16 13 4 6 8 6 5 5 7 6 7 4 3 2 3 5 6 13 21 5 14
14 14 15 12 11 13 10 7 7 7 7 8 7 4 6 2 3 1 8 14 1 12 12 15 17 9 5 6 8 3 7 8 11 11 10 8 3 3 8 4 7 11 16 18 14
12 13 12 13 10 11 11 9 6 5 6 7 6 6 5 3 5 4 7 4 5 14 12 14 14 11 6 8 7 9 7 13 10 8 5 4 1 2 2 5 11 12 16 19 10
13 11 10 10 9 10 10 8 7 5 4 6 5 6 9 5 4 3 4 2 7 19 15 13 15 7 6 6 7 15 5 3 1 3 3 5 5 9 5 16 18 18 19 21 15
12 11 8 8 8 9 9 8 7 5 4 5 6 4 4 6 8 3 6 0 5 17 15 13 14 6 2 6 4 6 6 4 2 7 2 4 8 7 6 13 18 22 23 23 15
13 10 7 8 7 7 6 6 7 7 3 6 5 4 2 4 8 3 6 4 5 12 11 13 5 3 3 5 2 3 5 6 3 5 2 3 5 10 5 9 20 22 26 27 24
15 11 8 6 6 7 4 3 3 10 6 2 7 3 10 8 5 4 6 7 5 8 10 7 3 3 2 2 11 5 5 5 7 9 5 9 11 3 3 11 19 24 29 33 31
16 13 9 5 5 6 4 3 3 2 14 5 4 2 5 6 7 4 5 10 2 10 4 2 2 9 4 3 3 6 5 5 2 7 8 12 11 7 13 5 16 22 30 35 31
16 13 10 5 4 4 3 1 4 2 4 7 5 4 7 6 4 7 6 5 1 8 4 3 5 5 5 4 6 5 7 3 1 2 13 7 14 10 13 13 14 25 32 36 31
15 12 10 6 4 3 2 1 1 3 3 4 6 5 4 6 4 5 5 5 8 8 6 1 5 12 4 4 7 2 5 4 4 2 2 4 10 8 9 14 22 16 30 36 31
13 10 9 6 3 2 2 1 1 1 3 5 3 3 3 3 3 7 3 3 4 6 3 2 2 11 6 3 4 3 3 5 5 3 3 2 4 6 14 18 19 27 33 38 36
10 8 8 6 3 3 3 1 3 2 5 6 1 2 3 4 2 3 6 5 6 7 1 3 6 7 6 6 3 3 3 5 3 3 2 0 2 5 5 18 17 22 29 39 32
7 6 8 7 5 4 2 3 3 5 2 2 3 1 0 2 1 1 2 5 7 5 3 2 1 2 2 3 2 7 5 6 3 2 2 5 5 3 5 10 7 20 32 40 44
2 6 8 8 5 3 1 1 4 6 2 3 1 3 3 3 1 1 1 2 4 4 1 2 2 2 2 5 3 2 4 2 1 1 4 2 3 10 9 7 6 11 22 31 40
4 6 9 8 5 2 1 3 8 3 3 2 2 3 1 5 1 2 3 1 1 4 3 2 2 4 1 2 5 3 4 4 6 4 3 1 5 5 6 11 17 20 14 8 12
6 5 13 9 3 1 1 5 5 5 3 1 2 3 3 2 1 4 4 4 6 6 4 3 2 1 2 2 1 4 4 3 4 1 1 3 4 9 6 10 11 14 13 16 18
5 2 11 9 3 1 3 3 2 4 3 2 3 5 3 3 3 5 5 4 5 7 3 5 3 1 2 3 3 1 5 2 1 2 4 2 3 5 5 1 6 9 15 17 14
5 1 8 8 4 1 3 4 4 5 6 4 2 3 3 4 5 4 4 3 4 5 5 5 4 3 5 5 7 3 3 1 2 3 3 1 4 5 5 2 6 13 18 13 12
2 2 5 6 2 2 1 2 2 2 2 3 2 3 3 2 5 4 5 4 12 13 7 5 3 5 4 2 1 2 5 5 3 4 0 1 7 3 5 4 6 14 14 6 9
2 2 2 3 3 3 5 3 2 1 2 2 3 5 2 3 2 5 3 3 15 9 8 7 3 4 3 1 1 5 6 6 3 3 6 3 3 2 1 6 3 4 7 6 9
2 1 1 3 5 4 1 2 4 3 2 3 4 2 1 4 5 4 3 3 12 8 10 10 3 5 7 4 5 5 7 10 9 5 6 17 11 17 15 8 8 7 6 10 15
1 1 1 2 0 3 2 0 2 3 2 3 2 4 4 4 3 5 5 2 4 8 5 7 4 4 5 4 4 5 7 13 15 17 11 3 19 17 19 15 9 11 12 15 22
2 3 1 2 2 2 3 4 2 3 2 3 3 5 3 4 2 3 4 1 6 4 8 2 2 2 4 4 6 4 7 9 18 20 20 23 25 19 24 22 21 23 18 21 25
3 3 2 1 1 1 2 2 2 1 7 8 2 3 7 8 6 14 16 19 11 5 7 7 5 3 3 0 1 4 14 18 10 8 18 17 24 9 11 11 22 28 26 30 31

GFSSW_850_spd_084.txt.gz
Wind_Speed
16 18 17 16 14 12 13 12 11 10 9 7 6 6 5 4 4 6 8 7 6 7 10 13 10 8 13 10 9 9 5 15 17 16 14 10 7 2 3 5 7 7 4 5 4
15 16 15 15 12 13 13 10 10 10 9 7 7 5 3 1 0 4 13 9 8 9 8 15 15 13 13 12 11 8 8 18 15 9 6 10 9 8 5 8 7 7 11 2 9
14 15 13 12 13 13 10 10 10 10 9 9 8 6 2 3 2 2 5 13 6 7 9 16 15 15 15 13 10 14 8 7 12 13 9 11 9 5 12 6 7 9 13 1 13
13 13 14 11 11 13 10 7 8 8 9 10 8 6 2 3 1 5 10 15 5 3 10 16 15 15 11 13 14 13 13 11 10 8 9 13 9 6 3 7 7 7 12 6 11
13 13 10 12 10 11 11 8 7 7 8 10 9 5 4 3 6 4 9 6 1 10 11 16 19 15 11 13 15 13 16 9 9 9 8 9 8 7 7 6 5 4 7 11 1
13 13 9 8 9 10 11 9 7 6 7 8 8 7 4 6 6 6 9 5 2 12 10 17 12 8 15 12 17 15 17 14 11 8 4 5 5 5 8 9 6 2 4 7 9
14 12 11 7 7 9 10 9 7 7 6 7 6 5 9 8 9 6 6 3 3 11 11 13 11 7 11 12 7 17 11 10 8 9 4 3 11 11 9 9 10 9 2 2 7
15 12 11 7 6 7 7 8 8 8 6 7 6 5 4 7 8 5 6 3 1 12 8 10 13 3 6 5 7 12 13 11 9 9 5 6 21 12 11 15 18 16 12 5 8
16 13 11 7 5 5 4 5 7 14 3 8 6 4 3 7 9 8 9 5 5 9 5 7 15 2 6 11 9 11 12 17 7 9 5 11 13 7 9 13 16 21 20 10 12
17 14 11 7 4 5 3 3 4 14 6 4 9 1 9 7 7 7 6 9 6 10 7 3 4 5 8 11 12 10 11 15 12 11 9 12 14 8 5 7 13 16 24 13 11
17 13 10 7 3 3 4 3 2 2 13 8 4 3 5 5 8 7 5 9 9 8 3 5 3 11 16 10 1 11 10 12 8 7 8 15 15 14 12 10 12 14 21 24 18
16 11 10 7 3 1 2 2 3 5 7 10 6 4 6 6 4 8 6 5 3 7 11 2 4 8 6 8 7 10 11 9 5 6 8 9 15 15 14 13 15 17 22 31 25
14 9 9 7 3 1 1 2 3 5 2 5 4 4 3 5 4 4 5 11 8 8 9 3 3 7 8 8 10 9 14 9 3 5 11 7 14 16 15 18 17 21 16 25 31
11 6 7 5 2 2 2 4 3 4 2 6 3 3 4 2 4 4 4 5 3 7 4 1 2 13 11 11 11 11 5 7 8 11 6 8 4 6 14 17 18 22 23 18 21
8 5 6 4 1 2 2 4 5 2 2 4 2 2 4 3 1 1 2 2 8 9 4 2 5 15 13 11 7 3 5 9 4 7 3 8 5 9 7 15 16 22 26 27 20
3 4 5 4 5 4 4 5 6 2 4 1 1 1 1 1 1 1 1 1 10 6 6 1 1 8 7 3 3 10 8 7 4 5 8 13 11 8 7 10 14 21 25 29 26
3 5 6 4 3 4 4 2 2 4 1 2 1 3 1 2 2 3 4 6 3 4 2 1 3 3 4 10 7 9 12 4 5 6 7 1 10 14 8 9 8 8 14 21 22
5 8 6 5 5 4 1 1 4 1 3 1 2 4 2 4 2 3 4 6 5 2 4 5 6 8 6 8 7 14 13 4 6 5 3 3 7 3 7 8 12 15 11 5 14
6 4 7 4 3 1 1 3 2 3 1 2 3 3 3 4 2 5 10 9 5 7 3 5 2 2 2 3 3 8 6 1 1 1 3 4 4 11 12 10 7 7 9 13 15
6 2 7 4 2 1 1 2 1 2 2 2 2 3 1 5 4 2 7 5 5 11 3 4 4 4 3 3 2 4 8 4 2 4 5 4 4 5 6 5 2 4 5 7 11
7 3 4 4 3 1 2 1 2 5 6 4 2 3 5 4 7 7 5 4 9 10 5 7 3 5 5 6 6 4 5 4 3 4 3 2 3 1 1 4 7 9 6 6 5
4 2 0 2 0 1 1 2 2 3 5 5 4 5 6 3 6 8 8 8 12 13 8 7 2 5 9 2 6 11 12 14 6 6 4 5 6 3 2 5 7 8 5 2 3
5 3 1 2 1 0 0 2 3 3 4 4 4 7 3 4 5 9 7 4 16 15 13 9 5 5 5 3 3 7 13 13 14 2 8 7 3 0 2 4 3 6 10 6 2
4 2 2 1 2 1 1 2 2 3 4 5 4 4 5 9 9 7 4 1 12 13 8 14 6 7 7 3 6 9 16 18 13 7 12 16 15 9 11 12 11 13 15 6 7
4 2 3 1 2 1 1 1 1 2 3 4 3 4 4 6 9 12 10 10 4 6 9 6 6 8 6 3 5 5 13 17 17 17 15 13 19 21 23 22 27 19 9 8 10
5 5 4 4 2 1 1 2 2 2 3 4 6 6 6 8 12 5 1 3 4 5 10 7 4 5 2 6 7 8 11 12 19 23 23 25 26 20 27 26 27 24 23 18 15
7 7 4 3 3 2 1 2 2 0 5 8 6 5 12 15 11 13 10 9 7 5 5 8 6 5 3 5 3 6 15 18 14 14 18 20 23 15 16 16 20 20 20 19 21

GFSSW_850_spd_087.txt.gz
Wind_Speed
15 16 14 16 12 14 13 11 11 11 10 10 10 10 9 6 4 5 8 11 8 8 9 9 14 14 15 11 14 12 8 16 23 19 16 16 9 3 3 8 9 5 4 2 4
13 16 14 13 13 14 11 11 11 11 11 10 10 10 7 5 4 2 7 15 5 6 2 11 15 17 17 19 8 9 11 19 19 13 8 15 12 9 8 10 8 7 6 3 10
12 14 13 12 12 13 12 9 10 10 11 11 10 8 4 3 6 4 3 11 6 6 3 8 12 15 18 19 8 20 16 16 2 14 14 9 10 6 8 5 5 6 6 6 12
12 13 11 13 12 12 12 10 9 9 10 11 10 9 4 4 3 8 8 10 10 6 3 6 10 17 15 15 20 11 18 5 8 14 6 10 9 9 11 11 9 8 7 7 14
13 13 13 9 12 11 12 11 10 9 9 10 9 7 6 2 8 14 11 9 6 7 6 11 15 15 16 19 21 16 8 13 5 6 14 8 8 8 9 9 8 6 7 6 10
14 13 13 9 9 10 11 10 10 10 9 8 8 7 5 7 6 9 9 4 5 6 8 9 9 12 13 15 17 14 23 17 8 8 9 13 8 4 13 10 8 5 5 5 5
16 13 12 9 7 8 8 9 9 10 8 8 6 4 8 7 7 6 7 3 4 6 10 12 3 8 7 7 14 10 13 11 16 20 7 9 12 11 12 12 13 9 6 4 6
15 14 12 9 6 6 6 6 8 15 6 7 5 4 5 7 5 7 5 1 1 6 7 16 8 7 6 7 12 14 12 9 17 14 7 6 16 17 18 15 17 18 15 10 6
16 15 12 9 4 5 5 4 8 14 3 7 5 3 6 7 8 8 6 3 9 9 9 16 9 6 5 12 10 11 14 19 14 16 9 12 11 16 13 13 19 22 23 18 12
15 14 11 8 3 4 4 3 4 14 7 5 5 2 10 8 8 8 2 5 9 12 11 5 5 6 9 13 13 13 17 20 15 11 13 13 16 16 7 12 18 21 25 25 21
14 11 10 7 2 3 4 4 2 3 14 9 6 6 5 8 5 6 7 7 13 10 4 4 4 9 14 14 6 14 16 15 14 8 11 16 16 18 18 14 16 19 21 26 28
13 9 8 5 1 0 1 1 0 4 6 8 6 6 6 7 6 7 4 3 9 8 12 1 7 6 12 10 5 9 12 8 5 7 8 12 17 18 19 21 20 20 20 21 26
12 6 5 4 3 2 1 3 4 5 1 4 4 6 4 10 5 6 5 3 8 6 7 3 2 3 7 9 10 9 12 12 7 11 11 11 15 17 19 23 22 22 20 17 24
9 4 3 3 3 1 1 6 5 5 1 6 3 3 3 3 3 3 2 2 0 5 7 2 7 7 10 13 11 10 8 5 6 5 9 16 6 18 18 19 20 23 22 20 17
5 2 2 3 1 1 3 7 6 2 1 3 3 1 2 2 4 3 1 1 8 6 4 3 7 14 12 11 9 2 9 5 5 9 8 9 6 14 11 14 18 20 23 22 17
1 1 2 4 3 3 5 9 5 2 3 1 1 1 3 1 3 4 2 1 3 6 3 1 8 9 7 6 4 6 7 8 6 8 6 15 11 10 12 13 13 17 21 22 21
3 2 3 5 1 5 8 2 1 2 1 1 1 3 2 2 3 7 6 7 5 4 3 2 5 3 4 9 7 9 12 5 5 5 8 1 10 16 5 5 7 5 10 17 20
5 4 3 4 6 8 3 2 3 1 3 2 2 5 5 7 3 9 7 9 13 8 4 6 3 10 12 11 7 13 14 5 9 9 10 5 8 9 8 13 15 9 8 4 9
7 5 4 2 3 5 3 3 2 1 2 3 3 4 5 5 4 7 13 14 12 13 7 7 6 5 5 5 3 13 10 9 4 1 4 6 10 12 14 8 6 7 8 10 12
8 4 0 1 4 3 1 1 1 1 2 4 5 4 4 8 5 6 9 11 17 13 11 6 2 8 4 5 8 5 5 5 3 4 8 7 7 8 7 8 4 1 2 4 6
9 3 2 1 4 2 2 1 2 5 5 4 5 6 7 6 10 6 6 5 15 12 15 5 1 6 5 10 17 9 5 7 3 10 4 6 3 5 3 9 5 6 5 4 3
7 3 4 3 3 2 1 2 1 5 6 7 6 10 10 7 8 9 10 9 10 13 10 9 4 4 10 7 13 15 17 14 8 7 7 8 5 5 4 2 3 5 6 5 3
7 4 3 4 2 2 3 2 4 5 6 3 5 8 5 8 7 10 13 12 9 11 9 11 5 4 5 4 7 8 12 16 16 10 7 8 4 4 1 5 5 5 4 7 3
6 3 2 3 3 3 1 3 3 4 8 8 10 10 10 12 13 9 10 5 5 14 17 8 8 11 9 3 9 11 17 19 15 6 12 15 15 10 5 6 9 10 10 11 9
6 2 5 3 4 3 2 1 4 3 6 4 6 8 9 10 12 16 15 16 11 8 7 3 6 10 12 6 6 7 14 20 18 17 13 13 18 17 17 17 20 19 20 14 11
7 5 4 3 3 4 3 5 4 3 3 5 8 11 8 12 14 18 9 6 5 4 2 5 3 6 5 7 9 8 8 14 19 18 20 22 24 20 25 25 25 23 20 18 15
11 10 5 4 3 3 2 2 1 0 2 5 6 8 13 13 11 17 16 14 7 1 5 4 3 5 2 7 4 6 18 17 17 19 17 19 21 17 17 16 19 20 19 20 19

GFSSW_850_spd_093.txt.gz
Wind_Speed
15 15 15 14 15 14 15 15 14 13 13 16 18 18 16 13 11 10 6 7 9 9 9 14 13 8 10 15 11 9 3 3 3 6 6 8 5 8 9 15 11 6 13 24 33
16 15 15 16 13 17 15 15 15 13 12 15 16 16 14 11 11 11 13 11 10 9 12 10 11 5 8 7 7 4 3 5 1 2 7 8 12 10 5 12 10 19 19 23 30
18 16 15 16 10 12 15 16 15 14 13 12 15 13 11 9 4 13 15 12 7 4 7 15 4 6 5 7 1 6 4 1 10 7 13 6 10 7 15 2 8 19 21 22 24
19 16 15 14 12 11 12 13 14 15 12 11 12 10 9 9 3 19 18 9 3 5 5 9 3 3 4 5 6 5 6 7 9 11 3 4 1 7 8 8 13 12 18 23 24
19 17 16 14 12 10 11 11 12 15 11 9 8 10 11 8 11 17 18 8 9 2 6 2 7 3 6 7 8 1 4 8 12 10 7 8 4 7 16 19 14 13 17 23 23
20 17 16 14 10 9 9 9 11 14 11 9 5 11 11 6 12 14 15 8 7 4 7 4 3 6 9 12 11 11 4 5 8 12 12 3 3 11 12 17 17 14 16 21 24
19 17 16 13 8 7 7 10 12 11 11 9 8 7 7 10 13 13 9 9 9 7 6 11 5 10 2 8 15 15 10 4 7 4 7 9 1 8 17 17 16 15 13 14 20
19 17 15 12 8 4 4 11 14 10 11 9 10 8 2 13 14 6 12 11 8 4 7 5 2 2 4 4 7 6 3 4 3 9 2 4 6 16 9 16 16 14 14 13 15
18 15 14 12 7 2 1 6 16 12 9 8 9 9 5 11 13 9 14 8 10 9 5 3 7 6 7 5 5 2 5 4 6 4 6 5 4 18 25 21 17 18 19 18 14
17 16 13 10 5 1 0 2 6 19 7 2 9 1 13 11 11 7 12 5 8 5 7 5 7 4 4 4 4 7 6 6 6 3 6 8 10 8 10 9 22 20 21 21 22
16 15 11 8 3 1 1 2 2 4 15 8 5 3 5 8 9 9 11 6 9 10 5 6 5 1 4 4 3 5 9 5 12 12 10 17 13 11 10 4 18 21 18 16 18
14 13 8 6 1 2 3 3 4 6 4 6 4 8 8 7 3 6 6 0 4 4 2 4 1 2 7 7 6 2 6 6 1 15 5 2 6 8 14 11 16 18 18 21 23
13 11 5 3 2 3 4 5 7 4 2 2 4 2 3 7 4 6 8 3 3 5 4 3 2 9 7 6 4 2 4 4 5 4 3 5 6 8 14 16 24 26 23 26 28
13 7 3 1 2 2 3 8 8 2 4 4 2 2 3 2 4 3 5 3 2 3 5 1 3 4 6 1 3 2 2 7 9 6 4 7 4 5 14 10 13 29 35 29 27
12 6 4 4 4 2 2 8 8 1 4 4 1 0 1 1 1 1 4 4 2 2 4 3 4 3 2 3 1 1 3 6 4 3 3 3 2 6 3 7 15 17 30 33 28
10 7 6 4 3 3 5 11 7 5 2 2 2 2 3 4 3 0 2 3 5 1 3 2 4 3 3 3 4 5 3 4 4 3 1 5 5 4 4 6 5 12 34 34 31
9 8 8 7 3 5 15 7 4 5 1 3 3 4 3 5 5 5 3 3 2 2 5 5 4 5 1 2 5 2 4 1 3 1 5 4 5 9 7 7 6 11 20 32 33
10 10 9 6 5 15 8 3 6 4 5 3 3 5 3 6 5 7 3 6 8 4 3 5 5 7 5 5 5 5 6 4 5 4 4 4 6 5 10 9 6 10 15 11 10
14 12 10 7 12 15 4 2 7 6 6 3 4 3 3 5 5 5 9 7 7 11 5 5 5 2 4 3 6 5 3 3 4 3 3 4 5 8 7 5 6 8 7 7 7
18 10 7 10 14 10 2 4 4 5 4 2 5 7 4 4 5 6 4 5 5 13 15 4 3 4 4 3 3 2 1 2 2 3 3 4 3 5 2 7 4 7 9 5 6
18 7 7 12 15 4 3 5 3 7 7 5 4 4 3 3 7 4 4 6 3 4 6 6 4 1 3 7 9 3 1 1 3 4 4 2 4 4 5 9 9 7 9 5 4
16 3 10 16 4 4 2 4 2 7 9 2 2 3 3 4 4 2 5 7 5 6 6 3 3 4 7 3 2 3 5 4 4 4 4 3 4 4 8 7 13 12 11 10 7
14 6 10 13 3 3 3 2 4 4 5 5 4 6 2 0 3 3 2 10 15 4 2 4 3 3 3 1 4 5 5 4 2 2 4 5 5 3 5 7 10 11 8 7 6
11 3 5 11 8 3 4 4 3 6 2 3 2 2 2 3 4 4 5 5 10 7 11 7 2 1 3 2 3 4 10 12 8 3 2 5 2 4 5 6 7 11 10 9 9
11 6 8 5 6 5 4 2 4 4 4 3 2 3 1 2 5 4 5 4 5 10 5 3 3 5 8 11 6 3 6 13 13 9 9 6 13 13 8 4 6 3 9 10 10
10 6 7 4 11 6 4 4 6 3 4 1 2 3 4 1 1 3 3 1 3 5 4 3 1 5 5 10 8 8 12 13 17 16 14 8 9 5 15 18 13 14 12 14 13
18 10 7 7 4 5 5 4 5 7 4 5 4 3 3 2 6 10 10 10 6 4 1 1 2 2 4 1 8 4 13 14 11 15 15 15 21 7 13 8 15 16 12 8 9

GFSSW_850_spd_096.txt.gz
Wind_Speed
17 14 14 16 10 16 17 15 14 13 12 14 16 16 16 12 12 11 8 11 14 13 10 10 11 8 16 18 4 8 2 5 5 8 5 6 6 5 6 8 6 7 18 31 31
19 15 14 14 15 9 15 15 15 14 12 12 14 14 13 14 11 14 16 15 12 6 8 5 9 12 9 14 5 3 3 5 2 4 3 5 8 10 6 6 6 17 22 38 34
20 17 14 14 14 10 10 13 12 14 12 10 11 11 10 14 6 17 21 16 7 5 5 3 6 12 7 16 7 4 2 1 8 14 6 6 7 6 16 2 8 22 34 36 34
20 17 16 13 13 11 9 11 12 13 10 9 10 10 8 10 3 20 19 14 6 8 7 4 5 3 4 9 15 8 8 8 9 16 8 4 5 5 4 5 9 22 30 36 32
21 18 17 14 12 9 9 11 10 9 9 9 8 11 10 7 9 17 16 11 7 7 4 3 7 6 3 6 11 5 3 11 12 18 15 9 10 2 9 13 15 16 23 30 30
21 19 16 13 11 7 7 10 6 7 9 9 6 8 14 6 14 15 12 7 6 7 6 6 7 8 6 7 13 7 10 14 15 14 11 4 5 4 6 12 14 15 18 25 25
19 20 16 12 10 4 5 7 5 8 8 9 9 9 6 9 17 13 8 5 11 10 10 10 3 8 7 4 14 15 4 9 11 9 6 13 4 3 4 9 13 12 15 20 21
18 19 16 11 8 1 4 8 4 7 8 8 8 8 5 16 11 11 8 10 10 13 14 8 3 7 1 15 5 6 6 4 2 6 4 6 5 2 4 5 11 12 12 17 20
16 18 15 10 6 1 4 5 8 4 6 8 7 6 6 11 9 12 8 9 10 11 7 4 1 2 5 6 5 2 3 4 3 3 2 5 3 5 4 9 13 14 14 13 15
14 17 15 9 4 3 4 6 7 11 4 2 8 2 12 12 5 9 6 8 6 5 4 3 2 2 4 4 5 6 4 2 4 4 4 2 4 6 7 16 19 21 19 18 17
13 15 14 7 3 3 4 4 3 1 11 9 8 4 4 9 3 10 5 6 7 7 5 7 5 2 1 1 2 6 9 8 5 11 8 8 5 8 16 19 21 27 23 22 21
14 13 12 7 4 4 5 4 4 5 4 5 6 6 5 7 5 8 8 4 7 4 3 6 1 4 6 4 2 2 6 5 3 8 4 5 7 12 14 17 23 22 31 25 24
14 11 10 6 5 6 6 6 6 3 3 1 1 1 2 4 3 6 9 5 4 3 3 5 2 5 4 4 2 3 5 5 3 7 2 3 4 11 13 24 28 25 28 31 30
13 11 8 7 4 6 7 9 6 1 4 4 1 1 1 1 2 2 6 3 2 2 1 1 2 3 4 2 2 1 2 7 9 8 4 6 4 4 7 13 13 27 27 28 29
14 10 9 9 5 7 4 11 8 1 3 3 2 2 1 1 1 1 2 2 2 2 4 2 2 4 1 2 3 2 2 4 4 4 4 5 1 6 2 8 16 15 30 33 33
14 10 11 9 7 6 8 11 8 5 4 1 3 3 2 2 2 1 1 2 2 1 2 1 2 3 3 3 3 3 5 7 6 3 1 6 7 4 5 7 4 12 32 37 38
14 11 11 8 5 7 13 12 4 4 2 3 4 4 4 5 3 3 2 1 2 3 2 4 3 2 4 1 3 2 3 3 2 3 3 4 4 8 6 8 7 9 17 34 37
14 14 13 9 8 13 17 4 3 4 6 3 4 3 3 5 5 5 2 3 6 4 2 3 5 8 6 6 6 5 8 3 5 3 4 5 6 6 10 14 20 18 8 16 30
16 19 12 10 12 18 6 2 7 6 6 7 3 3 2 4 3 4 5 4 6 10 6 4 5 2 3 3 7 4 3 4 4 3 3 3 6 8 6 3 3 8 9 7 7
24 17 11 11 15 13 3 6 3 4 4 3 6 5 5 4 5 6 5 4 4 10 9 3 3 3 4 3 1 3 5 3 2 5 4 4 4 5 3 7 4 4 9 8 8
24 10 13 14 16 5 3 6 4 5 5 4 5 3 4 3 6 3 4 3 4 2 9 4 2 1 2 6 8 3 2 2 3 4 4 1 5 5 7 7 10 9 13 11 9
19 3 17 19 5 4 3 5 3 5 4 1 2 2 3 1 2 3 5 4 7 2 4 3 3 6 10 0 3 4 6 7 4 5 2 3 5 3 1 6 10 10 9 7 4
15 7 15 21 4 4 4 2 4 4 4 4 4 5 3 3 1 4 1 4 9 3 2 4 3 3 2 3 2 5 5 4 5 3 6 4 4 1 1 5 11 15 12 10 8
11 4 6 14 8 3 4 4 4 6 4 4 3 3 3 4 4 3 1 4 4 5 5 7 3 4 1 3 3 4 6 9 7 4 4 5 3 4 5 6 7 9 8 7 6
12 5 11 6 8 6 4 7 5 5 4 7 2 2 3 1 2 2 2 4 5 10 4 1 4 2 8 10 7 5 6 11 11 8 8 5 7 7 6 5 4 5 2 5 10
11 6 8 8 7 10 5 7 7 4 5 3 5 4 3 4 6 4 2 2 1 4 2 3 2 1 5 3 10 14 10 7 11 10 15 7 13 3 10 6 4 6 9 11 13
10 12 9 5 4 6 5 6 7 9 5 5 8 4 3 3 4 5 7 4 3 3 1 1 1 2 4 5 5 8 15 14 9 9 14 15 18 2 7 9 11 14 14 11 11

GFSSW_850_spd_099.txt.gz
Wind_Speed
21 19 15 13 16 13 10 16 13 15 15 13 13 14 14 16 14 16 19 15 17 15 13 5 14 11 13 12 23 13 5 13 7 15 7 9 5 7 5 15 6 13 14 29 36
21 21 18 15 13 16 11 11 13 13 14 11 12 11 13 16 10 19 19 17 14 9 7 3 14 13 7 11 9 8 3 3 5 2 5 7 9 19 5 6 4 10 16 37 36
21 21 20 17 14 14 10 10 11 13 10 9 10 12 13 15 4 16 18 15 7 4 4 10 2 15 7 10 5 7 7 2 5 7 4 6 6 4 17 1 11 22 31 36 38
20 22 20 18 16 12 9 8 10 9 8 7 9 14 11 11 2 18 17 11 7 4 3 7 2 7 4 6 13 8 12 3 3 10 7 4 6 7 2 7 20 25 31 33 37
21 20 19 18 16 11 6 7 7 6 5 4 7 13 12 9 10 19 13 7 5 3 4 5 14 7 5 7 2 11 15 6 8 16 25 12 8 7 6 12 16 29 33 35 35
21 20 18 16 14 9 4 6 4 3 3 5 7 7 14 7 16 14 10 5 3 5 10 7 7 8 4 9 10 9 12 16 10 17 19 8 5 3 5 11 16 23 30 34 31
19 19 17 15 13 7 2 4 1 1 1 4 6 7 7 10 11 13 8 4 1 3 6 5 7 8 4 12 14 6 5 8 18 13 8 15 6 6 7 9 12 15 20 25 28
19 18 17 14 11 6 1 4 0 2 1 3 5 3 2 8 9 10 9 8 4 4 6 7 2 5 4 18 9 4 5 4 12 12 8 10 3 4 9 8 5 4 11 20 23
19 17 15 13 10 7 6 4 2 4 2 1 3 1 4 3 9 9 10 10 6 3 4 4 3 3 3 5 3 1 4 6 7 10 6 9 3 7 8 6 7 4 5 14 20
19 17 14 12 8 7 7 7 6 4 5 4 2 2 4 2 6 8 7 10 6 5 5 2 1 3 3 3 3 4 5 5 6 2 5 8 8 10 11 7 6 8 6 9 14
19 17 13 11 8 7 7 6 5 3 5 3 3 3 2 4 3 8 5 5 6 5 4 7 6 4 3 4 2 5 6 10 8 8 3 4 5 16 13 16 14 14 15 13 14
21 16 12 9 8 7 7 5 5 3 1 1 2 2 3 2 1 7 7 3 6 2 6 6 3 2 5 3 3 5 6 3 6 14 5 10 8 10 12 13 17 17 21 17 22
22 16 12 8 7 8 8 6 5 2 1 3 3 1 1 1 1 4 6 3 3 4 4 3 4 5 5 3 3 2 2 1 4 10 2 8 4 7 9 20 25 26 28 27 26
23 15 12 8 7 10 9 9 6 1 4 3 3 1 1 1 1 1 3 2 2 2 0 0 4 2 2 2 1 1 3 5 8 7 3 3 3 4 10 12 14 25 31 30 25
19 15 12 13 5 9 6 11 7 2 3 2 3 2 2 2 1 1 0 1 2 0 4 4 1 1 2 2 1 3 4 5 6 4 5 2 1 6 1 11 17 19 28 33 29
22 15 13 17 11 9 8 11 6 5 5 2 3 3 2 2 1 1 2 1 1 1 2 3 3 3 3 2 1 1 5 7 5 3 2 6 5 4 5 8 6 12 29 35 33
24 14 15 14 10 12 13 14 4 3 3 3 5 4 3 4 2 3 2 2 4 3 3 5 3 3 3 1 3 3 5 2 1 3 4 3 4 7 4 6 7 9 23 20 32
17 15 18 15 10 14 22 4 2 3 5 2 3 4 4 5 3 1 1 2 4 3 3 3 5 6 4 5 5 4 6 4 6 3 2 2 6 6 6 7 15 17 18 22 21
15 15 19 15 13 21 11 2 6 5 5 8 3 3 2 3 3 3 4 4 5 9 6 4 5 2 2 1 4 4 3 6 3 1 3 4 6 8 9 7 3 9 10 7 7
19 22 16 15 18 19 3 5 4 3 3 3 3 4 5 3 4 4 3 3 3 9 5 3 3 2 3 3 1 4 6 4 0 4 4 3 4 5 3 6 2 4 8 6 6
22 9 12 17 21 9 3 6 4 4 4 4 6 4 4 4 6 4 4 1 2 3 5 3 1 3 0 5 7 3 2 2 4 2 4 2 5 6 7 5 8 8 9 6 3
18 3 22 25 6 4 3 5 4 4 2 2 3 2 4 4 3 3 4 1 9 1 4 3 3 4 8 3 1 2 2 4 3 4 1 3 5 4 5 7 9 7 6 6 5
12 5 24 27 4 3 4 3 4 3 3 2 3 3 3 4 2 4 4 3 11 4 2 1 1 2 7 2 1 3 4 7 3 2 5 4 5 3 5 4 8 12 11 9 8
12 4 7 17 4 2 4 4 3 3 3 4 3 3 3 1 2 1 3 4 4 6 8 2 3 5 5 1 2 6 3 10 11 3 5 9 3 3 2 2 2 3 6 7 6
12 6 11 6 10 7 4 6 5 5 2 6 2 3 5 4 1 2 2 3 4 7 5 2 6 6 9 9 8 9 8 9 12 11 8 4 8 6 6 5 5 5 3 1 4
9 6 9 6 15 13 4 6 8 4 5 3 4 4 4 5 5 6 4 3 1 5 3 3 2 2 5 7 7 12 9 10 12 6 13 5 6 5 1 9 6 9 5 8 13
15 10 9 7 5 9 5 5 8 10 4 2 7 5 2 1 4 6 4 5 4 4 1 2 3 2 4 4 2 3 8 11 9 10 7 10 10 3 2 8 10 13 14 14 13

GFSSW_850_spd_102.txt.gz
Wind_Speed
23 25 20 21 17 16 16 13 11 16 16 17 14 13 13 14 15 13 14 15 18 13 13 2 13 12 10 8 7 4 1 4 11 6 7 5 6 11 15 25 15 30 25 17 27
22 23 24 18 19 16 16 12 13 14 15 14 12 11 13 13 10 11 15 16 15 8 7 7 12 12 5 3 3 3 4 6 6 9 6 5 8 17 10 13 18 25 18 18 28
23 23 22 20 18 15 16 12 13 13 14 11 8 12 10 11 2 12 15 15 12 8 10 9 8 10 4 5 4 6 5 3 11 7 18 5 3 6 18 5 17 32 33 35 29
24 23 22 20 19 16 14 11 13 10 10 8 6 11 9 7 1 16 13 12 11 6 7 7 4 3 4 6 6 5 6 23 5 9 7 4 5 4 6 1 24 35 37 42 43
24 22 22 19 17 14 12 11 10 9 7 7 7 8 9 3 7 12 12 8 10 3 7 12 4 3 4 5 8 4 5 18 19 17 9 10 3 6 7 5 24 33 38 32 34
25 23 20 19 17 13 9 10 8 7 5 7 7 8 6 2 8 12 10 9 7 4 7 6 1 7 10 5 5 7 15 22 19 11 17 5 5 3 6 4 25 39 39 35 31
24 21 20 19 17 12 8 8 7 6 6 8 10 9 6 2 7 10 10 9 6 6 1 3 1 5 14 3 14 4 5 14 10 14 7 16 6 6 14 4 16 23 25 30 38
24 21 18 19 16 11 7 6 7 7 7 9 9 8 6 3 5 7 7 7 6 4 5 5 4 6 6 21 8 5 5 6 12 17 6 7 4 6 15 8 10 10 22 29 34
26 25 16 19 17 12 8 5 5 7 6 6 8 7 8 3 4 6 8 7 3 3 4 5 2 4 6 6 6 4 2 3 9 13 6 9 3 5 14 11 11 10 3 22 28
31 26 17 14 16 12 8 11 5 7 8 12 10 7 5 4 7 6 6 6 2 3 3 3 3 3 3 5 3 5 2 5 5 7 10 10 8 8 14 15 9 8 7 2 25
27 28 19 12 14 12 8 7 7 5 3 4 4 6 9 6 7 6 7 2 2 4 4 7 6 4 4 1 2 2 4 4 4 5 7 7 8 8 12 17 14 9 5 2 8
19 29 19 8 14 11 8 7 6 2 3 6 5 7 6 7 5 7 9 3 4 3 3 6 3 1 5 4 2 3 5 4 8 13 7 10 6 9 5 7 13 18 16 8 6
18 24 21 9 14 12 9 9 5 2 1 5 5 6 4 4 4 7 9 5 4 3 4 5 3 3 1 1 3 1 4 4 4 8 1 7 3 6 6 9 23 25 24 19 15
23 25 17 7 11 10 11 9 5 2 4 4 3 2 2 2 3 4 6 5 4 3 2 2 1 1 0 2 2 1 3 2 7 4 0 3 1 5 10 9 13 25 28 28 22
18 23 18 11 6 8 5 10 6 2 3 2 3 2 1 1 3 3 4 4 2 4 5 2 2 1 2 2 2 2 2 5 4 3 2 2 0 4 9 10 21 18 23 33 28
20 21 17 9 17 6 4 10 6 5 6 2 3 1 1 0 0 2 3 3 2 3 4 3 2 3 2 2 2 4 5 7 5 2 2 6 4 3 5 13 12 20 25 29 26
22 23 18 8 10 8 10 10 3 3 3 3 4 4 2 2 1 1 1 3 1 4 4 7 3 2 2 1 2 3 4 1 0 2 3 3 4 7 4 5 6 9 22 27 26
19 23 13 11 10 12 16 1 2 3 5 2 3 4 4 5 2 2 1 2 3 2 2 1 7 2 1 4 4 3 6 4 5 3 2 1 6 6 5 7 11 17 11 11 15
15 16 14 14 11 16 9 2 5 5 5 8 3 3 3 2 1 2 3 3 5 7 5 3 5 2 2 2 1 2 2 3 6 2 2 4 6 8 8 9 7 10 10 10 10
14 12 11 16 15 19 2 4 4 3 4 2 3 3 5 4 4 3 2 2 2 7 1 2 3 1 5 2 2 3 5 3 2 3 4 3 4 5 4 5 3 5 4 4 0
17 7 13 17 19 11 3 5 5 6 4 3 4 4 3 5 6 4 3 1 3 1 6 3 2 5 3 4 6 2 2 1 3 3 4 1 5 5 5 5 5 7 4 3 3
11 2 21 25 8 4 3 4 4 3 2 2 4 3 6 6 4 4 4 1 9 1 3 3 3 4 7 2 1 2 3 4 3 3 2 3 5 2 4 7 9 3 7 5 4
11 4 22 31 4 4 3 4 4 3 3 3 2 2 2 5 2 4 4 2 10 4 2 3 2 3 9 0 3 3 4 7 1 2 5 4 5 2 3 6 8 7 7 7 6
10 3 7 19 3 2 3 4 3 2 3 4 3 3 3 1 2 3 2 4 4 5 7 2 3 5 5 5 2 3 3 6 7 2 3 8 2 3 6 5 4 8 7 7 7
9 3 7 5 9 5 2 3 4 4 1 3 2 3 5 3 1 3 2 1 6 7 5 3 1 1 9 10 8 6 8 6 6 4 4 1 8 7 3 3 2 2 7 6 4
9 5 7 5 8 12 4 4 7 2 4 2 3 4 4 5 4 5 4 1 2 5 3 4 1 2 4 7 9 10 8 11 13 8 10 8 6 5 5 3 5 5 2 0 7
14 9 9 6 5 9 5 4 7 8 2 2 6 5 4 3 7 8 9 8 5 4 2 3 1 3 4 5 2 3 6 8 3 4 4 9 3 4 11 5 5 5 11 15 17

GFSSW_850_spd_105.txt.gz
Wind_Speed
28 26 25 24 24 19 14 17 15 12 15 14 14 12 13 15 16 6 13 14 18 18 15 16 8 13 12 9 11 8 5 2 13 6 8 11 16 16 7 18 13 26 28 34 19
25 26 24 24 24 21 18 15 15 14 13 14 11 11 14 16 14 6 11 14 17 15 15 3 10 16 8 4 6 2 4 2 10 8 5 10 10 14 6 8 6 19 24 32 12
26 27 24 23 23 21 19 14 14 15 11 11 9 12 14 12 6 7 11 13 13 15 10 2 8 13 5 6 3 4 4 5 10 15 15 14 12 5 10 11 16 25 22 40 17
24 24 24 22 21 21 18 14 13 12 10 9 9 12 14 8 2 12 13 12 12 12 3 4 4 10 4 4 3 3 8 7 17 19 10 22 10 6 16 6 27 38 28 38 45
33 27 24 21 20 22 18 14 13 9 8 7 10 13 14 6 5 11 13 13 9 8 2 4 4 1 4 5 5 1 4 9 19 20 18 23 17 7 4 2 24 32 24 34 25
24 30 29 19 16 21 18 12 13 9 7 8 10 14 10 4 6 9 13 12 9 7 4 5 3 5 9 5 2 5 9 16 17 24 30 14 16 3 5 6 27 38 33 32 33
22 26 31 22 15 16 19 12 12 8 7 7 11 14 12 7 5 9 11 10 8 5 3 3 2 1 10 5 13 9 3 11 10 21 10 3 11 4 15 8 28 36 40 37 35
16 21 27 26 14 16 14 12 11 8 7 8 11 12 7 4 5 7 7 6 4 5 4 4 3 5 1 14 6 5 6 5 5 17 16 13 11 4 16 9 11 22 28 30 28
15 14 26 28 19 15 14 11 9 8 7 7 9 7 7 4 4 6 9 6 4 4 5 5 2 5 8 3 3 1 3 3 8 11 13 7 4 4 12 15 12 9 15 29 32
13 14 17 28 24 16 14 9 11 13 10 9 11 6 3 4 4 5 6 7 4 4 4 3 2 1 2 1 4 7 6 5 4 3 13 11 4 5 8 12 9 9 7 21 27
12 17 20 24 21 14 12 9 4 7 9 7 4 6 6 6 5 3 7 7 5 2 1 3 3 3 3 2 3 4 9 4 3 5 8 7 11 7 7 5 6 6 7 6 18
16 19 20 22 21 12 9 4 1 7 8 11 8 8 6 5 2 1 5 1 3 1 5 5 2 2 4 3 3 3 7 3 1 8 8 5 14 8 3 3 0 3 2 3 10
17 22 14 18 15 12 7 8 5 6 5 4 8 5 4 3 2 1 5 1 2 2 3 3 1 3 1 2 4 1 4 5 5 7 0 2 7 5 1 3 6 6 7 8 7
18 15 10 11 6 7 7 4 3 2 3 3 3 1 3 2 2 1 4 2 1 1 1 1 4 2 2 0 3 2 1 4 8 8 1 2 2 4 4 6 3 10 14 14 12
19 10 19 17 5 1 3 5 4 2 3 0 2 3 2 2 1 2 3 1 2 2 4 2 3 2 1 2 1 3 2 6 4 2 3 3 1 5 5 5 8 12 19 24 19
20 13 11 15 11 6 3 8 3 4 6 0 2 2 2 1 1 2 1 2 1 3 3 2 2 2 2 2 2 4 5 6 4 2 1 5 5 4 6 5 5 5 20 24 27
25 10 12 21 10 11 9 8 3 3 3 2 3 2 2 2 2 2 2 3 2 4 5 5 1 4 2 2 2 1 3 1 2 2 3 3 4 6 5 4 6 7 12 21 22
22 16 20 17 12 15 15 3 3 3 4 2 2 2 2 4 2 2 2 4 2 3 3 3 5 1 2 2 2 4 3 4 5 4 2 2 6 5 6 8 13 13 16 5 17
4 18 21 18 16 19 12 2 3 4 2 5 3 2 2 0 2 2 1 1 2 5 3 2 4 1 3 2 3 1 4 2 5 2 1 3 4 10 5 7 8 8 7 6 6
9 8 8 19 17 20 3 3 3 3 2 1 1 2 4 2 1 2 0 0 3 4 1 2 3 0 3 1 2 3 1 2 2 4 3 3 4 5 5 6 5 3 3 7 8
7 3 6 19 22 14 2 3 4 8 4 3 4 2 2 3 4 2 1 2 4 3 4 3 1 5 2 1 3 1 2 1 1 2 3 2 4 4 4 4 6 4 3 4 7
6 2 16 22 5 4 3 3 3 4 4 1 2 2 5 4 3 3 3 1 8 3 2 2 2 4 6 2 2 3 1 2 3 4 1 2 4 2 4 6 6 4 8 6 7
4 2 19 23 3 3 3 2 3 2 3 2 2 1 1 4 2 2 3 2 10 4 2 3 2 3 9 3 3 3 1 3 6 3 4 5 3 3 5 5 10 3 8 7 6
3 2 5 15 1 4 4 4 2 4 2 2 2 2 3 2 4 4 2 4 4 5 6 1 2 5 6 5 2 4 3 1 2 3 3 2 3 2 6 6 8 6 7 12 11
4 3 5 4 3 4 3 1 2 3 0 3 1 2 4 3 2 2 1 2 5 7 5 4 2 2 4 6 4 11 13 8 1 2 3 1 3 8 7 6 2 4 4 10 13
4 3 4 4 10 5 2 2 4 2 3 3 2 3 2 3 3 6 4 1 1 5 3 5 1 2 4 4 5 5 9 8 8 7 10 9 8 8 8 9 6 2 9 6 7
22 9 4 8 5 6 4 4 2 5 2 3 3 4 4 3 8 10 10 9 5 4 2 2 2 3 4 6 4 3 4 3 2 2 3 3 2 5 8 6 12 10 10 10 13

GFSSW_850_spd_108.txt.gz
Wind_Speed
26 25 24 25 22 20 20 17 15 15 13 12 14 12 13 17 19 16 12 10 16 16 17 19 14 9 13 13 17 12 8 14 10 14 9 16 20 29 17 20 20 30 15 25 50
24 27 22 25 20 20 18 19 15 14 13 10 11 10 14 19 18 11 10 10 16 16 19 10 3 9 9 11 10 8 10 10 4 8 11 15 15 29 27 19 17 22 8 25 38
22 25 24 28 21 19 18 17 18 12 11 9 9 10 14 18 11 4 9 10 10 14 11 3 3 11 6 7 9 6 9 11 7 12 17 21 23 18 27 20 23 27 22 27 32
23 20 24 26 23 18 19 15 16 12 10 7 7 11 14 13 4 6 12 13 11 11 7 6 5 10 5 7 7 7 6 3 4 11 22 11 28 20 30 32 17 26 29 29 34
21 19 20 23 24 20 16 13 11 10 9 7 7 11 14 6 8 9 11 12 9 9 4 3 5 5 8 7 8 5 6 3 7 11 19 20 21 16 18 19 14 22 22 24 28
16 16 17 19 21 19 17 13 10 8 9 8 7 10 11 6 7 9 11 9 6 4 3 4 3 3 2 4 9 8 8 8 15 20 17 18 17 19 12 13 18 20 24 23 25
16 12 13 24 20 20 20 12 10 7 7 9 7 9 14 11 7 8 10 6 4 3 4 2 2 3 3 4 4 8 7 4 10 10 8 27 11 14 19 18 18 22 22 24 29
20 13 15 15 21 20 20 13 9 7 7 10 7 7 8 6 7 8 10 6 3 4 4 4 2 2 3 3 4 5 4 4 3 11 7 7 11 16 9 12 15 27 27 26 30
21 12 14 12 19 18 19 13 9 7 5 9 7 4 9 5 7 7 9 8 8 5 5 3 1 1 6 5 4 6 4 6 5 5 4 7 13 4 5 3 5 18 22 24 29
22 15 13 18 16 18 17 10 8 10 10 11 8 6 7 3 7 7 9 9 5 7 4 4 3 2 3 5 2 6 6 7 9 4 3 5 10 6 2 1 8 11 14 17 25
25 21 12 18 17 16 13 6 3 2 11 8 5 4 7 5 5 4 8 7 6 1 3 1 4 4 5 6 8 4 6 8 2 6 1 2 10 15 2 5 5 10 9 19 19
26 19 19 15 10 14 11 6 5 3 6 8 11 10 7 3 2 5 7 3 2 2 3 4 4 2 6 6 3 3 5 5 2 0 4 1 12 13 3 5 7 10 10 15 24
25 15 14 12 9 12 7 5 4 3 4 1 8 5 4 5 2 3 4 2 2 2 2 5 1 5 6 3 2 1 2 4 1 3 7 6 6 3 4 6 6 7 12 11 18
25 19 10 13 11 5 1 5 4 2 1 3 4 2 4 4 1 2 2 2 3 2 2 4 3 3 5 5 5 2 2 4 6 7 2 1 1 10 9 9 9 15 15 16 17
23 20 14 9 8 3 3 7 6 2 1 3 3 4 3 2 3 2 2 2 2 1 2 1 2 2 5 4 5 3 3 3 6 2 3 4 5 8 10 7 11 13 15 16 16
22 19 14 13 16 7 8 9 4 2 2 2 2 3 3 1 2 0 3 1 0 1 3 4 2 3 4 5 2 2 4 5 4 3 4 4 5 5 8 14 15 12 12 17 18
21 20 14 12 19 12 13 11 2 1 0 2 2 3 2 2 1 1 0 2 2 2 2 2 3 3 2 5 3 6 6 3 4 3 3 2 5 7 3 4 4 6 15 13 15
19 22 14 16 18 17 16 3 3 1 3 1 2 4 3 5 1 1 2 1 0 1 1 3 1 2 2 2 3 8 4 3 5 4 2 2 4 1 6 2 6 6 9 9 13
13 2 11 14 16 18 9 2 3 3 1 3 3 4 4 3 1 2 0 1 1 3 3 3 1 2 3 4 2 1 6 3 1 1 3 2 4 9 5 2 2 4 6 7 8
8 5 7 17 16 16 3 2 3 4 2 2 1 2 3 4 4 3 1 2 2 2 3 1 4 1 2 2 2 3 2 2 3 5 5 3 4 5 10 10 7 6 2 4 2
6 3 3 20 16 7 2 3 2 3 5 3 0 2 1 2 3 2 2 2 4 2 2 0 2 1 3 2 5 1 3 3 2 4 2 3 3 5 7 8 8 5 5 4 3
2 2 2 12 3 2 2 3 2 2 4 2 1 0 2 4 3 2 2 3 7 2 1 2 2 3 5 3 4 1 3 5 4 3 0 6 4 8 9 8 7 4 6 5 4
3 3 8 17 2 3 1 2 2 1 3 1 1 1 1 3 1 1 2 2 7 3 2 2 1 3 1 3 6 4 4 2 4 3 4 3 4 6 10 12 12 8 6 6 7
4 1 4 12 5 2 4 4 2 1 2 2 2 2 2 2 2 3 3 3 3 4 6 0 2 2 5 4 3 5 5 4 4 2 5 3 1 2 12 11 10 9 9 9 10
2 1 1 3 3 3 4 3 1 3 2 1 1 2 2 2 2 2 2 2 4 5 3 2 1 2 6 6 8 9 9 7 5 6 3 4 7 10 9 11 9 5 6 8 12
1 3 2 1 7 3 1 1 1 2 1 1 2 3 1 1 2 2 3 1 2 3 3 3 1 0 2 5 4 4 6 8 10 10 10 10 12 11 17 10 10 5 4 6 11
5 9 9 3 4 3 2 2 2 2 3 5 1 3 3 4 7 9 9 9 4 1 2 2 2 2 3 7 2 2 4 2 0 0 4 4 5 9 12 10 10 11 8 12 12

GFSSW_850_spd_111.txt.gz
Wind_Speed
18 19 20 23 21 22 19 19 18 13 14 14 11 13 12 14 19 14 12 8 12 18 16 14 15 15 11 13 20 15 9 15 25 23 23 6 13 27 34 24 42 25 37 22 31
25 18 19 22 23 22 20 18 17 13 12 12 11 11 11 15 17 12 8 8 9 14 12 13 6 6 9 14 11 11 12 21 15 6 9 8 13 20 23 31 33 21 26 16 35
20 19 19 17 22 22 21 18 16 12 10 11 11 9 12 14 12 3 8 9 12 12 12 8 6 6 11 11 18 13 14 18 10 4 8 14 17 27 19 25 27 20 20 25 26
22 17 19 22 22 18 20 19 15 12 9 10 9 9 10 6 4 4 9 11 9 7 9 7 7 11 10 10 16 8 22 11 6 2 3 6 22 18 29 36 23 18 48 24 31
23 19 16 17 17 18 19 18 15 12 8 9 9 9 9 7 10 5 9 10 7 5 6 5 9 12 12 12 12 16 7 4 4 6 3 10 19 21 26 22 27 32 48 29 28
23 21 14 17 19 17 18 18 16 11 9 9 9 9 8 9 3 4 8 7 4 5 4 6 6 10 14 9 11 6 7 7 5 7 4 5 20 13 22 23 17 25 38 27 30
24 23 12 15 14 20 16 17 14 11 9 9 8 9 12 15 4 5 6 7 6 3 6 8 8 5 6 2 6 5 8 8 5 2 5 10 12 17 25 21 16 21 16 18 22
25 24 19 13 11 18 17 15 13 9 9 8 8 5 10 9 7 6 5 7 5 6 6 7 8 10 8 3 5 8 12 10 12 6 4 5 12 12 17 19 18 18 18 22 20
26 26 25 17 16 15 18 15 12 10 8 5 7 5 10 6 5 5 4 5 9 6 8 8 7 5 4 4 6 11 8 12 8 9 6 5 9 6 14 19 16 14 20 24 21
26 26 25 20 18 18 16 12 9 10 10 6 6 5 9 1 4 6 4 7 4 4 6 8 5 5 4 5 3 9 16 12 17 7 3 6 11 7 18 13 14 13 26 25 24
25 26 21 19 20 20 15 4 2 3 12 10 3 4 4 5 5 3 3 6 7 6 9 7 6 8 4 8 13 11 12 13 2 5 5 9 7 7 12 8 11 14 15 22 23
22 25 20 17 13 7 12 5 7 3 7 13 12 10 7 4 2 3 3 3 6 9 5 5 9 5 7 12 10 9 9 6 3 1 4 7 10 11 8 9 11 13 17 20 19
22 23 20 16 16 12 10 8 7 4 4 2 7 6 4 4 2 1 4 3 8 10 10 10 7 7 7 12 9 5 10 3 9 3 8 9 15 10 8 10 9 10 14 24 27
23 20 19 14 13 9 6 6 6 3 2 5 4 4 3 2 3 2 2 2 3 7 6 9 5 6 9 11 8 14 4 7 5 7 3 2 4 13 12 14 13 14 16 18 20
23 17 15 11 11 14 4 4 5 2 3 3 4 4 4 3 1 3 1 2 8 7 4 3 7 8 10 8 7 6 9 9 9 9 8 4 5 9 12 13 15 14 15 15 15
18 14 12 9 14 14 7 8 2 2 3 3 4 5 5 3 2 2 1 2 4 7 7 10 6 5 8 11 9 11 10 7 6 4 4 3 2 9 8 12 13 15 20 18 19
17 10 13 11 10 10 7 4 3 3 3 4 3 4 4 5 4 2 2 4 4 4 1 5 3 4 5 9 8 9 9 3 3 3 2 5 4 6 6 4 5 10 14 16 19
8 13 16 17 16 9 11 4 5 3 2 2 3 6 2 6 2 4 3 2 3 6 5 5 0 6 8 6 7 10 9 5 4 2 1 3 1 4 3 6 5 2 1 8 12
14 11 5 6 7 14 7 4 4 2 2 4 5 3 4 4 1 3 1 3 5 6 6 5 2 3 4 8 6 4 4 8 6 3 3 4 4 9 13 7 1 2 2 2 4
11 10 6 7 16 15 3 3 2 2 1 1 4 2 2 4 2 1 1 4 3 5 5 5 5 2 5 7 1 4 1 2 1 3 4 5 1 8 12 10 7 5 3 6 2
6 4 4 9 12 5 1 3 3 3 2 4 4 2 3 2 1 2 4 3 5 5 4 6 2 3 6 6 9 4 3 4 1 4 3 2 6 8 10 9 8 5 8 9 8
6 2 5 12 3 2 0 3 4 3 1 2 2 4 4 2 2 2 2 5 7 5 6 6 5 5 9 6 5 6 5 4 3 4 2 3 4 9 13 11 7 8 9 8 10
5 4 4 6 2 2 2 3 3 3 0 2 3 3 2 2 1 2 2 3 7 4 5 7 1 4 4 3 8 4 5 6 1 2 3 4 3 12 15 15 14 11 12 13 13
5 2 5 0 7 2 1 2 2 2 1 3 3 1 0 1 2 2 3 2 3 3 5 3 1 2 5 6 4 7 8 7 5 2 6 4 3 12 14 16 14 13 12 13 14
6 4 5 1 2 3 3 3 2 2 2 2 2 2 4 1 0 1 1 3 3 1 1 1 0 3 5 5 5 8 8 8 1 5 2 6 10 11 12 11 12 10 10 13 16
4 5 9 6 3 3 2 4 4 2 6 4 2 4 2 3 5 4 1 2 3 2 2 3 1 1 1 5 4 1 4 5 6 8 8 9 9 8 12 12 9 8 6 9 14
3 4 3 5 2 2 3 4 6 3 4 6 4 1 4 5 7 7 7 7 4 2 2 1 2 2 3 4 2 2 2 0 2 2 3 6 6 12 12 11 11 12 10 8 11

GFSSW_850_spd_114.txt.gz
Wind_Speed
22 21 19 19 23 22 22 21 20 18 15 14 13 10 11 12 15 10 11 8 12 13 15 9 12 15 13 11 19 15 4 8 20 20 22 24 4 21 22 19 33 32 24 36 22
22 19 16 18 17 23 21 22 17 18 15 14 12 10 10 12 17 12 8 9 6 8 8 8 7 4 6 8 7 8 5 14 15 17 18 11 11 22 12 15 28 33 35 32 30
23 23 20 18 20 21 21 20 19 18 15 13 12 8 11 13 13 4 5 6 6 8 4 7 8 6 12 13 13 12 14 14 16 20 12 3 11 9 7 17 28 31 37 24 31
23 23 24 19 20 18 21 20 18 16 15 13 12 9 9 9 3 5 8 7 5 3 4 6 9 9 6 8 18 15 19 23 21 16 7 9 7 6 12 21 31 38 32 29 28
24 25 26 14 14 14 20 20 13 15 13 12 11 9 9 5 12 8 6 6 3 0 3 5 8 7 8 8 18 14 17 13 11 12 10 7 9 9 23 32 26 31 39 36 23
25 25 25 20 13 12 22 15 16 16 13 12 9 8 7 8 3 2 4 4 1 3 2 3 5 7 8 11 11 7 16 17 10 14 14 13 10 9 24 26 28 30 29 26 25
25 27 27 24 18 13 13 21 13 13 12 10 8 8 12 19 4 6 6 5 6 2 2 2 6 4 5 7 9 10 9 10 12 18 9 17 8 14 34 17 15 25 17 24 20
24 25 28 26 21 16 14 14 14 12 12 8 7 3 9 5 8 10 5 5 4 3 6 4 5 7 4 10 5 5 7 7 10 14 6 6 11 6 8 17 19 17 26 24 12
24 26 26 26 22 17 18 16 17 12 11 7 4 4 9 5 7 4 6 4 4 7 8 8 10 3 7 3 4 7 5 12 11 14 3 6 8 3 5 6 8 17 26 19 21
24 24 24 24 21 20 14 15 15 10 5 5 6 6 10 1 4 6 6 5 2 2 6 6 5 4 5 3 3 6 7 13 9 11 10 11 15 11 8 7 12 24 25 27 26
25 22 21 20 17 14 8 9 3 2 12 10 6 5 2 5 8 2 5 5 8 7 7 10 5 7 12 13 10 14 14 15 11 9 5 13 14 5 8 8 17 23 25 26 24
23 22 18 18 15 15 7 6 3 2 5 16 18 13 10 7 5 5 2 5 5 8 9 5 8 7 8 9 13 14 17 12 4 9 3 10 12 2 9 11 16 16 14 22 32
23 21 17 16 14 13 6 10 4 2 3 4 10 11 6 5 3 2 2 1 5 7 9 8 9 8 8 9 12 13 12 10 9 1 7 9 9 6 9 14 17 10 9 21 26
22 18 14 11 7 4 3 3 3 2 2 6 5 4 3 2 2 2 2 2 3 3 6 6 6 8 8 10 8 10 4 14 11 9 3 7 5 3 7 9 6 8 12 23 27
17 15 10 3 6 4 3 3 4 2 3 4 4 2 3 4 1 2 2 2 4 10 5 6 4 8 10 7 9 6 12 13 10 8 7 4 2 10 5 8 7 7 11 12 26
14 12 9 2 4 5 3 4 3 2 1 2 4 5 5 4 2 1 0 1 4 4 7 9 9 1 5 12 10 12 12 12 8 2 1 5 3 6 4 4 6 8 16 15 19
14 8 2 4 1 3 3 3 2 2 3 2 4 5 5 5 3 2 1 3 3 4 4 5 1 2 3 10 9 5 6 3 2 1 3 3 2 4 8 3 4 14 8 19 17
15 15 10 5 5 3 7 3 2 4 4 1 4 5 3 5 3 2 3 1 4 5 5 2 3 7 8 7 7 9 3 2 2 3 2 4 5 6 8 11 13 12 14 12 12
14 14 13 10 5 5 1 2 5 4 2 3 5 4 4 2 2 4 4 5 6 7 5 6 4 2 3 5 5 6 4 3 4 3 1 5 6 9 14 15 10 13 3 12 11
16 11 20 9 6 12 2 5 4 6 4 3 2 5 8 4 2 4 2 5 5 6 7 5 4 5 6 5 3 5 5 4 3 5 3 8 7 6 12 10 11 13 17 13 12
10 6 13 11 14 2 2 3 6 10 8 8 8 4 6 4 5 3 5 7 8 8 9 7 3 6 4 6 7 5 4 3 2 1 3 2 2 7 8 8 8 10 19 17 14
12 3 10 8 4 4 4 4 7 8 5 3 4 7 7 5 5 3 5 6 11 8 6 6 3 3 6 6 7 9 6 3 2 4 2 2 1 10 8 8 12 13 18 15 15
6 6 9 11 3 3 4 4 4 9 9 6 6 6 5 5 2 6 6 5 11 6 5 6 3 3 3 3 8 5 7 7 2 2 3 1 0 10 9 10 18 18 22 21 21
5 3 7 10 5 5 5 6 5 5 5 5 3 3 1 5 5 3 5 4 6 7 6 6 2 3 2 4 3 2 7 7 4 2 4 5 5 10 10 8 13 20 21 23 24
6 3 4 3 4 6 7 6 7 6 6 7 3 7 6 4 3 4 3 4 4 4 2 3 2 4 5 3 4 3 4 4 3 4 2 6 6 9 10 10 14 16 17 21 22
6 3 3 4 6 7 3 5 8 7 9 5 7 6 10 5 5 5 5 5 5 1 3 5 1 3 3 3 5 2 2 2 3 5 1 5 1 9 14 15 18 20 21 19 21
4 8 6 3 2 3 3 5 7 7 4 7 8 4 7 5 7 6 9 9 4 3 3 2 2 1 0 1 3 4 2 1 2 2 2 2 4 7 6 9 13 17 17 20 19

GFSSW_850_spd_117.txt.gz
Wind_Speed
20 20 19 17 15 14 15 15 14 15 15 14 13 11 11 11 13 12 13 5 9 12 12 6 3 6 12 9 15 9 5 11 17 15 23 23 15 25 25 12 29 18 24 33 36
21 22 21 22 16 17 17 19 17 14 14 14 12 10 11 10 16 18 7 9 12 12 9 5 6 3 10 8 8 8 5 13 7 10 13 19 16 13 4 15 25 15 27 34 39
21 19 23 22 10 16 22 17 17 16 12 13 11 9 9 10 13 2 5 11 9 8 6 7 7 6 8 10 9 8 8 13 18 19 22 16 14 5 4 8 26 22 32 32 32
21 23 22 23 17 10 15 18 14 19 9 11 9 8 7 8 3 5 4 5 4 5 8 7 7 4 6 7 16 11 16 20 23 26 23 12 21 7 15 22 27 25 31 37 32
23 24 24 24 20 10 9 9 14 11 8 8 8 8 4 4 9 7 4 3 0 5 7 4 10 12 5 4 6 11 15 22 27 26 29 27 22 25 29 44 34 37 33 24 33
22 22 23 24 22 17 11 12 12 10 9 9 6 6 4 5 5 3 3 2 2 3 3 7 5 4 9 6 6 9 13 20 26 25 16 16 22 13 31 39 37 35 29 28 31
23 21 22 24 22 19 13 9 7 15 12 7 6 5 9 17 11 9 5 2 7 5 6 7 5 4 3 6 14 17 12 11 11 16 10 12 20 23 47 33 28 28 24 24 20
25 22 20 23 22 20 14 15 9 12 8 5 5 3 8 2 7 13 7 4 10 6 6 7 5 5 5 8 7 4 3 2 3 12 8 11 23 16 14 10 17 16 22 25 21
26 24 20 20 19 17 16 13 15 11 6 3 3 3 8 3 7 3 6 8 7 8 8 8 7 4 4 2 3 3 4 5 11 9 8 12 11 12 19 11 11 18 18 17 15
26 25 20 17 16 16 14 5 7 10 2 6 6 2 8 2 2 6 8 9 6 4 8 6 4 1 2 2 3 5 7 8 11 6 16 10 20 20 24 14 12 17 19 14 10
26 23 19 15 15 15 12 2 3 2 10 8 8 4 7 4 6 2 6 5 7 6 5 6 2 6 7 9 15 14 12 15 16 9 5 17 19 19 15 12 5 17 19 15 19
24 20 16 11 10 14 7 2 4 1 2 9 13 12 8 9 3 5 5 4 6 6 4 3 7 10 10 8 10 8 11 12 7 6 5 9 16 16 7 5 10 13 16 11 22
19 15 10 8 7 7 3 4 3 4 0 2 4 7 7 6 3 9 3 2 5 4 7 3 6 5 6 7 9 6 5 7 14 10 9 6 8 8 1 4 9 16 11 21 28
18 10 8 4 3 1 5 3 5 5 2 2 1 1 3 2 1 3 2 2 3 4 5 5 4 7 7 8 9 5 3 12 14 10 4 4 4 8 15 4 6 10 9 22 24
18 14 9 4 2 3 3 6 8 4 4 1 2 1 2 2 1 1 1 2 3 3 4 7 4 3 4 5 7 7 7 11 8 9 4 4 3 9 7 12 13 5 4 22 28
23 17 12 10 7 4 4 9 6 2 3 2 2 1 1 2 1 1 1 2 3 3 3 7 5 3 2 8 8 12 9 10 3 1 2 4 3 9 14 9 13 12 13 7 27
20 14 8 5 5 4 4 5 2 5 4 1 2 3 5 2 2 2 2 1 3 5 4 6 3 3 4 6 6 14 5 3 3 3 4 4 10 8 17 9 9 13 23 2 5
17 17 16 9 8 6 4 1 6 5 3 1 2 3 2 2 0 1 2 3 6 5 2 4 7 6 6 3 4 5 3 3 4 1 3 8 5 6 13 14 11 19 28 16 3
21 25 21 15 10 8 4 4 4 2 4 1 1 0 2 1 2 1 5 4 3 6 4 5 4 5 5 2 3 7 3 1 3 1 3 4 8 6 18 17 16 18 22 21 26
14 20 19 12 13 5 2 9 4 5 6 3 2 1 3 1 1 1 4 6 7 7 5 4 2 5 4 9 9 4 4 4 4 4 4 3 4 7 13 11 12 13 16 18 15
11 9 13 14 8 6 3 5 4 8 8 6 6 6 5 3 5 4 6 3 7 7 8 5 3 6 6 5 5 6 5 4 4 3 4 1 4 12 11 9 8 9 18 19 22
12 4 6 6 6 3 3 2 7 10 16 5 5 6 5 8 6 4 3 4 15 6 3 3 3 2 1 4 4 4 5 3 3 4 3 2 3 8 13 8 13 19 24 24 19
5 5 12 7 4 4 5 3 4 6 6 6 6 6 5 5 4 4 4 4 11 5 2 4 3 3 7 7 7 5 6 4 2 2 2 1 1 7 11 14 20 19 26 27 26
3 3 6 6 3 1 3 5 4 8 4 8 4 4 3 4 5 3 2 3 4 3 6 3 3 5 5 6 3 4 6 6 4 4 2 2 3 7 9 10 16 26 26 25 25
11 2 1 1 4 4 3 3 5 5 9 14 5 8 4 4 3 3 2 1 4 5 4 4 3 3 2 3 2 4 3 4 3 4 4 3 1 5 7 6 11 20 22 25 25
6 7 4 4 6 4 4 4 4 3 5 5 5 6 8 4 2 2 4 4 1 4 3 4 0 2 4 2 4 2 5 4 3 3 2 2 3 4 10 13 18 19 18 20 20
10 10 9 5 5 2 1 2 3 2 3 5 3 1 5 2 4 5 7 7 3 2 2 3 3 3 3 2 4 5 4 3 1 2 4 2 3 3 3 7 11 13 15 16 15

GFSSW_850_spd_120.txt.gz
Wind_Speed
18 18 20 18 19 17 16 16 16 8 11 10 10 10 8 9 9 11 15 2 13 14 8 8 8 7 5 6 8 6 3 8 12 12 14 23 10 28 29 25 28 26 31 34 33
20 20 19 19 20 11 18 18 15 17 14 13 9 9 8 8 10 17 5 12 9 14 13 9 11 9 6 6 6 6 5 15 10 14 14 23 17 20 7 16 24 29 30 33 33
22 21 22 20 18 14 14 19 18 16 15 13 8 8 7 7 9 3 8 11 14 12 11 10 9 7 7 9 9 7 12 13 19 22 22 21 20 19 13 17 26 32 32 37 35
22 21 21 21 20 16 10 6 12 16 12 12 7 5 5 6 3 6 4 7 11 10 10 12 9 5 6 7 18 7 17 22 27 26 21 15 23 19 20 37 34 33 36 31 28
24 22 20 20 20 18 10 11 4 9 7 5 4 4 5 2 7 7 5 4 5 9 13 11 12 9 5 5 12 14 16 22 29 29 29 28 25 23 30 38 36 38 42 39 37
23 24 20 19 18 18 14 12 9 6 4 5 3 6 5 2 7 9 4 3 5 10 11 9 7 10 7 5 6 8 13 19 23 24 23 19 23 11 36 37 34 36 40 47 46
25 22 20 19 17 14 17 10 7 8 7 6 4 6 7 9 6 12 9 1 4 2 8 10 11 7 4 4 14 14 12 15 18 18 10 14 16 19 44 33 32 32 37 44 48
26 23 20 17 15 13 14 11 13 3 5 5 4 5 6 3 11 13 10 8 9 10 7 9 8 7 6 6 6 4 3 4 4 0 6 10 21 19 28 24 28 37 41 46 38
25 22 19 14 13 10 9 8 9 7 6 5 4 3 7 1 4 9 12 8 9 10 7 8 7 6 4 3 2 3 5 7 9 6 8 10 14 17 16 16 18 25 31 30 37
28 20 17 10 9 7 6 3 6 6 5 7 6 2 3 5 2 4 8 9 7 4 8 8 5 2 3 1 3 4 8 7 11 7 10 15 23 25 28 19 27 28 25 21 28
23 16 12 4 6 6 2 5 7 5 8 5 2 0 5 7 3 5 10 8 6 3 4 6 2 7 10 8 9 6 8 11 12 11 8 9 18 20 20 22 20 21 18 15 19
19 13 7 2 2 4 3 6 7 6 3 7 8 7 6 5 2 4 6 4 5 5 3 4 7 11 12 11 11 11 8 12 8 12 6 13 13 12 15 6 13 6 15 16 13
21 15 9 4 2 4 9 8 6 4 4 5 3 3 5 2 2 5 4 3 5 4 7 5 6 6 3 5 6 5 5 5 10 12 5 4 4 19 23 13 14 13 19 13 27
26 14 8 7 11 9 11 5 8 5 3 5 3 2 0 1 2 4 5 2 2 4 4 5 3 4 5 4 3 4 3 7 10 8 3 3 3 17 19 23 20 24 26 19 27
21 19 19 13 8 10 8 9 6 2 5 4 2 1 2 1 2 2 3 3 3 4 4 6 3 4 2 5 2 6 8 6 7 5 3 4 3 11 15 17 15 20 23 3 22
15 11 15 16 14 10 8 8 5 4 5 3 2 2 2 1 2 1 2 3 4 3 2 5 6 0 3 7 4 7 3 3 1 1 3 9 3 7 15 16 18 24 33 21 10
19 16 16 12 12 11 9 2 4 6 4 3 2 0 2 2 2 1 3 6 4 5 5 6 5 6 3 7 5 8 4 3 4 4 3 5 7 5 16 15 14 15 27 31 16
14 14 18 19 13 11 8 2 9 1 1 1 1 0 1 1 3 5 2 5 6 4 2 4 7 6 9 1 4 5 3 2 2 1 2 6 4 7 13 14 18 19 30 27 29
14 19 18 17 11 4 2 6 3 1 2 3 3 3 4 2 1 2 3 6 4 6 4 5 5 5 5 4 3 7 4 1 2 3 5 4 6 2 17 15 10 18 28 25 25
16 15 15 11 6 6 4 9 4 2 3 2 2 1 1 3 1 3 5 4 6 4 3 5 3 3 6 8 8 4 4 3 3 3 4 2 3 4 13 13 14 15 19 26 27
6 5 8 7 11 5 4 3 2 7 2 3 2 5 3 2 3 3 4 1 6 7 5 4 3 6 5 5 6 6 5 4 3 2 3 2 3 8 10 11 11 14 21 26 30
13 4 11 9 5 3 3 2 2 7 8 4 3 3 2 4 5 3 2 1 13 5 3 4 3 1 2 4 4 4 4 2 3 5 3 3 2 6 8 9 16 19 24 26 26
6 7 13 10 3 3 4 4 5 7 5 4 5 4 4 3 4 2 2 4 9 5 2 3 3 3 8 6 6 5 5 3 3 2 2 3 2 5 9 12 17 19 25 26 27
4 5 9 10 6 3 3 4 2 7 4 4 5 5 3 6 6 3 2 3 5 4 8 4 3 5 4 5 3 5 6 4 4 3 2 1 3 5 8 9 12 19 20 22 23
4 4 3 4 7 7 3 2 3 5 6 12 5 6 2 3 3 3 3 2 4 9 5 4 3 3 2 4 3 3 4 6 4 3 3 3 3 1 3 3 7 11 15 18 21
3 3 3 1 11 8 6 4 2 1 4 4 4 4 6 4 1 2 2 3 1 5 3 3 1 3 4 4 4 3 4 3 3 2 3 3 3 1 4 2 9 10 11 14 16
7 5 2 2 6 4 5 5 6 2 2 5 2 2 5 2 2 3 5 6 3 1 2 3 3 3 3 6 6 5 4 4 2 3 3 3 4 1 2 3 4 6 8 10 12

GFSSW_850_spd_123.txt.gz
Wind_Speed
23 19 18 16 17 16 9 17 17 12 16 10 7 8 6 7 8 11 14 3 13 15 11 6 4 6 6 6 5 5 0 5 5 2 4 3 3 10 13 22 27 25 28 32 35
23 22 19 17 17 16 12 18 21 13 14 10 8 8 6 7 9 14 9 10 15 14 11 7 8 8 3 5 5 4 4 7 7 3 7 18 16 21 9 23 26 34 33 29 32
22 22 20 18 15 17 15 8 21 18 15 9 8 6 5 5 7 2 8 14 10 14 8 6 8 10 7 5 7 6 5 2 16 20 18 17 23 24 18 21 33 26 34 30 28
21 21 21 20 12 12 14 7 5 11 11 9 9 4 3 2 1 6 6 10 12 12 11 10 10 6 4 5 9 4 12 15 21 24 16 14 26 21 22 40 41 39 41 38 33
25 20 18 17 17 10 12 10 5 7 12 7 5 4 2 1 3 8 5 10 12 11 12 14 11 6 5 5 7 9 11 21 25 26 28 28 26 25 27 42 44 40 37 41 37
27 22 21 15 17 11 7 13 8 6 11 5 4 3 2 0 5 9 6 6 5 9 13 15 8 12 7 5 7 7 13 20 21 28 26 18 27 12 42 41 31 32 36 37 35
26 22 19 12 14 11 5 10 5 6 5 3 5 2 1 2 7 15 9 4 4 5 10 12 12 9 2 5 12 11 11 12 18 20 7 11 12 15 46 31 32 34 37 40 37
27 24 17 13 10 8 5 6 5 2 7 2 4 1 1 8 12 16 8 6 6 6 6 10 10 9 6 8 7 4 3 3 4 2 5 7 13 15 22 24 32 34 33 36 36
31 20 10 6 3 0 3 3 7 5 5 4 3 3 3 3 6 10 10 6 8 9 11 9 7 4 3 5 4 2 5 5 7 5 3 7 11 20 22 16 22 30 34 38 38
25 16 4 2 3 6 3 8 13 9 9 6 5 3 5 4 3 4 9 9 4 5 9 8 3 2 3 4 3 4 5 7 7 5 8 10 20 20 25 33 32 32 33 33 35
22 13 9 7 6 8 9 17 14 6 7 6 3 5 7 6 2 4 6 7 6 4 4 4 2 5 11 8 9 9 9 11 11 14 8 8 12 12 27 29 19 21 25 23 21
20 16 12 7 9 8 13 9 7 7 7 4 2 1 4 6 2 3 6 5 3 5 3 3 8 13 12 10 10 12 12 11 10 7 5 11 4 12 17 18 19 15 18 20 16
17 12 11 9 13 15 14 12 10 9 6 8 8 5 3 3 2 3 4 2 5 4 5 6 9 8 2 3 3 3 5 5 4 8 4 4 1 17 23 24 36 38 34 20 33
21 17 19 19 14 13 12 8 6 3 5 8 5 4 4 3 3 2 3 3 3 3 3 5 4 3 4 4 4 4 6 4 7 6 3 3 3 12 21 19 25 37 45 36 15
18 19 18 17 13 16 13 6 4 1 6 8 4 5 2 2 4 2 3 3 4 4 3 6 4 4 3 5 2 7 5 7 3 1 3 6 2 9 16 19 22 23 34 31 16
12 13 14 16 14 13 10 9 2 6 4 5 3 4 4 2 2 3 2 3 5 3 1 6 7 2 2 10 3 6 3 1 2 3 2 6 3 5 15 19 20 24 38 42 12
14 10 11 13 14 9 6 2 5 6 2 4 1 2 2 3 4 2 2 6 4 5 5 6 5 7 3 6 4 8 3 2 4 2 2 7 5 3 16 18 15 19 30 32 38
13 15 17 16 11 9 1 4 9 2 3 3 1 2 2 2 2 5 3 6 4 3 2 4 7 7 7 3 4 4 3 3 3 2 1 6 5 4 13 20 23 24 28 34 36
9 13 15 10 4 3 2 6 4 4 2 2 4 3 4 2 1 4 3 4 3 4 2 3 4 5 4 4 3 4 4 2 2 3 4 3 2 4 16 17 22 25 29 30 36
13 10 21 16 7 4 5 6 3 1 2 1 1 1 1 5 2 3 4 2 5 2 2 2 2 2 6 7 5 3 3 2 3 3 3 2 1 5 12 16 16 17 25 27 28
16 6 22 17 9 8 4 3 1 4 1 1 1 3 2 3 3 3 3 2 4 6 2 1 3 6 4 5 4 6 4 4 2 2 3 3 2 5 7 10 10 13 21 25 29
7 4 25 17 6 5 2 1 2 5 6 3 3 3 2 3 4 2 2 2 11 5 3 3 3 1 4 5 3 1 3 2 3 3 2 3 1 7 7 7 11 15 22 25 28
3 5 18 15 4 5 7 6 4 6 4 4 3 3 3 2 1 2 3 4 7 4 2 1 3 3 7 6 4 5 5 2 3 2 2 3 2 1 8 7 15 15 22 25 26
5 3 7 11 9 3 5 5 5 9 4 4 4 3 2 3 5 1 3 2 7 5 7 2 3 4 5 5 3 5 5 3 3 3 2 2 2 3 6 8 11 18 19 21 24
5 3 1 2 4 4 3 4 6 8 10 12 4 6 3 1 1 2 2 5 3 10 4 3 3 1 3 5 3 4 6 5 3 3 4 3 3 2 3 3 9 11 13 18 21
2 3 3 5 4 3 4 4 5 4 5 6 4 6 7 3 2 2 2 1 2 5 4 4 2 2 3 3 3 4 5 5 4 2 3 3 4 4 2 2 3 7 10 12 14
4 5 1 1 1 2 1 1 3 2 2 6 5 3 5 4 7 4 2 3 2 3 3 3 3 3 4 5 4 5 3 3 3 3 4 3 4 3 4 6 2 3 6 9 11